[[{"header":{"parameterUnit":"m.s-1","parameterCategory":1,"la1":30.6,"la2":28.766,"lo1":-90.7593,"lo2":-88.6598,"dy":0.0162,"dx":0.0183,"nx":116,"ny":114,"refTime":"2023-07-12T12:00:00:Z","depth":0,"parameterNumber":2,"parameterNumberName":"U-component_of_WINDS"},"data":[0.0,0.0,0.0,0.0,0.0,0.0,0.0,0.0,0.0,0.0,0.0,0.0,0.0,0.0,0.0,0.0,0.0,0.0,0.0,0.0,0.0,0.0,0.0,0.0,0.0,0.0,0.0,0.0,0.0,0.0,0.0,0.0,0.0,0.0,0.0,0.0,0.0,0.0,0.0,0.0,0.0,0.0,0.0,0.0,0.0,0.0,0.0,0.0,0.0,0.0,0.0,0.0,0.0,0.0,0.0,0.0,0.0,0.0,0.0,0.0,0.0,0.0,0.0,0.0,0.0,0.0,0.0,0.0,0.0,0.0,0.0,0.0,0.0,0.0,0.0,0.0,0.0,0.0,0.0,0.0,0.0,0.0,0.0,0.0,0.0,0.0,0.0,0.0,0.0,0.0,0.0,0.0,0.0,0.0,0.0,0.0,0.0,0.0,0.0,0.0,0.0,0.0,0.0,0.0,0.0,0.0,0.0,0.0,0.0,0.0,0.0,0.0,0.0,0.0,0.0,0.0,0.0,0.0,0.0,0.0,0.0,0.0,0.0,0.0,0.0,0.0,0.0,0.0,0.0,0.0,0.0,0.0,0.0,0.0,0.0,0.0,0.0,0.0,0.0,0.0,0.0,0.0,0.0,0.0,0.0,0.0,0.0,0.0,0.0,0.0,0.0,0.0,0.0,0.0,0.0,0.0,0.0,0.0,0.0,0.0,0.0,0.0,0.0,0.0,0.0,0.0,0.0,0.0,0.0,0.0,0.0,0.0,0.0,0.0,0.0,0.0,0.0,0.0,0.0,0.0,0.0,0.0,0.0,0.0,0.0,0.0,0.0,0.0,0.0,0.0,0.0,0.0,0.0,0.0,0.0,0.0,0.0,0.0,0.0,0.0,0.0,0.0,0.0,0.0,0.0,0.0,0.0,0.0,0.0,0.0,0.0,0.0,0.0,0.0,0.0,0.0,0.0,0.0,0.0,0.0,0.0,0.0,0.0,0.0,0.0,0.0,0.0,0.0,0.0,0.0,0.0,0.0,0.0,0.0,0.0,0.0,0.0,0.0,0.0,0.0,0.0,0.0,0.0,0.0,0.0,0.0,0.0,0.0,0.0,0.0,0.0,0.0,0.0,0.0,0.0,0.0,0.0,0.0,0.0,0.0,0.0,0.0,0.0,0.0,0.0,0.0,0.0,0.0,0.0,0.0,0.0,0.0,0.0,0.0,0.0,0.0,0.0,0.0,0.0,0.0,0.0,0.0,0.0,0.0,0.0,0.0,0.0,0.0,0.0,0.0,0.0,0.0,0.0,0.0,0.0,0.0,0.0,0.0,0.0,0.0,0.0,0.0,0.0,0.0,0.0,0.0,0.0,0.0,0.0,0.0,0.0,0.0,0.0,0.0,0.0,0.0,0.0,0.0,0.0,0.0,0.0,0.0,0.0,0.0,0.0,0.0,0.0,0.0,0.0,0.0,0.0,0.0,0.0,0.0,0.0,0.0,0.0,0.0,0.0,0.0,0.0,0.0,0.0,0.0,0.0,0.0,0.0,0.0,0.0,0.0,0.0,0.0,0.0,0.0,0.0,0.0,0.0,0.0,0.0,0.0,0.0,0.0,0.0,0.0,0.0,0.0,0.0,0.0,0.0,0.0,0.0,0.0,0.0,0.0,0.0,0.0,0.0,0.0,0.0,0.0,0.0,0.0,0.0,0.0,0.0,0.0,0.0,0.0,0.0,0.0,0.0,0.0,0.0,0.0,0.0,0.0,0.0,0.0,0.0,0.0,0.0,0.0,0.0,0.0,0.0,0.0,0.0,0.0,0.0,0.0,0.0,0.0,0.0,0.0,0.0,0.0,0.0,0.0,0.0,0.0,0.0,0.0,0.0,0.0,0.0,0.0,0.0,0.0,0.0,0.0,0.0,0.0,0.0,0.0,0.0,0.0,0.0,0.0,0.0,0.0,0.0,0.0,0.0,0.0,0.0,0.0,0.0,0.0,0.0,0.0,0.0,0.0,0.0,0.0,0.0,0.0,0.0,0.0,0.0,0.0,0.0,0.0,0.0,0.0,0.0,0.0,0.0,0.0,0.0,0.0,0.0,0.0,0.0,0.0,0.0,0.0,0.0,0.0,0.0,0.0,0.0,0.0,0.0,0.0,0.0,0.0,0.0,0.0,0.0,0.0,0.0,0.0,0.0,0.0,0.0,0.0,0.0,0.0,0.0,0.0,0.0,0.0,0.0,0.0,0.0,0.0,0.0,0.0,0.0,0.0,0.0,0.0,0.0,0.0,0.0,0.0,0.0,0.0,0.0,0.0,0.0,0.0,0.0,0.0,0.0,0.0,0.0,0.0,0.0,0.0,0.0,0.0,0.0,0.0,0.0,0.0,0.0,0.0,0.0,0.0,0.0,0.0,0.0,0.0,0.0,0.0,0.0,0.0,0.0,0.0,0.0,0.0,0.0,0.0,0.0,0.0,0.0,0.0,0.0,0.0,0.0,0.0,0.0,0.0,0.0,0.0,0.0,0.0,0.0,0.0,0.0,0.0,0.0,0.0,0.0,0.0,0.0,0.0,0.0,0.0,0.0,0.0,0.0,0.0,0.0,0.0,0.0,0.0,0.0,0.0,0.0,0.0,0.0,0.0,0.0,0.0,0.0,0.0,0.0,0.0,0.0,0.0,0.0,0.0,0.0,0.0,0.0,0.0,0.0,0.0,0.0,0.0,0.0,0.0,0.0,0.0,0.0,0.0,0.0,0.0,0.0,0.0,0.0,0.0,0.0,0.0,0.0,0.0,0.0,0.0,0.0,0.0,0.0,0.0,0.0,0.0,0.0,0.0,0.0,0.0,0.0,0.0,0.0,0.0,0.0,0.0,0.0,0.0,0.0,0.0,0.0,0.0,0.0,0.0,0.0,0.0,0.0,0.0,0.0,0.0,0.0,0.0,0.0,0.0,0.0,0.0,0.0,0.0,0.0,0.0,0.0,0.0,0.0,0.0,0.0,0.0,0.0,0.0,0.0,0.0,0.0,0.0,0.0,0.0,0.0,0.0,0.0,0.0,0.0,0.0,0.0,0.0,0.0,0.0,0.0,0.0,0.0,0.0,0.0,0.0,0.0,0.0,0.0,0.0,0.0,0.0,0.0,0.0,0.0,0.0,0.0,0.0,0.0,0.0,0.0,0.0,0.0,0.0,0.0,0.0,0.0,0.0,0.0,0.0,0.0,0.0,0.0,0.0,0.0,0.0,0.0,0.0,0.0,0.0,0.0,0.0,0.0,0.0,0.0,0.0,0.0,0.0,0.0,0.0,0.0,0.0,0.0,0.0,0.0,0.0,0.0,0.0,0.0,0.0,0.0,0.0,0.0,0.0,0.0,0.0,0.0,0.0,0.0,0.0,0.0,0.0,0.0,0.0,0.0,0.0,0.0,0.0,0.0,0.0,0.0,0.0,0.0,0.0,0.0,0.0,0.0,0.0,0.0,0.0,0.0,0.0,0.0,0.0,0.0,0.0,0.0,0.0,0.0,0.0,0.0,0.0,0.0,0.0,0.0,0.0,0.0,0.0,0.0,0.0,0.0,0.0,0.0,0.0,0.0,0.0,0.0,0.0,0.0,0.0,0.0,0.0,0.0,0.0,0.0,0.0,0.0,0.0,0.0,0.0,0.0,0.0,0.0,0.0,0.0,0.0,0.0,0.0,0.0,0.0,0.0,0.0,0.0,0.0,0.0,0.0,0.0,0.0,0.0,0.0,0.0,0.0,0.0,0.0,0.0,0.0,0.0,0.0,0.0,0.0,0.0,0.0,0.0,0.0,0.0,0.0,0.0,0.0,0.0,0.0,0.0,0.0,0.0,0.0,0.0,0.0,0.0,0.0,0.0,0.0,0.0,0.0,0.0,0.0,0.0,0.0,0.0,0.0,0.0,0.0,0.0,0.0,0.0,0.0,0.0,0.0,0.0,0.0,0.0,0.0,0.0,0.0,0.0,0.0,0.0,0.0,0.0,0.0,0.0,0.0,0.0,0.0,0.0,0.0,0.0,0.0,0.0,0.0,0.0,0.0,0.0,0.0,0.0,0.0,0.0,0.0,0.0,0.0,0.0,0.0,0.0,0.0,0.0,0.0,0.0,0.0,0.0,0.0,0.0,0.0,0.0,0.0,0.0,0.0,0.0,0.0,0.0,0.0,0.0,0.0,0.0,0.0,0.0,0.0,0.0,0.0,0.0,0.0,0.0,0.0,0.0,0.0,0.0,0.0,0.0,0.0,0.0,0.0,0.0,0.0,0.0,0.0,0.0,0.0,0.0,0.0,0.0,0.0,0.0,0.0,0.0,0.0,0.0,0.0,0.0,0.0,0.0,0.0,0.0,0.0,0.0,0.0,0.0,0.0,0.0,0.0,0.0,0.0,0.0,0.0,0.0,0.0,0.0,0.0,0.0,0.0,0.0,0.0,0.0,0.0,0.0,0.0,0.0,0.0,0.0,0.0,0.0,0.0,0.0,0.0,0.0,0.0,0.0,0.0,0.0,0.0,0.0,0.0,0.0,0.0,0.0,0.0,0.0,0.0,0.0,0.0,0.0,0.0,0.0,0.0,0.0,0.0,0.0,0.0,0.0,0.0,0.0,0.0,0.0,0.0,0.0,0.0,0.0,0.0,0.0,0.0,0.0,0.0,0.0,0.0,0.0,0.0,0.0,0.0,0.0,0.0,0.0,0.0,0.0,0.0,0.0,0.0,0.0,0.0,0.0,0.0,0.0,0.0,0.0,0.0,0.0,0.0,0.0,0.0,0.0,0.0,0.0,0.0,0.0,0.0,0.0,0.0,0.0,0.0,0.0,0.0,0.0,0.0,0.0,0.0,0.0,0.0,0.0,0.0,0.0,0.0,0.0,0.0,0.0,0.0,0.0,0.0,0.0,0.0,0.0,0.0,0.0,0.0,0.0,0.0,0.0,0.0,0.0,0.0,0.0,0.0,0.0,0.0,0.0,0.0,0.0,0.0,0.0,0.0,0.0,0.0,0.0,0.0,0.0,0.0,0.0,0.0,0.0,0.0,0.0,0.0,0.0,0.0,0.0,0.0,0.0,0.0,0.0,0.0,0.0,0.0,0.0,0.0,0.0,0.0,0.0,0.0,0.0,0.0,0.0,0.0,0.0,0.0,0.0,0.0,0.0,0.0,0.0,0.0,0.0,0.0,0.0,0.0,0.0,0.0,0.0,0.0,0.0,0.0,0.0,0.0,0.0,0.0,0.0,0.0,0.0,0.0,0.0,0.0,0.0,0.0,0.0,0.0,0.0,0.0,0.0,0.0,0.0,0.0,0.0,0.0,0.0,0.0,0.0,0.0,0.0,0.0,0.0,0.0,0.0,0.0,0.0,0.0,0.0,0.0,0.0,0.0,0.0,0.0,0.0,0.0,0.0,0.0,0.0,0.0,0.0,0.0,0.0,0.0,0.0,0.0,0.0,0.0,0.0,0.0,0.0,0.0,0.0,0.0,0.0,0.0,0.0,0.0,0.0,0.0,0.0,0.0,0.0,0.0,0.0,0.0,0.0,0.0,0.0,0.0,0.0,0.0,0.0,0.0,0.0,0.0,0.0,0.0,0.0,0.0,0.0,0.0,0.0,0.0,0.0,0.0,0.0,0.0,0.0,0.0,0.0,0.0,0.0,0.0,0.0,0.0,0.0,0.0,0.0,0.0,0.0,0.0,0.0,0.0,0.0,0.0,0.0,0.0,0.0,0.0,0.0,0.0,0.0,0.0,0.0,0.0,0.0,0.0,0.0,0.0,0.0,0.0,0.0,0.0,0.0,0.0,0.0,0.0,0.0,0.0,0.0,0.0,0.0,0.0,0.0,0.0,0.0,0.0,0.0,0.0,0.0,0.0,0.0,0.0,0.0,0.0,0.0,0.0,0.0,0.0,0.0,0.0,0.0,0.0,0.0,0.0,0.0,0.0,0.0,0.0,0.0,0.0,0.0,0.0,0.0,0.0,0.0,0.0,0.0,0.0,0.0,0.0,0.0,0.0,0.0,0.0,0.0,0.0,0.0,0.0,0.0,0.0,0.0,0.0,0.0,0.0,0.0,0.0,0.0,0.0,0.0,0.0,0.0,0.0,0.0,0.0,-1.3184,0.0,0.0,0.0,0.0,0.0,0.0,0.0,0.0,0.0,0.0,0.0,0.0,0.0,0.0,0.0,0.0,0.0,0.0,0.0,0.0,0.0,0.0,0.0,0.0,0.0,0.0,0.0,0.0,0.0,0.0,0.0,0.0,0.0,0.0,0.0,0.0,0.0,0.0,0.0,0.0,0.0,0.0,0.0,0.0,0.0,0.0,0.0,0.0,0.0,0.0,0.0,0.0,0.0,0.0,0.0,0.0,0.0,0.0,0.0,0.0,0.0,0.0,0.0,0.0,0.0,0.0,0.0,0.0,0.0,0.0,0.0,0.0,0.0,0.0,0.0,0.0,0.0,0.0,0.0,0.0,0.0,0.0,0.0,0.0,0.0,0.0,0.0,0.0,0.0,0.0,0.0,0.0,0.0,0.0,0.0,0.0,0.0,0.0,0.0,0.0,0.0,0.0,0.0,0.0,0.0,0.0,0.0,0.0,0.0,0.0,0.0,0.0,0.0,0.0,0.0,0.0,-1.4162,0.0,0.0,0.0,0.0,0.0,0.0,0.0,0.0,0.0,0.0,0.0,0.0,0.0,0.0,0.0,0.0,0.0,0.0,0.0,0.0,0.0,0.0,0.0,0.0,0.0,0.0,0.0,0.0,0.0,0.0,0.0,0.0,0.0,0.0,0.0,0.0,0.0,0.0,0.0,0.0,0.0,0.0,0.0,0.0,0.0,0.0,0.0,0.0,0.0,0.0,0.0,0.0,0.0,0.0,0.0,0.0,0.0,0.0,0.0,0.0,0.0,0.0,0.0,0.0,0.0,0.0,0.0,0.0,0.0,0.0,0.0,0.0,0.0,0.0,0.0,0.0,0.0,0.0,0.0,0.0,0.0,0.0,0.0,0.0,0.0,0.0,0.0,0.0,0.0,0.0,0.0,0.0,0.0,0.0,0.0,0.0,0.0,0.0,0.0,0.0,0.0,0.0,0.0,0.0,0.0,0.0,0.0,0.0,-1.6114,-1.6335,-1.6526,-1.6643,-1.6707,-1.6793,-1.6497,-1.6376,-1.6367,-1.5377,0.0,0.0,0.0,0.0,0.0,0.0,0.0,0.0,0.0,0.0,0.0,0.0,0.0,0.0,0.0,0.0,0.0,0.0,0.0,0.0,0.0,0.0,0.0,0.0,0.0,0.0,0.0,0.0,0.0,0.0,0.0,0.0,0.0,0.0,0.0,0.0,0.0,0.0,-1.9677,-2.0159,-2.0447,-2.0447,-1.8717,0.0,0.0,0.0,0.0,0.0,0.0,0.0,0.0,0.0,0.0,0.0,0.0,0.0,0.0,0.0,0.0,0.0,0.0,0.0,0.0,0.0,0.0,0.0,0.0,0.0,0.0,0.0,0.0,0.0,0.0,0.0,0.0,0.0,0.0,0.0,0.0,0.0,0.0,0.0,0.0,0.0,0.0,0.0,-1.3283,-1.2865,0.0,0.0,0.0,0.0,0.0,0.0,0.0,0.0,0.0,0.0,0.0,0.0,0.0,-1.563,-1.6004,-1.6941,-1.7261,-1.7088,-1.788,-1.811,-1.7851,-1.8312,-1.8769,-1.9134,-1.899,0.0,-1.5794,-1.5476,0.0,0.0,0.0,0.0,0.0,0.0,0.0,0.0,0.0,0.0,0.0,0.0,0.0,0.0,0.0,0.0,0.0,0.0,0.0,0.0,0.0,0.0,0.0,0.0,0.0,0.0,0.0,0.0,0.0,0.0,0.0,0.0,0.0,0.0,0.0,0.0,-1.9047,-2.036,-2.1422,-2.215,-2.2714,-2.3043,-2.192,-2.0876,-1.9913,-1.8664,0.0,0.0,0.0,0.0,0.0,0.0,0.0,0.0,0.0,0.0,0.0,0.0,0.0,0.0,0.0,0.0,0.0,0.0,0.0,0.0,0.0,0.0,0.0,0.0,0.0,0.0,0.0,0.0,0.0,0.0,0.0,0.0,0.0,0.0,0.0,0.0,0.0,0.0,0.0,-1.3286,-1.3951,-1.3835,-1.4455,-1.4703,0.0,0.0,0.0,0.0,0.0,0.0,0.0,0.0,0.0,-1.6464,-1.664,-1.7074,-1.7837,-1.8169,-1.8583,-1.9063,-1.9445,-1.9646,-1.9686,-1.9925,-2.0035,-2.0033,-1.9986,-1.9136,-1.7725,-1.7164,-1.669,-1.6355,0.0,0.0,0.0,0.0,-1.7598,-1.7755,0.0,0.0,0.0,0.0,0.0,0.0,0.0,0.0,0.0,0.0,0.0,0.0,0.0,0.0,0.0,-1.6962,0.0,0.0,0.0,0.0,0.0,0.0,0.0,0.0,0.0,0.0,0.0,0.0,-2.0865,-2.2356,-2.3381,-2.4312,-2.4985,-2.5354,-2.5181,-2.3834,-2.1632,-2.036,-1.9459,0.0,0.0,0.0,0.0,0.0,0.0,0.0,0.0,0.0,0.0,0.0,0.0,0.0,0.0,0.0,0.0,0.0,0.0,0.0,0.0,0.0,0.0,0.0,0.0,0.0,0.0,0.0,0.0,0.0,0.0,0.0,0.0,0.0,0.0,0.0,0.0,0.0,0.0,-1.3936,-1.4541,-1.4451,-1.5085,-1.5333,0.0,0.0,0.0,0.0,0.0,0.0,-1.5993,-1.6604,-1.7229,-1.7865,-1.8104,-1.8675,-1.9557,-1.9503,-1.9892,-2.0662,-2.075,-2.0885,-2.1008,-2.1008,-2.0861,-2.0527,-2.0527,-2.0186,-1.959,-1.8616,-1.7995,-1.7635,-1.7522,-1.7647,-1.8071,-1.9081,-1.9368,-1.9555,0.0,0.0,0.0,0.0,0.0,0.0,0.0,0.0,0.0,0.0,0.0,0.0,0.0,0.0,-1.7024,-1.8818,-1.8185,-1.7843,0.0,0.0,0.0,0.0,0.0,0.0,0.0,0.0,0.0,-2.0753,-2.2763,-2.4458,-2.573,-2.6708,-2.7324,-2.7769,-2.8183,-2.6985,-2.4563,-2.2798,-2.1438,-2.038,0.0,0.0,0.0,0.0,0.0,0.0,0.0,0.0,0.0,0.0,0.0,0.0,0.0,0.0,0.0,0.0,0.0,0.0,0.0,0.0,0.0,0.0,0.0,0.0,0.0,0.0,0.0,0.0,0.0,0.0,0.0,0.0,0.0,0.0,0.0,0.0,0.0,0.0,0.0,-1.406,-1.5913,0.0,0.0,0.0,0.0,-1.6124,-1.6784,-1.7343,-1.7647,-1.8511,-1.912,-1.9475,-1.9973,-2.0424,-2.0813,-2.1103,-2.1293,-2.1349,-2.1727,-2.1719,-2.1373,-2.1373,-2.1174,-2.0893,-2.0893,-2.0686,-2.0234,-1.9082,-1.8402,-1.8042,-1.7516,-1.7857,-1.8708,-1.914,-1.9847,-2.0721,0.0,0.0,0.0,0.0,0.0,0.0,0.0,0.0,0.0,0.0,0.0,0.0,0.0,-1.6798,-1.7978,-1.9779,-1.9924,-1.9817,-1.9706,0.0,0.0,0.0,0.0,0.0,0.0,0.0,-2.0881,-2.2824,-2.4726,-2.6154,-2.721,-2.7841,-2.8214,-2.838,-2.8545,-2.8113,-2.715,-2.5183,-2.3982,-2.3134,-2.0588,-1.9049,0.0,0.0,0.0,0.0,0.0,0.0,0.0,0.0,0.0,0.0,0.0,0.0,0.0,0.0,0.0,0.0,0.0,0.0,0.0,0.0,0.0,0.0,0.0,0.0,0.0,0.0,0.0,0.0,0.0,0.0,0.0,0.0,0.0,0.0,0.0,0.0,0.0,-1.6423,-1.7655,0.0,-1.7549,-1.7507,-1.7672,-1.7909,-1.8262,-1.871,-1.9323,-1.9918,-2.0387,-2.0737,-2.1207,-2.1568,-2.1926,-2.2053,-2.2235,-2.2403,-2.2585,-2.2577,-2.2458,-2.2458,-2.214,-2.1592,-2.1592,-2.1258,-2.0729,-2.0767,-2.0377,-1.9844,-2.1021,-2.1493,-2.1594,-2.2699,-2.3136,-2.3246,0.0,0.0,0.0,0.0,0.0,0.0,0.0,0.0,0.0,0.0,0.0,-1.5059,-1.6456,-1.7688,-1.9147,-2.0969,-2.1087,-2.0881,-2.0416,0.0,0.0,0.0,0.0,0.0,0.0,-2.0648,-2.2563,-2.455,-2.6372,-2.7645,-2.84,-2.8866,-2.9073,-2.9094,-2.9404,-2.9466,-2.9218,-2.7706,-2.629,-2.4787,-2.237,-2.0929,-2.0002,0.0,0.0,0.0,0.0,0.0,0.0,0.0,0.0,0.0,0.0,0.0,0.0,0.0,0.0,0.0,0.0,0.0,0.0,0.0,0.0,0.0,0.0,0.0,0.0,0.0,0.0,0.0,0.0,0.0,0.0,0.0,0.0,0.0,0.0,0.0,-1.8187,-1.8189,-1.9018,-1.9513,-1.9165,-1.9178,-1.9231,-1.9374,-1.9693,-2.007,-2.0584,-2.1119,-2.156,-2.1737,-2.2132,-2.2426,-2.2664,-2.2664,-2.2784,-2.3014,-2.3014,-2.295,-2.2839,-2.2839,-2.2521,-2.2011,-2.2011,-2.1632,-2.1187,-2.2391,-2.2256,-2.1371,-2.2547,-2.3202,-2.3584,-2.4192,-2.4658,-2.5037,0.0,0.0,0.0,0.0,0.0,0.0,0.0,0.0,0.0,0.0,-1.4438,-1.5546,-1.6903,-1.8713,-2.057,-2.2356,-2.1652,-2.0928,-2.0436,-1.8701,0.0,0.0,0.0,0.0,-1.9865,-2.2571,-2.4592,-2.5968,-2.7759,-2.8876,-2.9352,-2.9808,-3.0025,-3.0077,-3.0998,-3.1153,-3.0698,-3.0284,-2.8286,-2.5323,-2.4615,-2.3134,-2.1175,0.0,0.0,0.0,0.0,0.0,0.0,0.0,0.0,0.0,0.0,0.0,0.0,0.0,0.0,0.0,0.0,0.0,0.0,0.0,0.0,0.0,0.0,0.0,0.0,0.0,0.0,0.0,0.0,0.0,0.0,0.0,0.0,0.0,-1.6554,-1.8572,-1.9768,-1.906,-2.003,-2.0498,-1.9741,-2.0345,-2.0656,-2.0456,-2.1091,-2.1436,-2.1444,-2.214,-2.2506,-2.2506,-2.2831,-2.3014,-2.3014,-2.3014,-2.3014,-2.3014,-2.3014,-2.2831,-2.2506,-2.2506,-2.2307,-2.2027,-2.2027,-2.1783,-2.157,-2.37,-2.3794,-2.2534,-2.1916,-2.2838,-2.4434,-2.343,-2.4266,-2.5941,0.0,0.0,0.0,0.0,0.0,0.0,0.0,0.0,0.0,0.0,-1.4718,-1.6146,-1.7833,-1.9644,-2.1352,-2.2873,-2.1849,-2.1062,-2.0938,0.0,0.0,0.0,0.0,0.0,-2.219,-2.396,-2.5844,-2.7862,-2.87,-2.9528,-3.0315,-3.0439,-3.0677,-3.1029,-3.1598,-3.1785,-3.1702,-3.223,-3.1381,-2.9415,-2.6253,-2.4715,-2.4092,0.0,0.0,0.0,0.0,0.0,0.0,0.0,0.0,0.0,0.0,0.0,0.0,0.0,0.0,0.0,0.0,0.0,0.0,0.0,0.0,0.0,0.0,0.0,0.0,0.0,0.0,0.0,0.0,0.0,0.0,0.0,0.0,-1.8803,-1.8104,-1.9483,-2.0647,-2.1124,-2.1687,-2.1945,-2.1746,-2.1674,-2.1746,-2.1894,-2.2092,-2.2315,-2.2569,-2.2768,-2.2871,-2.2871,-2.2966,-2.3014,-2.3014,-2.3014,-2.3014,-2.3014,-2.3014,-2.2966,-2.2871,-2.2871,-2.2672,-2.2339,-2.2339,-2.214,-2.1921,-2.3328,-2.4147,-2.4588,-2.5412,-2.5571,-2.5428,-2.5904,-2.6231,-2.6376,0.0,0.0,0.0,0.0,0.0,0.0,0.0,0.0,0.0,0.0,-1.4997,-1.6446,-1.7678,-1.9613,-2.1155,-2.1963,-2.129,-2.0586,-2.0006,0.0,0.0,0.0,0.0,-2.1331,-2.3701,-2.5285,-2.7013,-2.8897,-2.9559,-3.0356,-3.1257,-3.1454,-3.1681,-3.1961,-3.2406,-3.2499,-3.2308,-3.2882,-3.2654,-3.1702,-2.8928,-2.7459,-2.6652,-2.3687,-2.2717,-2.2726,-2.1201,-2.1078,-2.1332,-1.9775,0.0,0.0,0.0,0.0,0.0,0.0,0.0,0.0,0.0,0.0,0.0,0.0,0.0,0.0,0.0,0.0,0.0,0.0,0.0,0.0,0.0,0.0,0.0,0.0,-1.9343,-2.0137,-2.02,-2.1265,-2.2074,-2.2217,-2.2625,-2.2871,-2.272,-2.2521,-2.2545,-2.2903,-2.2791,-2.2863,-2.322,-2.3093,-2.3014,-2.3014,-2.3014,-2.3014,-2.3014,-2.3014,-2.3014,-2.3014,-2.3014,-2.3014,-2.3014,-2.3014,-2.2903,-2.2704,-2.2704,-2.2773,-2.3021,-2.4084,-2.5097,-2.6017,0.0,0.0,0.0,0.0,-2.7133,-2.6864,0.0,0.0,0.0,0.0,0.0,0.0,0.0,0.0,0.0,0.0,0.0,-1.6477,-1.6893,-1.8866,-2.0213,-2.0265,-2.0147,-1.9603,0.0,0.0,0.0,-1.9367,-2.1135,-2.2977,-2.4766,-2.6527,-2.8059,-2.9384,-3.0263,-3.1122,-3.1915,-3.2432,-3.2669,-3.269,-3.3244,-3.3213,-3.2809,-3.2861,-3.2851,-3.2737,-3.193,-3.0622,-2.885,-2.629,-2.5386,-2.5275,-2.3588,-2.2828,-2.2443,-2.144,0.0,0.0,0.0,0.0,0.0,0.0,0.0,0.0,0.0,0.0,0.0,0.0,0.0,0.0,0.0,0.0,0.0,0.0,0.0,0.0,0.0,0.0,0.0,0.0,-2.0159,-2.1001,-2.2489,-2.34,-2.3638,-2.2775,-2.3181,-2.3362,-2.3101,-2.3038,-2.3149,-2.3401,-2.3171,-2.3197,-2.3409,0.0,0.0,0.0,0.0,-2.3014,-2.3014,-2.3014,-2.3014,-2.3014,-2.3014,-2.3014,-2.3014,-2.3014,-2.3014,-2.3014,-2.3127,-2.354,-2.4156,-2.5389,-2.6299,-2.6873,-2.5519,-2.613,-2.78,-2.7455,-2.7309,-2.7309,0.0,0.0,0.0,0.0,0.0,0.0,0.0,0.0,0.0,-1.4106,-1.5112,-1.6029,-1.6456,-1.7864,-1.893,-1.9336,-1.8671,-1.8112,0.0,0.0,-1.9551,-2.1207,-2.2999,-2.4861,-2.6693,-2.78,-2.8845,-2.986,-3.0419,-3.0967,-3.1526,-3.2344,-3.2669,-3.2711,-3.3575,-3.3679,-3.3275,-3.3648,-3.3596,-3.3234,-3.3058,-3.1961,-3.0179,-2.8526,-2.7672,-2.7191,-2.5785,-2.5692,-2.6053,-2.4579,-2.4055,-2.383,-2.2585,0.0,0.0,0.0,0.0,0.0,0.0,0.0,0.0,0.0,0.0,0.0,0.0,0.0,0.0,0.0,0.0,0.0,0.0,0.0,0.0,-2.0792,-2.1743,-2.2776,-2.3683,-2.4167,-2.4306,-2.3843,-2.3626,-2.3457,-2.3393,-2.3181,-2.3046,-2.3109,-2.3259,-2.329,-2.3133,-2.3267,-2.3251,-2.3022,-2.3014,-2.3014,-2.3014,-2.3014,-2.3014,-2.3014,-2.3014,0.0,-2.3014,-2.3014,-2.3014,-2.307,-2.4008,-2.3966,-2.3398,-2.551,-2.6586,-2.6955,-2.7182,-2.7298,-2.7423,-2.734,-2.7309,-2.7309,0.0,0.0,0.0,0.0,0.0,0.0,0.0,0.0,0.0,0.0,-1.497,-1.5502,-1.5921,-1.6811,-1.7408,-1.7408,-1.6964,0.0,0.0,-1.9116,-2.0772,-2.303,-2.4705,-2.6299,-2.7903,-2.8607,-2.9301,-2.9994,-3.0698,-3.1267,-3.1723,-3.2633,-3.3182,-3.342,-3.3865,-3.4132,-3.4132,-3.4132,-3.3938,-3.3699,-3.3472,-3.284,-3.1878,-3.0512,-2.9559,-2.8804,-2.7655,-2.7396,-2.7376,-2.5908,-2.5708,-2.5822,-2.4012,-2.2615,-2.1302,0.0,0.0,0.0,0.0,0.0,0.0,0.0,0.0,0.0,0.0,0.0,0.0,0.0,0.0,-1.932,0.0,0.0,-2.1493,-2.2172,-2.2823,-2.3522,-2.4281,-2.4468,-2.438,-2.3856,-2.38,-2.3665,-2.3316,-2.3117,-2.3093,-2.3268,-2.3219,-2.3219,-2.3219,-2.3219,-2.314,-2.3022,-2.3014,-2.3014,-2.3014,-2.3014,-2.3014,-2.3014,-2.3014,-2.3014,-2.3014,-2.3014,-2.3014,-2.3006,-2.3484,-2.3946,-2.4597,-2.6946,-2.7851,-2.7754,-2.8101,-2.7852,-2.7309,-2.7309,-2.7309,-2.7309,0.0,0.0,0.0,0.0,0.0,0.0,0.0,0.0,0.0,0.0,-1.4944,-1.5053,-1.5217,-1.5705,-1.5863,0.0,0.0,0.0,0.0,-1.9965,-2.1935,-2.4518,-2.6061,-2.7396,-2.8587,-2.9063,-2.9528,-2.9994,-3.0926,-3.1557,-3.193,-3.2913,-3.3534,-3.3813,-3.3896,-3.4093,-3.4341,-3.4111,-3.3938,-3.3955,-3.3524,-3.3379,-3.3234,-3.1981,-3.0988,-3.0129,-2.9114,-2.8227,-2.7441,-2.6382,-2.6392,-2.6532,-2.4831,-2.4048,-2.3288,-2.0964,-1.9791,0.0,0.0,0.0,0.0,0.0,0.0,0.0,0.0,0.0,-2.0014,-2.0978,-2.0759,-2.0753,-2.1931,-2.2256,-2.2635,-2.34,-2.3685,-2.4039,-2.4603,-2.4627,-2.4349,-2.3713,-2.3888,-2.3891,-2.3268,-2.3093,-2.3133,-2.3362,-2.3179,-2.3213,-2.337,-2.3236,-2.3085,-2.3014,-2.3014,-2.3014,-2.3014,-2.3014,-2.3127,-2.3352,-2.3127,-2.3127,-2.3344,-2.3127,-2.3127,-2.3328,-2.3306,-2.4579,-2.6714,-2.8333,-2.8818,-2.8618,-2.8618,-2.811,-2.7423,-2.734,-2.7309,-2.7309,0.0,0.0,0.0,0.0,0.0,0.0,0.0,0.0,0.0,0.0,0.0,0.0,0.0,0.0,0.0,0.0,0.0,0.0,0.0,-2.1041,-2.3132,-2.5024,-2.6791,-2.8038,-2.8597,-2.9063,-2.9528,-2.9994,-3.0926,-3.1402,-3.1485,-3.2768,-3.3203,-3.2892,-3.3285,-3.3275,-3.2975,-3.3317,-3.3451,-3.3451,-3.3399,-3.3379,-3.3275,-3.2323,-3.1661,-3.105,-2.9704,-2.8054,-2.6469,-2.6501,-2.5929,-2.5372,-2.6522,-2.5671,-2.3985,-2.2635,0.0,-1.8849,-1.8076,-1.8099,-1.8705,-2.023,-2.0549,-2.0978,0.0,0.0,-2.1916,-2.2454,-2.2577,-2.2519,-2.2327,-2.3404,-2.422,-2.4039,-2.4559,-2.496,-2.504,-2.4778,-2.4436,-2.4098,-2.409,-2.4082,-2.4002,-2.3371,-2.303,-2.307,-2.3275,-2.3306,-2.3093,-2.3282,-2.3282,-2.3022,-2.3014,-2.3014,-2.3014,-2.3014,-2.3568,-2.4565,-2.3512,-2.3568,-2.4565,-2.3512,-2.3568,-2.4667,-2.5636,-2.7406,-2.9452,-2.8296,-2.8135,-2.8618,-2.8618,-2.8297,-2.78,-2.7455,-2.7309,-2.7309,0.0,0.0,0.0,0.0,0.0,0.0,0.0,0.0,0.0,0.0,0.0,0.0,0.0,0.0,0.0,0.0,0.0,0.0,-1.9448,-2.1161,-2.3267,-2.5896,-2.7241,-2.8266,-2.9001,-2.9208,-2.9663,-3.0398,-3.106,-3.1505,-3.1785,-3.2613,-3.3037,-3.3099,-3.3037,-3.3192,-3.3492,-3.3151,-3.3306,-3.3731,-3.3213,-3.3006,-3.2871,-3.1702,-3.047,-2.9218,-2.7963,-2.6644,0.0,0.0,-2.4461,-2.4948,-2.523,-2.4856,-2.3995,-2.2321,-2.1275,0.0,-2.0446,-2.0386,0.0,0.0,-2.2788,-2.3612,-2.4108,-2.4212,-2.4207,-2.4374,-2.4052,-2.3867,-2.4178,-2.4441,-2.4609,0.0,-2.4913,-2.504,-2.4833,-2.4674,-2.4372,-2.3824,-2.3578,-2.3451,-2.3451,-2.3189,-2.3014,-2.3014,-2.3149,-2.3173,-2.3022,-2.3157,-2.3108,-2.3022,-2.3014,-2.3344,-2.4064,-2.3553,-2.3772,-2.4787,-2.378,-2.344,-2.3736,-2.3952,-2.4603,-2.5577,-2.6686,-2.7703,-2.8657,-2.8632,-2.8768,-2.9021,-2.9021,-2.8731,-2.8266,-2.781,-2.7645,-2.7614,0.0,0.0,0.0,0.0,0.0,0.0,0.0,0.0,0.0,0.0,0.0,0.0,0.0,0.0,0.0,0.0,0.0,0.0,0.0,0.0,0.0,0.0,-2.6868,0.0,-2.8897,-2.9177,-2.9756,-3.0688,-3.1153,-3.1609,-3.1988,-3.2328,-3.2706,-3.2985,-3.2551,-3.2716,-3.3296,-3.2768,-3.2913,-3.3451,-3.2799,-3.2328,-3.2002,-3.0501,-2.87,-2.6863,-2.6064,-2.4863,0.0,0.0,-2.2318,-2.3094,-2.3042,-2.3053,-2.289,-2.1716,-2.1439,-2.157,-2.1746,0.0,0.0,-2.3432,-2.5064,-2.6353,-2.6044,-2.633,-2.6717,-2.6741,-2.5798,-2.5159,-2.576,-2.5081,-2.4515,-2.4778,-2.4897,-2.4841,-2.4484,-2.4356,-2.4039,-2.3332,-2.2855,-2.2585,-2.2585,-2.276,-2.2911,-2.3006,-2.3014,-2.3014,-2.3014,-2.3014,-2.3127,-2.3512,-2.3279,-2.3715,-2.4932,-2.3975,-2.3975,-2.4932,-2.421,-2.3869,-2.3999,-2.5203,-2.6082,-2.6664,-2.7783,-2.8306,-2.8401,-2.9167,-2.9415,-2.9321,-2.9446,-2.9135,-2.8587,-2.838,-2.8152,-2.7959,0.0,0.0,0.0,0.0,0.0,0.0,0.0,0.0,0.0,0.0,0.0,0.0,0.0,0.0,0.0,0.0,0.0,0.0,0.0,0.0,0.0,0.0,0.0,-2.7034,-2.7945,-2.8845,-2.9756,-3.0688,-3.1153,-3.1609,-3.1988,-3.1998,-3.2008,-3.2008,-3.1619,-3.1433,-3.1485,-3.1888,-3.2019,-3.2039,-3.2019,-3.1536,-3.0553,-2.8711,-2.6563,-2.46,-2.443,0.0,0.0,0.0,-1.9404,-1.8858,-2.0339,-2.0487,0.0,-2.131,-2.1135,0.0,0.0,0.0,-2.3618,-2.5159,-2.7037,-2.8723,-2.9632,-2.9533,-2.9439,-2.9886,-2.8068,-2.6455,-2.6481,-2.5158,-2.4129,-2.4145,-2.4372,-2.4476,-2.4177,-2.3785,-2.3251,-2.2601,-2.1918,-2.1444,0.0,-2.2108,-2.2649,-2.299,-2.3014,-2.3014,-2.3014,-2.3014,-2.3568,-2.4731,-2.391,-2.4081,-2.5292,-2.4089,-2.4089,-2.5292,-2.4902,-2.5322,-2.6427,-2.7571,-2.8106,-2.8203,-2.9418,-2.9921,-2.9921,-2.9973,-2.9715,-2.9352,-2.9798,-2.9415,-2.8659,-2.9104,-2.8861,-2.8223,0.0,0.0,0.0,0.0,0.0,0.0,0.0,0.0,0.0,0.0,0.0,0.0,0.0,0.0,0.0,0.0,0.0,0.0,0.0,0.0,0.0,0.0,0.0,0.0,-2.6123,-2.851,-2.9952,-3.0317,-3.0777,-3.1186,-3.1582,-3.0977,-3.0677,-3.0677,-3.0522,-3.0626,-3.0905,-3.075,-3.0864,-3.106,-3.0139,-2.9394,-2.8618,-2.6347,-2.4276,-2.2366,0.0,0.0,0.0,0.0,0.0,0.0,-1.8664,0.0,0.0,-2.0159,-2.0849,-2.156,0.0,0.0,-2.612,-2.7665,-2.9022,-3.0011,-3.0063,-3.0207,-2.9795,-2.7822,-2.6509,-2.5386,-2.4112,-2.3424,-2.3085,-2.3324,-2.3665,-2.3848,-2.3729,-2.3618,-2.3053,-2.1888,-2.1791,0.0,0.0,0.0,0.0,-2.2625,-2.2664,-2.2871,-2.3282,-2.3868,-2.4617,-2.5554,-2.4988,-2.5381,-2.6867,-2.5943,-2.5814,-2.6417,-2.6088,-2.6545,-2.7624,-2.8009,-2.8447,-2.8959,-2.9703,-2.9642,-2.9104,-2.9415,-2.927,-2.8887,-2.9352,-2.9156,-2.8669,-2.9135,-2.8882,-2.8265,0.0,0.0,0.0,0.0,0.0,0.0,0.0,0.0,0.0,0.0,0.0,0.0,0.0,0.0,0.0,0.0,0.0,0.0,0.0,0.0,0.0,0.0,0.0,0.0,0.0,-2.6652,-2.7954,-2.8375,-2.8891,-2.9361,-2.9784,-2.9273,-2.8991,-2.8991,-2.8757,-2.8827,-2.904,-2.851,-2.8369,-2.84,-2.7345,-2.6444,-2.5499,-2.3618,-2.1871,0.0,0.0,0.0,0.0,0.0,0.0,0.0,0.0,-1.8111,-1.9055,-2.0013,-2.1144,-2.2569,0.0,-2.6451,-2.7934,-2.9611,-3.0739,-3.1295,-3.09,-3.092,-3.0192,-2.7307,-2.5915,-2.4661,-2.2752,-2.1844,-2.1568,-2.2172,-2.2458,-2.268,-2.3109,-2.3165,-2.2784,-2.1759,-2.1719,-2.16,0.0,0.0,0.0,-2.2434,-2.2609,-2.3095,-2.4122,-2.4718,-2.5475,-2.654,-2.6059,-2.6399,-2.7854,-2.6965,-2.6924,-2.7705,-2.7433,-2.7885,-2.8837,-2.8837,-2.9118,-2.9559,-2.9694,-2.9415,-2.8866,-2.9001,-2.898,-2.8887,-2.9187,-2.9125,-2.8918,-2.9476,-2.9272,-2.8652,0.0,0.0,0.0,0.0,0.0,0.0,0.0,0.0,0.0,0.0,0.0,0.0,0.0,0.0,0.0,0.0,0.0,0.0,0.0,0.0,0.0,0.0,0.0,0.0,0.0,-2.3473,-2.42,-2.5062,-2.5721,-2.6249,-2.6703,-2.685,-2.6923,-2.6881,-2.6246,-2.5969,-2.5916,-2.5267,-2.4735,-2.4321,-2.3888,-2.2915,-2.1631,-2.0643,0.0,0.0,0.0,0.0,0.0,0.0,0.0,0.0,0.0,0.0,-2.0124,-2.0905,-2.2079,-2.3681,-2.6411,-2.7854,-2.9034,-3.0954,-3.2075,-3.2514,-3.206,-3.1564,-3.0594,-2.8277,-2.6139,-2.4122,0.0,0.0,-1.9654,-2.0678,-2.0901,-2.1306,-2.2347,-2.2506,-2.2378,0.0,0.0,0.0,0.0,0.0,0.0,-2.249,0.0,-2.3796,-2.536,-2.5539,-2.6263,-2.7699,-2.7079,-2.7155,-2.8226,-2.7196,-2.7434,-2.9025,-2.8976,-2.9299,-2.9994,-2.9994,-2.9984,-2.9942,-2.9518,-2.9311,-2.9239,-2.8825,-2.8897,-2.927,-2.9301,-2.929,-2.9373,-3.0109,-2.9946,-2.9268,0.0,0.0,0.0,0.0,0.0,0.0,0.0,0.0,0.0,0.0,0.0,0.0,0.0,0.0,0.0,0.0,0.0,0.0,0.0,0.0,0.0,0.0,0.0,0.0,0.0,0.0,0.0,0.0,0.0,-2.3903,-2.3994,-2.3271,-2.2941,0.0,-2.2641,-2.2622,-2.283,-2.2429,-2.2382,-2.2439,0.0,-2.1093,-2.0602,0.0,0.0,0.0,0.0,0.0,0.0,0.0,0.0,0.0,0.0,0.0,-2.1257,-2.2785,0.0,-2.6394,-2.8471,-3.0011,-3.1316,-3.2122,-3.2246,-3.2039,-3.165,-3.0153,-2.8177,-2.5671,-2.3369,-2.1149,0.0,0.0,0.0,-1.9638,-2.0639,0.0,-2.237,-2.272,0.0,0.0,0.0,-2.241,-2.1886,-2.2545,0.0,0.0,-2.3995,-2.4947,-2.6172,-2.7662,-2.8568,-2.859,-2.8997,-2.9034,-2.8696,-2.8678,-2.9356,-3.0727,-3.0054,-2.9835,-2.9994,-2.9994,-2.9808,-2.9497,-2.9715,-2.9425,-2.8804,-2.9032,-2.9001,-2.8825,-2.9166,-2.9094,-2.8887,-2.9994,-2.9644,-2.869,0.0,0.0,0.0,0.0,0.0,0.0,0.0,0.0,0.0,0.0,0.0,0.0,0.0,0.0,0.0,0.0,0.0,0.0,0.0,0.0,0.0,0.0,0.0,0.0,0.0,0.0,0.0,0.0,0.0,0.0,0.0,-2.0742,-2.063,-2.0599,-2.0409,-2.0421,-2.0577,0.0,0.0,0.0,0.0,0.0,0.0,0.0,0.0,0.0,0.0,0.0,0.0,0.0,0.0,-1.9861,-2.0999,-2.214,-2.3414,-2.534,0.0,-2.801,-3.0134,-3.1344,-3.2142,-3.2851,-3.2375,-3.1471,-3.056,-2.8716,-2.6436,-2.3513,-2.139,0.0,0.0,0.0,0.0,0.0,0.0,0.0,-2.187,-2.2466,-2.2752,0.0,-2.3006,0.0,-2.2959,-2.3419,-2.4057,0.0,-2.5186,-2.5943,-2.7278,-2.8965,-2.9832,-2.9728,-3.0171,-3.0161,-2.9747,-3.0456,-3.101,-3.1371,-3.0853,-3.0387,-2.9994,-2.9994,-2.9849,-2.9611,-2.9673,-2.9394,-2.8918,-2.898,-2.897,-2.8938,-2.9208,-2.927,-2.931,-3.0033,-2.9756,-2.9169,0.0,0.0,0.0,0.0,0.0,0.0,0.0,0.0,0.0,0.0,0.0,0.0,0.0,0.0,0.0,0.0,0.0,0.0,0.0,0.0,0.0,0.0,0.0,0.0,0.0,0.0,0.0,0.0,0.0,0.0,0.0,0.0,0.0,0.0,0.0,0.0,0.0,0.0,0.0,0.0,0.0,0.0,0.0,0.0,0.0,0.0,0.0,0.0,0.0,0.0,-2.04,-2.1997,-2.3712,-2.497,-2.6215,-2.8042,-2.8676,-2.9281,-3.1595,-3.2163,-3.2395,-3.311,-3.223,-3.0758,-2.9116,-2.7186,-2.4892,-2.1762,0.0,0.0,-1.6707,0.0,-1.6293,-1.7536,0.0,-1.9447,-2.1159,-2.2013,-2.2696,-2.3401,-2.3528,-2.3745,-2.4145,-2.4225,-2.4903,-2.644,-2.6451,-2.7039,-2.8612,-2.991,-3.0726,-3.1053,-3.0878,-3.0888,-3.1063,-3.2021,-3.2157,-3.1381,-3.1247,-3.077,-2.9994,-2.9994,-2.9994,-2.9973,-2.957,-2.9394,-2.9363,-2.8959,-2.9032,-2.9394,-2.9445,-2.9694,-3.0047,-3.0217,-3.0187,-3.0013,0.0,0.0,0.0,0.0,0.0,0.0,0.0,0.0,0.0,0.0,0.0,0.0,0.0,0.0,0.0,0.0,0.0,0.0,0.0,0.0,0.0,0.0,0.0,0.0,0.0,0.0,0.0,0.0,0.0,0.0,0.0,0.0,0.0,0.0,0.0,0.0,0.0,0.0,0.0,0.0,0.0,0.0,0.0,0.0,0.0,0.0,0.0,0.0,0.0,0.0,-2.1608,-2.3985,-2.5173,-2.696,-2.8827,-2.9952,-3.081,-3.1636,-3.283,-3.3151,-3.3099,-3.2892,-3.1526,-2.9725,-2.7772,-2.5067,0.0,0.0,0.0,-1.695,-1.6072,-1.643,0.0,-1.7315,0.0,0.0,0.0,0.0,-2.2418,0.0,0.0,0.0,0.0,0.0,0.0,0.0,0.0,-2.8982,-3.0286,-3.1599,-3.2291,-3.2373,-3.1363,-3.1295,-3.2373,-3.187,-3.1536,-3.1371,-3.0594,-3.0149,-2.9994,-2.9994,-2.9994,-2.9994,-2.9911,-2.988,-2.987,-2.9787,-2.9808,-2.9922,-3.012,-3.0276,-3.0391,-3.0824,-3.0514,-2.9876,0.0,0.0,0.0,0.0,0.0,0.0,0.0,0.0,0.0,0.0,-1.5042,0.0,0.0,0.0,0.0,0.0,0.0,0.0,0.0,0.0,0.0,0.0,0.0,0.0,0.0,0.0,0.0,0.0,0.0,0.0,0.0,0.0,0.0,0.0,0.0,0.0,0.0,0.0,0.0,0.0,0.0,0.0,0.0,0.0,0.0,0.0,0.0,0.0,0.0,0.0,-2.1171,-2.3966,-2.6233,-2.8193,-2.9891,-3.105,-3.1647,-3.2235,-3.343,-3.3731,-3.3627,-3.3182,-3.134,-2.9043,-2.6645,0.0,0.0,0.0,0.0,-1.6475,-1.577,0.0,0.0,0.0,0.0,0.0,0.0,0.0,0.0,0.0,0.0,0.0,0.0,0.0,0.0,0.0,0.0,-2.9453,-3.0704,-3.2018,-3.2566,-3.2318,-3.1954,-3.1964,-3.2318,-3.194,-3.1609,-3.1371,-3.0677,-3.0232,-2.9994,-2.9994,-2.9994,-2.9994,-2.9994,-2.9994,-2.9994,-2.9994,-3.0099,-3.0245,-3.0339,-3.0505,-3.064,-3.0796,-3.0421,-2.9839,0.0,0.0,0.0,0.0,0.0,0.0,0.0,-1.6163,-1.5913,-1.526,-1.4874,-1.5039,-1.6114,-1.6591,0.0,0.0,0.0,0.0,0.0,0.0,0.0,0.0,0.0,0.0,0.0,0.0,0.0,0.0,0.0,0.0,0.0,0.0,0.0,0.0,0.0,0.0,0.0,0.0,0.0,0.0,0.0,0.0,0.0,0.0,0.0,0.0,0.0,0.0,0.0,0.0,-1.9971,-2.2594,-2.554,-2.793,-2.9859,-3.088,-3.154,-3.22,-3.3575,-3.3976,-3.3813,-3.3358,-3.1112,-2.8311,-2.562,-2.302,0.0,0.0,0.0,-1.6499,-1.5709,0.0,0.0,0.0,0.0,0.0,0.0,0.0,0.0,0.0,0.0,0.0,0.0,0.0,0.0,0.0,0.0,-3.0168,-3.1179,-3.2143,-3.2463,-3.1998,-3.2339,-3.2308,-3.1899,-3.174,-3.1578,-3.1226,-3.076,-3.0346,-2.9994,-2.9994,-2.9994,-2.9994,-2.9994,-2.9994,-2.9994,-2.9994,-3.0141,-3.0391,-3.0443,-3.0661,-3.0888,-3.0748,-3.0417,-3.0056,0.0,0.0,0.0,0.0,0.0,0.0,0.0,-1.5048,-1.4835,-1.4223,-1.4513,-1.5016,-1.5612,-1.5655,0.0,0.0,0.0,0.0,0.0,0.0,0.0,0.0,0.0,0.0,0.0,0.0,0.0,0.0,0.0,0.0,0.0,0.0,0.0,0.0,0.0,0.0,0.0,0.0,0.0,0.0,0.0,0.0,0.0,0.0,0.0,0.0,0.0,0.0,0.0,0.0,0.0,-1.9721,-2.1381,-2.4897,-2.84,-2.8665,0.0,0.0,-3.3124,-3.3441,-3.3337,-3.2903,-3.0408,-2.7363,-2.474,0.0,0.0,0.0,-1.7307,-1.6846,-1.5939,-1.5855,0.0,0.0,0.0,0.0,0.0,0.0,0.0,0.0,0.0,0.0,0.0,0.0,0.0,0.0,0.0,-3.2373,-3.2498,-3.2612,-3.2463,-3.1998,-3.2029,-3.1888,-3.1443,-3.1019,-3.0791,-3.0739,-3.0284,-3.0036,-2.9994,-2.9994,-2.9994,-2.9994,-2.9994,-2.9994,-2.9994,-2.9994,-3.0141,-3.0443,-3.0672,-3.0931,-3.1167,-3.1432,-3.1196,-3.0728,0.0,0.0,0.0,0.0,0.0,0.0,0.0,-1.501,-1.4778,-1.4096,-1.4196,-1.4534,-1.5127,-1.5407,0.0,0.0,0.0,0.0,0.0,0.0,0.0,0.0,0.0,0.0,0.0,0.0,0.0,0.0,0.0,0.0,0.0,0.0,0.0,0.0,0.0,0.0,0.0,0.0,0.0,0.0,0.0,0.0,0.0,0.0,0.0,0.0,0.0,0.0,0.0,0.0,0.0,0.0,-1.8108,-2.0409,0.0,0.0,-2.8328,-3.0101,-3.205,-3.2965,-3.3141,-3.2168,-2.9797,-2.6976,-2.4229,0.0,0.0,-1.7694,-1.7063,-1.6603,-1.5771,-1.5471,-1.5361,0.0,0.0,0.0,0.0,0.0,0.0,0.0,0.0,0.0,0.0,0.0,0.0,0.0,0.0,-3.2556,-3.2277,-3.2256,-3.2106,-3.165,-3.164,-3.1557,-3.1381,-3.0915,-3.0822,-3.1091,-3.0346,-2.9994,-2.9994,-2.9994,-2.9994,-2.9994,-2.9994,-3.0099,-3.0245,-3.0245,-3.0495,-3.0909,-3.0972,-3.1178,-3.1476,-3.1578,-3.1313,-3.0908,0.0,0.0,0.0,0.0,0.0,0.0,-1.4857,-1.4857,-1.4644,-1.4151,-1.4032,-1.4226,-1.4821,-1.5329,-1.5969,-1.6872,0.0,0.0,0.0,0.0,0.0,0.0,0.0,0.0,0.0,0.0,0.0,0.0,0.0,0.0,0.0,0.0,0.0,0.0,0.0,0.0,0.0,0.0,0.0,0.0,0.0,0.0,0.0,0.0,0.0,0.0,0.0,0.0,0.0,0.0,0.0,0.0,0.0,0.0,0.0,0.0,-2.587,-2.7805,-3.0094,-3.143,-3.194,-3.0998,-2.8879,-2.6298,0.0,0.0,-1.9177,-1.7622,-1.7028,-1.6533,-1.5736,-1.5328,-1.506,0.0,0.0,0.0,0.0,0.0,0.0,0.0,0.0,0.0,0.0,0.0,0.0,0.0,-3.1118,-3.2328,-3.2008,-3.1729,-3.1495,-3.1184,-3.1174,-3.1112,-3.0967,-3.0646,-3.0646,-3.0967,-3.0315,-2.9994,-2.9994,-2.9994,-2.9994,-2.9994,-3.0099,-3.0245,-3.0391,-3.0505,-3.0765,-3.1178,-3.1178,-3.1373,-3.1618,-3.1618,-3.14,-3.1138,0.0,0.0,0.0,0.0,0.0,0.0,0.0,-1.4235,-1.4235,-1.43,-1.4127,-1.4226,-1.4821,-1.5329,-1.5811,-1.6369,0.0,0.0,0.0,0.0,0.0,0.0,0.0,0.0,0.0,0.0,0.0,-1.5706,-1.6037,0.0,0.0,0.0,0.0,0.0,0.0,0.0,0.0,0.0,0.0,0.0,0.0,0.0,0.0,0.0,0.0,0.0,0.0,0.0,0.0,0.0,0.0,0.0,0.0,0.0,0.0,0.0,-2.2432,-2.5098,-2.7163,-2.8509,-2.9342,-2.9332,-2.7459,-2.5108,0.0,0.0,-1.9213,-1.7779,-1.7358,-1.6925,-1.5974,-1.563,-1.5284,-1.4721,-1.4943,0.0,0.0,0.0,0.0,0.0,0.0,0.0,0.0,0.0,0.0,0.0,-3.0831,0.0,-3.1988,-3.1195,-3.0698,-3.0698,-3.0698,-3.047,-3.0015,-3.0005,-3.0005,-3.0005,-3.0005,-2.9994,-2.9994,-2.9994,-2.9994,-2.9994,-3.0297,-3.0391,-3.0443,-3.0672,-3.0983,-3.1178,-3.1178,-3.1373,-3.1618,-3.1618,-3.1618,-3.1553,0.0,0.0,0.0,0.0,0.0,0.0,0.0,0.0,-1.4284,-1.43,-1.4238,-1.4273,-1.4476,-1.523,-1.5811,-1.5978,0.0,0.0,0.0,0.0,0.0,0.0,0.0,0.0,0.0,0.0,-1.5336,-1.5693,-1.5819,-1.6073,-1.6457,-1.6197,0.0,0.0,0.0,0.0,0.0,0.0,0.0,0.0,0.0,0.0,0.0,0.0,0.0,0.0,0.0,0.0,0.0,0.0,0.0,0.0,0.0,0.0,0.0,0.0,0.0,0.0,-2.3732,-2.4778,-2.52,-2.4893,-2.3874,-2.2523,-2.0978,0.0,-1.8639,-1.7629,-1.7059,-1.6462,-1.5555,-1.5189,-1.5006,-1.5008,-1.53,0.0,0.0,0.0,0.0,0.0,0.0,0.0,0.0,0.0,0.0,0.0,-3.072,-3.1909,-3.1609,-3.1019,-3.0688,-3.0688,-3.0377,-3.0294,-3.047,-3.0149,-3.0149,-3.046,-3.0149,-2.9994,-2.9994,-2.9994,-3.0088,-3.0297,-3.0339,-3.0599,-3.0961,-3.1023,-3.123,-3.1476,-3.1476,-3.132,-3.1171,-3.1498,-3.1214,-3.0679,0.0,0.0,0.0,0.0,0.0,0.0,0.0,0.0,-1.43,-1.43,-1.4284,-1.4268,-1.4268,-1.4975,-1.5553,-1.5784,0.0,0.0,0.0,0.0,0.0,0.0,0.0,0.0,0.0,-1.4544,-1.506,-1.5399,-1.5552,-1.5899,-1.6457,-1.6262,-1.5979,-1.5625,0.0,0.0,0.0,0.0,0.0,0.0,0.0,0.0,-1.3621,0.0,0.0,0.0,0.0,0.0,0.0,0.0,0.0,0.0,0.0,0.0,0.0,0.0,-1.6904,0.0,0.0,-2.1846,-2.2291,-2.2007,-2.1446,0.0,0.0,0.0,0.0,-1.7275,-1.6827,-1.6286,-1.5364,-1.5158,-1.5059,-1.4812,-1.5181,0.0,0.0,0.0,0.0,0.0,0.0,0.0,0.0,0.0,0.0,-2.9106,-3.0568,-3.1412,-3.1133,-3.0677,-3.0429,-3.0429,-3.0149,-3.0129,-3.0419,-3.0139,-3.0139,-3.0419,-3.0129,-2.9994,-2.9994,-3.0088,-3.0245,-3.0391,-3.0599,-3.0909,0.0,-3.1333,-3.1476,-3.1607,-3.1422,-3.116,-3.0908,-3.104,-3.0821,-3.0482,0.0,0.0,0.0,0.0,0.0,0.0,0.0,0.0,0.0,0.0,0.0,-1.4219,-1.4219,-1.461,0.0,0.0,0.0,0.0,0.0,0.0,0.0,0.0,0.0,0.0,0.0,-1.4243,-1.4796,-1.4833,-1.5259,-1.5769,-1.6371,-1.6408,-1.6193,-1.573,-1.5684,0.0,0.0,0.0,0.0,0.0,0.0,0.0,0.0,0.0,0.0,0.0,0.0,0.0,0.0,0.0,0.0,0.0,0.0,0.0,0.0,0.0,0.0,0.0,0.0,0.0,0.0,0.0,0.0,0.0,0.0,0.0,0.0,0.0,0.0,0.0,-1.544,-1.5464,-1.5333,-1.4445,0.0,0.0,0.0,0.0,0.0,0.0,0.0,0.0,0.0,0.0,0.0,-3.0076,-3.0423,-3.0688,-3.0688,-3.0243,-2.9994,-2.9994,-2.9994,-2.9994,-2.9994,-2.9994,-2.9994,-2.9994,-2.9994,-3.0047,-3.0047,-3.0297,-3.0422,-3.0453,-3.095,-3.1187,-3.1133,-3.1443,-3.1586,-3.1487,-3.1061,-3.0854,-3.0745,-3.0351,-3.0439,-3.069,0.0,0.0,0.0,0.0,0.0,0.0,0.0,0.0,0.0,0.0,0.0,-1.4284,-1.4284,-1.4644,0.0,0.0,0.0,0.0,0.0,0.0,0.0,0.0,0.0,0.0,0.0,-1.3518,-1.3822,-1.4286,-1.4802,-1.5425,-1.6175,-1.665,-1.6575,-1.6068,-1.5998,0.0,0.0,0.0,0.0,0.0,0.0,0.0,0.0,0.0,0.0,0.0,-1.3306,-1.3312,0.0,0.0,0.0,0.0,0.0,0.0,0.0,0.0,-1.541,-1.5527,-1.6096,0.0,-1.6661,0.0,0.0,0.0,0.0,0.0,0.0,0.0,0.0,0.0,0.0,0.0,0.0,0.0,0.0,0.0,0.0,0.0,0.0,0.0,0.0,0.0,0.0,0.0,-3.0265,-2.928,-3.0123,-3.0688,-3.0688,-3.0243,-2.9994,-2.9994,-2.9994,-2.9994,-2.9994,-2.9994,-2.9994,-2.9994,-3.0193,-3.0297,-3.0297,-3.0568,-3.0625,-3.0488,-3.0965,-3.0922,-3.0504,-3.1273,-3.1203,-3.057,-3.0799,-3.045,-2.9849,-3.0111,-2.9805,-2.9339,0.0,0.0,0.0,0.0,0.0,0.0,0.0,0.0,0.0,0.0,0.0,0.0,0.0,0.0,0.0,0.0,0.0,0.0,0.0,0.0,0.0,0.0,0.0,0.0,-1.3318,-1.3506,-1.3891,-1.4462,-1.4765,-1.5405,-1.6388,-1.6771,-1.6652,-1.6091,-1.5718,0.0,0.0,0.0,0.0,0.0,-1.3844,0.0,0.0,0.0,0.0,0.0,-1.3152,-1.3104,0.0,-1.3686,-1.3972,-1.4221,0.0,0.0,0.0,0.0,-1.541,-1.541,-1.541,-1.5557,-1.5703,-1.5703,-1.5919,-1.6095,0.0,0.0,0.0,0.0,0.0,0.0,0.0,0.0,0.0,0.0,0.0,0.0,0.0,0.0,0.0,0.0,0.0,0.0,0.0,0.0,-3.0173,-2.9766,-3.015,-3.0367,-3.0367,-3.0129,-2.9994,-2.9994,-2.9994,-2.9994,-2.9994,-2.9994,-2.9994,-2.9994,-3.0297,-3.0286,-3.0087,-3.0498,-3.0496,-3.0216,-3.0575,-3.0541,-3.0264,-3.0985,-3.0865,-3.0242,-3.0482,-3.0133,-2.9489,-2.9532,-2.9347,-2.9142,0.0,0.0,0.0,0.0,0.0,0.0,0.0,0.0,0.0,0.0,0.0,0.0,0.0,0.0,0.0,0.0,0.0,0.0,0.0,0.0,0.0,0.0,0.0,-1.3854,-1.3353,-1.3752,-1.4274,-1.4896,-1.4845,-1.5472,-1.6664,-1.6876,-1.6644,-1.603,-1.521,-1.4743,0.0,0.0,0.0,0.0,-1.3962,0.0,0.0,0.0,0.0,0.0,0.0,0.0,0.0,-1.384,-1.4086,-1.4231,-1.4962,0.0,0.0,0.0,0.0,0.0,-1.541,-1.5811,-1.6194,-1.6026,-1.6095,-1.6183,0.0,0.0,0.0,0.0,0.0,0.0,0.0,0.0,0.0,0.0,0.0,0.0,0.0,0.0,0.0,0.0,0.0,0.0,0.0,-2.8803,-3.016,-3.0553,-3.0212,-2.9994,-2.9994,-2.9994,-2.9994,-2.9994,-2.9922,-2.9891,-2.9943,-3.0015,-3.0015,-2.9943,-3.0296,-3.0158,-2.9726,-3.021,-3.0201,-2.9769,-3.009,-3.0122,-3.0035,-3.057,-3.0472,-3.0002,-3.0078,-2.9805,-2.9325,-2.8957,-2.9066,-2.9361,0.0,0.0,0.0,0.0,0.0,0.0,0.0,0.0,0.0,0.0,0.0,0.0,0.0,0.0,0.0,0.0,0.0,0.0,0.0,0.0,0.0,0.0,-1.3501,-1.3674,-1.3959,-1.3546,-1.386,-1.4896,-1.467,-1.5243,-1.6549,-1.7075,-1.7013,-1.6365,-1.5181,-1.4489,-1.4257,-1.4127,-1.4104,-1.4129,-1.381,0.0,0.0,0.0,0.0,0.0,0.0,0.0,0.0,-1.3101,-1.3545,-1.4133,-1.426,0.0,0.0,0.0,0.0,0.0,-1.541,-1.6127,-1.6631,-1.5723,-1.6074,-1.6533,0.0,0.0,0.0,0.0,0.0,0.0,0.0,0.0,0.0,0.0,0.0,0.0,0.0,0.0,0.0,0.0,0.0,0.0,-2.6221,-2.8509,-3.0025,-3.0098,-3.0036,-2.9994,-2.9994,-2.9994,-2.9994,-2.9994,-2.9611,-2.9517,-2.9733,-3.0161,-3.0161,-2.9743,-3.0272,-3.0228,-2.9799,-3.0084,-3.0008,-2.9572,-3.0035,-2.974,-2.9088,-2.9947,-2.9794,-2.9066,-2.9434,-2.9292,-2.8902,-2.8825,-2.8847,-2.8902,0.0,0.0,0.0,0.0,0.0,0.0,0.0,0.0,0.0,0.0,0.0,0.0,0.0,0.0,0.0,0.0,0.0,0.0,0.0,0.0,0.0,-1.3497,-1.3442,-1.3641,-1.4145,-1.3851,-1.423,-1.5336,-1.5096,-1.5617,-1.6812,-1.6755,-1.6499,-1.6029,-1.5032,-1.4523,-1.4407,-1.4267,-1.421,-1.4176,0.0,0.0,0.0,0.0,0.0,0.0,0.0,0.0,0.0,0.0,-1.3684,-1.4143,-1.4414,0.0,0.0,0.0,0.0,0.0,-1.541,-1.5939,-1.6364,-1.5733,-1.6266,-1.6872,0.0,0.0,0.0,0.0,0.0,0.0,0.0,0.0,0.0,0.0,0.0,0.0,0.0,0.0,0.0,0.0,0.0,0.0,-2.7115,-2.8886,-2.9994,-2.9994,-2.9994,-2.9994,-2.9994,-2.9756,-2.9787,-3.0183,-2.9505,-2.9366,-2.9933,-3.0043,-2.9905,-2.9542,-2.9942,-2.9904,-2.9451,-2.9682,-2.9554,-2.9142,-2.9372,-2.9219,-2.8858,-2.9521,-2.9401,-2.8847,-2.9339,-2.923,-2.8803,-2.8803,-2.8803,-2.8803,0.0,0.0,0.0,0.0,0.0,0.0,0.0,0.0,0.0,0.0,0.0,0.0,0.0,0.0,0.0,0.0,0.0,0.0,0.0,0.0,-1.3564,-1.3497,-1.357,-1.3831,-1.4353,-1.4184,-1.4651,-1.5832,-1.5459,-1.5822,-1.6759,-1.6217,-1.5827,-1.553,-1.4814,-1.45,-1.45,-1.4361,-1.428,-1.4222,0.0,0.0,0.0,0.0,0.0,0.0,0.0,0.0,0.0,0.0,0.0,0.0,0.0,0.0,0.0,-1.541,-1.541,-1.541,-1.541,-1.5762,-1.6058,-1.5652,0.0,0.0,-1.702,0.0,0.0,0.0,0.0,0.0,0.0,0.0,0.0,0.0,0.0,0.0,0.0,0.0,0.0,0.0,0.0,-2.655,-2.8048,-2.9179,-2.9829,-2.9829,-2.9735,-2.9725,-2.9777,-2.9445,-2.9505,-3.0169,-2.9339,-2.9236,-2.9846,-2.9584,-2.9402,-2.9351,-2.9607,-2.9456,-2.904,-2.9219,-2.9153,-2.8803,-2.8803,-2.8803,-2.8825,-2.9208,-2.9142,-2.8836,-2.9219,-2.9132,-2.8803,-2.8803,-2.8803,-2.8803,0.0,0.0,0.0,0.0,0.0,0.0,0.0,0.0,0.0,0.0,0.0,0.0,0.0,0.0,0.0,0.0,0.0,0.0,0.0,0.0,-1.3564,-1.3497,-1.3922,-1.4347,-1.484,-1.4349,-1.4794,-1.616,-1.539,-1.5301,-1.5791,-1.5503,-1.5297,-1.5107,-1.4486,-1.4222,-1.4222,-1.408,-1.4174,-1.435,-1.4104,0.0,0.0,0.0,0.0,0.0,0.0,0.0,0.0,0.0,0.0,0.0,0.0,0.0,-1.541,-1.541,-1.541,-1.541,-1.541,-1.5821,-1.6079,-1.5247,0.0,0.0,-1.8184,0.0,0.0,0.0,0.0,0.0,0.0,0.0,0.0,0.0,0.0,0.0,0.0,0.0,0.0,0.0,-2.6417,-2.6913,-2.8116,-2.8896,-2.9352,-2.9352,-2.8959,-2.8821,-2.9082,-2.905,-2.915,-2.9459,-2.897,-2.8882,-2.9166,-2.8739,-2.8729,-2.9112,-2.9389,-2.9281,-2.8811,-2.8858,-2.8836,-2.8803,-2.8803,-2.8803,-2.8803,-2.8836,-2.8836,-2.8803,-2.8836,-2.8836,-2.8803,-2.8803,-2.8803,-2.8803,0.0,0.0,0.0,0.0,0.0,0.0,0.0,0.0,0.0,0.0,0.0,0.0,0.0,0.0,0.0,0.0,0.0,0.0,0.0,0.0,-1.3514,-1.3442,-1.389,-1.4386,-1.489,-1.458,-1.501,-1.62,-1.5823,-1.5487,-1.5209,-1.5277,-1.5123,-1.4775,-1.446,-1.4326,-1.4326,-1.4267,-1.4314,-1.4384,-1.4114,-1.3868,0.0,0.0,0.0,0.0,0.0,0.0,0.0,0.0,-1.3763,-1.4182,0.0,-1.5078,-1.541,-1.541,-1.541,-1.541,-1.541,-1.5851,-1.6168,-1.5669,0.0,0.0,0.0,0.0,0.0,0.0,0.0,0.0,0.0,0.0,0.0,0.0,0.0,0.0,0.0,0.0,0.0,0.0,-2.6169,-2.6441,-2.8277,-2.8706,-2.8876,-2.8876,-2.8711,-2.8717,-2.8987,-2.8715,-2.888,-2.9621,-2.8919,-2.8617,-2.8922,-2.8726,-2.8411,-2.8009,-2.8699,-2.8978,-2.8803,-2.8803,-2.8803,-2.8803,-2.8803,-2.8803,-2.8803,-2.8803,-2.8803,-2.8803,-2.8803,-2.8803,-2.8803,-2.8803,-2.8803,-2.8803,0.0,0.0,0.0,0.0,0.0,0.0,0.0,0.0,0.0,0.0,0.0,0.0,0.0,0.0,0.0,0.0,0.0,0.0,0.0,-1.3531,-1.3459,-1.334,-1.3831,-1.4337,-1.4884,-1.4695,-1.5139,-1.62,-1.5913,-1.5487,-1.4915,-1.5008,-1.4903,-1.4604,-1.4454,-1.4396,-1.4396,-1.4396,-1.4396,-1.4373,-1.4197,-1.3975,0.0,0.0,0.0,0.0,0.0,0.0,0.0,0.0,0.0,0.0,0.0,0.0,0.0,0.0,-1.5449,-1.5478,-1.5478,-1.5822,-1.6138,0.0,0.0,0.0,0.0,0.0,0.0,0.0,0.0,0.0,0.0,0.0,0.0,0.0,0.0,0.0,0.0,0.0,0.0,-2.68,-2.6381,-2.6586,-2.7945,-2.8323,-2.8499,-2.8499,-2.8364,-2.8439,-2.8792,-2.8534,-2.8695,-2.9461,-2.8683,-2.8364,-2.856,-2.8386,-2.7971,-2.7315,-2.7981,-2.8344,-2.8344,-2.8344,-2.8344,-2.8355,-2.8462,-2.844,-2.8355,-2.8473,-2.844,-2.8355,-2.8473,-2.8528,-2.8549,-2.8749,-2.8803,-2.8803,0.0,0.0,0.0,0.0,0.0,0.0,0.0,0.0,0.0,0.0,0.0,0.0,0.0,0.0,0.0,0.0,0.0,0.0,-1.3514,-1.3497,-1.3408,-1.3215,-1.3778,-1.4337,-1.4884,-1.4707,-1.5118,-1.6188,-1.5592,-1.5165,-1.488,-1.4685,-1.4604,-1.4604,-1.4454,-1.4396,-1.4396,-1.4396,-1.4396,-1.4396,-1.4407,-1.4326,-1.4163,0.0,0.0,0.0,0.0,0.0,0.0,0.0,-1.4661,0.0,0.0,0.0,0.0,0.0,-1.5546,-1.5701,-1.5701,-1.5798,0.0,0.0,0.0,0.0,0.0,0.0,0.0,0.0,0.0,0.0,0.0,0.0,0.0,0.0,0.0,0.0,0.0,0.0,-2.5891,-2.6902,-2.732,-2.7411,-2.7045,-2.7778,-2.8265,-2.8265,-2.7835,-2.7809,-2.8337,-2.8384,-2.8524,-2.8792,-2.8287,-2.7991,-2.798,-2.7555,-2.7304,-2.7304,-2.7304,-2.7304,-2.7315,-2.7315,-2.7315,-2.7337,-2.7773,-2.7718,-2.7348,-2.7794,-2.7707,-2.7359,-2.7805,-2.7991,-2.8056,-2.8617,-2.8792,-2.8803,0.0,0.0,0.0,0.0,0.0,0.0,0.0,0.0,0.0,0.0,0.0,0.0,0.0,0.0,0.0,0.0,0.0,0.0,-1.3581,-1.3531,-1.3459,-1.334,-1.3831,-1.4337,-1.4884,-1.5439,-1.5535,-1.5143,-1.5058,-1.4949,-1.4834,-1.4673,-1.4557,-1.4454,-1.443,-1.4396,-1.4396,-1.4396,-1.4396,-1.4406,-1.454,-1.4534,-1.4433,0.0,0.0,0.0,0.0,0.0,0.0,0.0,0.0,0.0,0.0,0.0,0.0,-1.573,-1.573,-1.5711,-1.5827,0.0,0.0,0.0,0.0,0.0,0.0,0.0,0.0,0.0,0.0,0.0,0.0,0.0,0.0,0.0,0.0,0.0,0.0,-2.5258,-2.6123,-2.6675,-2.6461,-2.632,-2.6423,-2.6846,-2.7105,-2.7105,-2.6978,-2.704,-2.7414,-2.7414,-2.7538,-2.7741,-2.7599,-2.7326,-2.7009,-2.7217,-2.6977,-2.6321,-2.6671,-2.6998,-2.7315,-2.7315,-2.7315,-2.7315,-2.7468,-2.7446,-2.7326,-2.7468,-2.7446,-2.7359,-2.7805,-2.7991,-2.8012,-2.82,-2.8473,-2.8705,0.0,0.0,0.0,0.0,0.0,0.0,0.0,0.0,0.0,0.0,0.0,0.0,0.0,0.0,0.0,0.0,0.0,0.0,0.0,0.0,-1.3459,-1.3323,-1.3581,-1.4068,-1.4736,-1.5453,-1.5548,-1.4945,-1.5026,-1.4971,-1.4834,-1.4873,-1.4821,-1.475,-1.4899,-1.4843,-1.4668,-1.4668,-1.4668,-1.469,-1.4801,-1.4928,-1.5056,0.0,0.0,0.0,0.0,0.0,0.0,0.0,0.0,0.0,0.0,0.0,0.0,-1.5885,-1.5875,-1.5835,-1.5739,0.0,0.0,0.0,0.0,0.0,0.0,0.0,0.0,0.0,0.0,0.0,0.0,0.0,0.0,0.0,0.0,0.0,-2.3664,-2.5099,-2.6113,-2.5859,-2.6003,-2.6017,-2.5739,-2.6235,-2.6626,-2.676,-2.676,-2.6849,-2.7116,-2.7116,-2.716,-2.7315,-2.714,-2.6911,-2.6584,-2.6715,-2.6463,-2.5906,-2.6201,-2.6485,-2.6747,-2.6747,-2.6747,-2.6747,-2.6747,-2.6856,-2.7031,-2.6835,-2.6747,-2.6802,-2.7249,-2.7435,-2.7456,-2.7642,-2.8058,-2.8386,0.0,0.0,0.0,0.0,0.0,0.0,0.0,0.0,0.0,0.0,0.0,0.0,0.0,0.0,0.0,0.0,0.0,0.0,0.0,0.0,-1.3425,-1.325,-1.3315,-1.3728,-1.4504,-1.505,-1.5312,-1.5244,-1.5244,-1.5119,-1.488,-1.5118,-1.522,-1.5218,-1.5578,-1.5495,-1.5105,-1.5159,-1.517,-1.5181,-1.52,-1.5448,-1.5825,-1.5613,0.0,0.0,0.0,0.0,0.0,0.0,0.0,0.0,0.0,0.0,-1.5914,-1.5943,-1.6007,-1.5971,0.0,0.0,0.0,0.0,0.0,0.0,0.0,0.0,0.0,0.0,0.0,0.0,0.0,0.0,0.0,0.0,0.0,-2.3706,-2.3103,-2.4935,-2.5965,-2.4906,-2.5924,-2.6262,-2.5158,-2.5965,-2.6631,-2.6875,-2.6919,-2.6996,-2.714,-2.7184,-2.7184,-2.7184,-2.678,-2.6519,-2.6519,-2.6125,-2.5895,-2.5895,-2.5895,-2.5895,-2.5895,-2.5895,-2.5895,-2.5895,-2.5895,-2.6147,-2.6486,-2.6092,-2.5895,-2.595,-2.6441,-2.6584,-2.6639,-2.7097,-2.7511,-2.7914,0.0,0.0,0.0,0.0,0.0,0.0,0.0,0.0,0.0,0.0,0.0,0.0,0.0,0.0,0.0,0.0,0.0,0.0,0.0,0.0,-1.3493,-1.3442,-1.4139,-1.4594,-1.4735,-1.5249,-1.5334,-1.4914,-1.4914,-1.4811,-1.4662,-1.4727,-1.4689,-1.4606,-1.5039,-1.5178,-1.5127,-1.5495,-1.5647,-1.5665,-1.5931,-1.6084,-1.6224,-1.6542,-1.6455,0.0,0.0,0.0,0.0,0.0,0.0,0.0,-1.6459,-1.6249,-1.6124,-1.6381,-1.6028,0.0,0.0,0.0,0.0,0.0,0.0,0.0,0.0,0.0,0.0,0.0,0.0,0.0,0.0,0.0,0.0,0.0,-2.4217,-2.469,-2.4096,-2.5457,-2.6254,-2.5477,-2.6116,-2.6325,-2.5541,-2.5819,-2.6085,-2.6127,-2.6127,-2.617,-2.6201,-2.6201,-2.6201,-2.6201,-2.6103,-2.6059,-2.6059,-2.595,-2.5895,-2.5895,-2.5895,-2.5895,-2.5895,-2.5895,-2.5895,-2.5895,-2.5895,-2.5961,-2.6048,-2.595,-2.5895,-2.595,-2.6441,-2.6584,-2.6595,-2.6693,-2.7075,-2.737,0.0,0.0,0.0,0.0,0.0,0.0,0.0,0.0,0.0,0.0,0.0,0.0,0.0,0.0,0.0,0.0,0.0,0.0,0.0,0.0,0.0,-1.3772,-1.4523,-1.4898,-1.4808,-1.5077,-1.5051,-1.4707,-1.4627,0.0,0.0,0.0,0.0,-1.5105,0.0,-1.6011,-1.5804,-1.6029,-1.6138,-1.616,-1.6331,-1.6542,-1.6819,-1.7047,-1.6993,-1.6819,-1.7163,0.0,0.0,0.0,0.0,0.0,0.0,0.0,-1.64,-1.6637,-1.63,-1.5894,0.0,0.0,0.0,0.0,0.0,0.0,0.0,0.0,0.0,0.0,0.0,0.0,0.0,0.0,0.0,0.0,-2.4381,-2.4779,-2.3964,-2.508,-2.5806,-2.5465,-2.5701,-2.5871,-2.576,-2.5728,-2.5822,-2.5895,-2.5895,-2.5895,-2.5895,-2.5895,-2.5895,-2.5895,-2.5895,-2.5895,-2.5895,-2.5895,-2.5895,-2.5895,-2.5895,-2.5895,-2.5895,-2.5895,-2.5895,-2.5895,-2.5895,-2.5895,-2.5895,-2.5895,-2.5895,-2.5928,-2.6179,-2.6278,-2.6278,-2.6278,-2.6583,-2.6868,0.0,0.0,0.0,0.0,0.0,0.0,0.0,0.0,0.0,0.0,0.0,0.0,0.0,0.0,0.0,0.0,0.0,0.0,0.0,0.0,0.0,-1.4368,-1.4817,-1.5016,-1.495,-1.4913,-1.4811,-1.4696,0.0,0.0,0.0,0.0,0.0,-1.5854,0.0,-1.6918,-1.6498,-1.6585,-1.6645,-1.6645,-1.6645,-1.6907,-1.7306,-1.7306,-1.7306,-1.7306,-1.7306,-1.7183,-1.7078,-1.7239,0.0,0.0,0.0,0.0,-1.6666,-1.6807,-1.6595,-1.6245,0.0,0.0,0.0,0.0,0.0,0.0,0.0,0.0,0.0,0.0,0.0,0.0,0.0,0.0,0.0,0.0,-2.437,-2.4637,-2.3833,-2.4627,-2.5285,-2.5285,-2.5285,-2.5432,-2.5734,-2.5684,-2.5695,-2.5786,-2.5852,-2.5895,-2.5895,-2.5819,-2.5775,-2.5775,-2.5699,-2.5699,-2.5775,-2.5775,-2.5819,-2.5895,-2.5895,-2.5895,-2.5895,-2.5895,-2.5895,-2.5895,-2.5895,-2.5895,-2.5895,-2.5895,-2.5895,-2.5895,-2.5895,-2.5895,-2.5895,-2.5895,-2.6157,-2.6464,0.0,0.0,0.0,0.0,0.0,0.0,0.0,0.0,0.0,0.0,0.0,0.0,0.0,0.0,0.0,0.0,0.0,0.0,-1.4406,0.0,0.0,-1.5475,-1.5406,-1.5387,-1.5494,-1.5311,-1.5176,-1.504,0.0,0.0,0.0,0.0,0.0,-1.5833,0.0,0.0,-1.652,-1.6994,-1.7197,-1.7197,-1.7197,-1.724,-1.7306,-1.7306,-1.7306,-1.7306,-1.7306,-1.7278,-1.7267,-1.7306,-1.7145,0.0,0.0,0.0,-1.6807,-1.6927,-1.6565,0.0,0.0,0.0,0.0,0.0,0.0,0.0,0.0,0.0,0.0,0.0,0.0,0.0,0.0,0.0,0.0,0.0,-2.4946,-2.4893,-2.4935,-2.5295,-2.5559,-2.5559,-2.5686,-2.569,-2.5306,-2.5655,-2.5679,-2.5306,-2.5666,-2.5895,-2.5895,-2.5491,-2.5273,-2.5273,-2.488,-2.4869,-2.5303,-2.5273,-2.548,-2.5895,-2.5895,-2.5895,-2.5895,-2.5895,-2.5895,-2.5895,-2.5895,-2.5895,-2.5895,-2.5895,-2.5895,-2.5895,-2.5895,-2.5895,-2.5895,-2.5895,-2.5939,-2.5994,0.0,0.0,0.0,0.0,0.0,0.0,0.0,0.0,0.0,0.0,0.0,0.0,0.0,0.0,0.0,-1.4742,-1.4634,-1.4653,-1.4929,-1.5293,-1.5555,-1.568,-1.5798,-1.5834,-1.5822,-1.5603,-1.5311,0.0,0.0,0.0,0.0,-1.5559,-1.5887,0.0,0.0,0.0,0.0,0.0,-1.7306,-1.7306,-1.7306,-1.7131,-1.6885,-1.7197,-1.7092,-1.6885,-1.7197,-1.7306,-1.7306,-1.7306,-1.7239,-1.7172,-1.7172,0.0,0.0,0.0,-1.6864,0.0,0.0,0.0,0.0,0.0,0.0,0.0,0.0,0.0,0.0,0.0,0.0,0.0,0.0,0.0,0.0,0.0,-2.5102,-2.4879,-2.4962,-2.5191,-2.5326,-2.518,-2.5367,-2.5415,-2.5237,-2.5131,-2.5022,-2.4803,-2.4989,-2.5109,-2.5109,-2.4912,-2.4792,-2.4792,-2.4596,-2.4585,-2.4792,-2.4792,-2.4891,-2.5109,-2.5644,-2.5622,-2.512,-2.5371,-2.5644,-2.5895,-2.5895,-2.5895,-2.5895,-2.5895,-2.5895,-2.5895,-2.5895,-2.5895,-2.5895,-2.5895,-2.5895,-2.5895,0.0,0.0,0.0,0.0,0.0,0.0,0.0,0.0,0.0,0.0,0.0,0.0,0.0,0.0,0.0,0.0,-1.533,-1.5299,-1.5325,-1.5706,-1.5927,-1.5906,-1.6086,-1.6144,-1.6044,-1.5714,0.0,0.0,0.0,0.0,-1.5939,-1.5982,-1.6498,0.0,-1.7715,0.0,0.0,0.0,0.0,0.0,0.0,-1.6929,-1.6754,-1.7164,-1.7114,-1.6961,-1.7464,-1.7591,-1.7492,-1.7492,-1.7415,-1.7306,-1.7306,-1.72,0.0,0.0,0.0,0.0,0.0,0.0,0.0,0.0,0.0,0.0,0.0,0.0,0.0,0.0,0.0,0.0,0.0,0.0,0.0,0.0,-2.4932,-2.4643,-2.4735,-2.4908,-2.4948,-2.4735,-2.4908,-2.4986,-2.4814,-2.4618,-2.4432,-2.4301,-2.441,-2.4486,-2.4486,-2.4366,-2.4301,-2.4301,-2.4181,-2.417,-2.4301,-2.4421,-2.4486,-2.4497,-2.5207,-2.5175,-2.4497,-2.4847,-2.5262,-2.571,-2.571,-2.5786,-2.5895,-2.5895,-2.5895,-2.5895,-2.5895,-2.5895,-2.5895,-2.5895,-2.5895,-2.5895,0.0,0.0,0.0,0.0,0.0,0.0,0.0,0.0,0.0,0.0,0.0,0.0,-1.5382,-1.5474,-1.5443,-1.5311,-1.5248,-1.535,-1.5638,-1.63,-1.6582,-1.645,-1.6306,0.0,-1.62,-1.5626,0.0,0.0,0.0,0.0,-1.6356,-1.6431,-1.7016,-1.7944,-1.7508,-1.735,-1.7339,0.0,0.0,0.0,0.0,0.0,0.0,0.0,-1.7551,0.0,0.0,-1.8338,-1.7966,-1.7966,-1.766,-1.7306,-1.7306,-1.7306,-1.7306,0.0,0.0,0.0,0.0,0.0,0.0,0.0,0.0,0.0,0.0,0.0,0.0,0.0,0.0,0.0,0.0,0.0,0.0,0.0,-2.4321,-2.423,-2.448,-2.453,-2.4519,-2.4519,-2.453,-2.4334,-2.3814,-2.4224,-2.429,-2.3771,-2.4213,-2.4486,-2.4486,-2.4039,-2.3727,-2.3727,-2.3318,-2.3296,-2.3727,-2.4246,-2.4486,-2.4486,-2.4541,-2.4541,-2.4486,-2.4519,-2.477,-2.5248,-2.5248,-2.5469,-2.5895,-2.5895,-2.5895,-2.5895,-2.5895,-2.5895,-2.5895,-2.5895,-2.5895,-2.5895,0.0,0.0,0.0,0.0,0.0,0.0,0.0,0.0,0.0,0.0,0.0,0.0,0.0,-1.6309,-1.6477,-1.6517,-1.6416,-1.6384,-1.6472,-1.6604,-1.6654,-1.65,-1.6436,-1.6392,-1.6392,-1.5979,0.0,0.0,0.0,-1.5499,-1.6026,-1.6359,-1.6885,-1.7569,-1.7682,-1.7748,-1.7726,-1.7437,0.0,0.0,0.0,0.0,0.0,0.0,0.0,0.0,0.0,0.0,0.0,-1.8514,-1.8373,-1.8159,-1.7835,-1.7748,-1.7682,-1.7394,-1.7306,0.0,0.0,0.0,0.0,0.0,0.0,0.0,0.0,0.0,0.0,0.0,0.0,0.0,0.0,0.0,0.0,0.0,-2.3656,-2.352,-2.3913,-2.4006,-2.4006,-2.4006,-2.4006,-2.3891,-2.3716,-2.3613,-2.346,-2.3274,-2.3154,-2.3099,-2.3099,-2.263,-2.2357,-2.2357,-2.2182,-2.2335,-2.2815,-2.3296,-2.3383,-2.311,-2.4039,-2.3995,-2.3121,-2.3722,-2.4093,-2.4246,-2.4246,-2.4869,-2.5895,-2.5895,-2.5895,-2.5895,-2.5895,-2.5895,-2.5895,-2.5895,-2.5895,-2.5979,0.0,0.0,0.0,0.0,0.0,0.0,0.0,0.0,0.0,0.0,0.0,0.0,0.0,0.0,-1.7073,-1.7136,-1.7044,-1.6939,-1.6897,-1.6825,-1.6727,-1.6629,-1.6762,-1.6829,-1.6829,-1.6456,0.0,0.0,0.0,0.0,0.0,-1.6583,-1.6949,-1.7317,-1.7617,-1.7857,0.0,0.0,0.0,-1.7955,0.0,0.0,-1.7428,0.0,0.0,0.0,0.0,0.0,0.0,0.0,-1.8977,-1.8728,-1.8369,-1.8133,-1.7944,-1.7617,-1.7426,0.0,0.0,0.0,0.0,0.0,0.0,0.0,0.0,0.0,0.0,0.0,0.0,0.0,0.0,0.0,0.0,0.0,-2.2739,-2.2641,-2.2968,-2.3012,-2.3012,-2.3012,-2.3012,-2.3012,-2.3012,-2.2717,-2.2531,-2.2531,-2.2248,-2.2073,-2.2073,-2.1767,-2.1592,-2.1592,-2.1592,-2.1745,-2.2073,-2.2368,-2.2368,-2.2084,-2.322,-2.3252,-2.2346,-2.3132,-2.3542,-2.3694,-2.3694,-2.4465,-2.5655,-2.5655,-2.5753,-2.5937,-2.6218,-2.6343,-2.6343,-2.6343,-2.6343,-2.6426,0.0,0.0,0.0,0.0,0.0,0.0,0.0,0.0,0.0,-1.6323,0.0,0.0,0.0,0.0,0.0,-1.7023,-1.6939,-1.6897,-1.6897,-1.691,-1.6922,-1.6922,-1.7317,-1.753,-1.753,-1.7055,0.0,0.0,0.0,0.0,0.0,0.0,-1.7256,-1.7306,-1.7317,-1.7591,-1.8032,0.0,-1.8403,-1.8046,0.0,-1.7805,-1.7555,0.0,0.0,0.0,-2.0705,-2.0756,0.0,-1.9893,0.0,0.0,0.0,0.0,-1.805,0.0,0.0,0.0,0.0,0.0,0.0,0.0,0.0,0.0,0.0,0.0,0.0,0.0,0.0,0.0,0.0,0.0,0.0,0.0,-2.1516,-2.1549,-2.1559,-2.1581,-2.1592,-2.1592,-2.1592,-2.1592,-2.1592,-2.1592,-2.1581,-2.157,-2.1549,-2.1549,-2.1549,-2.1538,-2.1527,-2.1527,-2.1527,-2.1538,-2.1549,-2.1559,-2.157,-2.157,-2.2062,-2.2255,-2.2291,-2.2761,-2.3241,-2.3651,-2.3662,-2.4246,-2.5212,-2.5234,-2.55,-2.6021,-2.6899,-2.7226,-2.7185,-2.7226,-2.7226,-2.7226,0.0,0.0,0.0,0.0,0.0,0.0,0.0,0.0,-1.665,0.0,0.0,0.0,-1.7186,-1.7199,-1.7199,-1.7157,-1.7136,-1.7073,-1.6981,-1.739,-1.7587,-1.7491,-1.7915,-1.8162,-1.8162,-1.7635,0.0,0.0,0.0,0.0,0.0,0.0,0.0,0.0,-1.7985,-1.8145,-1.7999,-1.777,0.0,0.0,-1.8151,-1.8635,0.0,0.0,0.0,0.0,0.0,-2.2106,-2.1613,0.0,-2.099,-2.0956,0.0,0.0,0.0,0.0,0.0,0.0,-1.7394,0.0,0.0,0.0,0.0,0.0,0.0,0.0,0.0,0.0,0.0,0.0,0.0,0.0,0.0,0.0,-1.9834,-2.0664,-2.1047,-2.1397,-2.1592,-2.1592,-2.1592,-2.1592,-2.1592,-2.1592,-2.1439,0.0,-2.074,-2.0511,-2.0511,-2.0183,-2.0019,-2.0019,-2.0019,-2.0151,-2.0511,-2.0893,-2.1091,-2.1102,-2.1559,-2.1603,-2.1321,-2.2127,-2.2539,-2.2691,-2.3056,-2.3889,-2.505,-2.5752,-2.6392,-2.694,-2.777,-2.773,-2.7255,-2.7839,-2.8079,-2.8159,0.0,0.0,0.0,0.0,0.0,0.0,0.0,0.0,-1.7173,0.0,0.0,0.0,-1.7552,-1.7774,-1.7904,-1.7904,-1.7904,-1.7874,-1.7809,-1.812,-1.828,-1.819,-1.8665,-1.8902,-1.8902,-1.847,0.0,0.0,0.0,0.0,0.0,0.0,0.0,0.0,0.0,0.0,0.0,0.0,0.0,0.0,-1.9208,0.0,0.0,-2.1488,-2.1864,0.0,0.0,0.0,-2.2429,-2.1684,-2.1484,0.0,0.0,0.0,0.0,0.0,0.0,0.0,0.0,0.0,0.0,0.0,0.0,0.0,-1.6345,-1.6203,-1.6073,0.0,0.0,0.0,0.0,0.0,0.0,0.0,-1.7937,-1.8908,-1.9855,-2.0238,-2.038,-2.038,-2.038,-2.038,-2.038,-2.038,-2.0293,-2.0008,-1.9692,-1.9507,-1.9507,-1.9266,-1.9113,-1.9113,-1.9113,-1.9322,-1.9802,-2.0118,-2.0358,-2.0566,-2.1091,-2.1168,-2.0927,-2.1876,-2.2313,-2.2346,-2.2805,-2.3925,-2.5456,-2.6042,-2.6566,-2.7109,-2.8161,-2.8285,-2.7968,-2.8657,-2.8939,-2.9018,0.0,0.0,0.0,0.0,0.0,0.0,0.0,0.0,0.0,0.0,-1.763,-1.7525,-1.8127,-1.861,-1.8911,-1.8911,-1.8911,-1.8911,-1.8911,-1.8963,-1.9002,-1.9002,-1.9448,-1.9686,-1.9686,-1.9429,0.0,0.0,0.0,0.0,0.0,0.0,0.0,0.0,0.0,0.0,0.0,0.0,0.0,-1.9008,-2.0567,-2.0706,0.0,0.0,-2.2752,-2.2472,-2.2967,-2.3085,-2.2857,-2.1889,-2.1407,0.0,0.0,0.0,0.0,0.0,-1.9947,0.0,0.0,0.0,0.0,0.0,0.0,0.0,-1.6306,-1.6033,-1.5924,-1.5403,0.0,0.0,0.0,0.0,0.0,0.0,0.0,-1.6929,-1.8367,-1.8578,-1.8632,-1.8676,-1.8687,-1.8687,-1.8687,-1.8687,-1.8665,-1.8611,-1.8611,-1.8611,-1.8611,-1.8611,-1.8611,-1.8611,-1.8611,-1.8818,-1.9224,-1.9364,-1.9605,-2.0042,-2.0555,-2.0851,-2.094,-2.184,-2.2292,-2.2386,-2.2904,-2.4267,-2.6057,-2.6118,-2.6432,-2.6986,-2.8338,-2.8825,-2.8863,-2.9504,-2.9769,-2.9819,-1.7447,0.0,0.0,0.0,0.0,0.0,0.0,0.0,0.0,-1.814,-1.7996,-1.8127,-1.8689,-1.8845,-1.8911,-1.8911,-1.8911,-1.8911,-1.8911,-1.9355,-1.963,-1.963,-2.0056,-2.0318,-2.0318,-2.0104,0.0,0.0,0.0,0.0,0.0,0.0,0.0,0.0,0.0,0.0,0.0,0.0,0.0,-2.0106,-2.0453,0.0,-2.1733,-2.2699,-2.3348,-2.3751,-2.3855,-2.3576,-2.3035,-2.2248,-2.1957,-2.189,0.0,0.0,0.0,0.0,0.0,0.0,0.0,0.0,0.0,0.0,0.0,0.0,-1.7379,-1.7473,-1.7479,0.0,0.0,0.0,0.0,0.0,0.0,0.0,0.0,-1.6449,-1.7426,-1.789,-1.8283,-1.8643,-1.8687,-1.8687,-1.8687,-1.8687,-1.8534,-1.8163,-1.8141,-1.8141,-1.8141,-1.8141,-1.8141,-1.8141,-1.8141,-1.8185,-1.8283,-1.9037,-1.9431,-1.9529,-2.002,-2.0532,-2.1083,-2.1629,-2.219,-2.2756,-2.3719,-2.4687,-2.5642,-2.6136,-2.6907,-2.7852,-2.8828,-2.905,-2.89,-2.9736,-3.0321,-3.0748,-1.744,0.0,0.0,0.0,0.0,0.0,0.0,0.0,-1.861,-1.8911,-1.9222,-1.9392,-1.9355,-1.9603,-1.981,-1.981,-1.981,-1.981,-1.981,-2.0085,-2.0255,-2.0255,-2.048,-2.0612,-2.0612,-2.0423,0.0,0.0,0.0,0.0,0.0,0.0,0.0,0.0,0.0,0.0,0.0,0.0,-2.0291,-2.058,-2.1055,0.0,-2.2665,-2.3352,-2.3822,-2.4083,-2.4083,-2.3704,-2.3143,-2.2773,-2.2736,0.0,0.0,-2.2083,-2.2197,0.0,-2.1304,-2.0699,0.0,0.0,0.0,-1.9017,0.0,0.0,0.0,-1.7562,-1.7417,-1.6707,-1.6551,0.0,0.0,0.0,0.0,0.0,-1.605,-1.6011,-1.7019,-1.7,-1.6978,-1.7245,-1.7239,-1.7239,-1.7239,-1.7239,-1.7267,-1.7267,-1.7267,-1.7376,-1.7628,-1.7639,-1.7639,-1.7639,-1.7639,-1.7759,-1.801,-1.8698,-1.9179,-1.943,-1.9878,-2.0453,-2.1115,-2.1596,-2.2313,-2.3307,-2.4066,-2.4981,-2.5966,-2.6267,-2.6914,-2.7809,-2.856,-2.8727,-2.87,-2.9444,-3.0072,-3.0555,-1.7412,0.0,0.0,0.0,0.0,0.0,0.0,0.0,-1.8924,-1.9852,-2.0308,-2.0386,-2.0009,-2.0412,-2.0791,-2.1001,-2.0843,-2.0843,-2.1145,-2.0895,-2.0751,-2.0844,-2.0764,-2.0699,-2.0699,-2.0587,-2.0537,0.0,0.0,0.0,0.0,0.0,0.0,0.0,0.0,0.0,0.0,0.0,0.0,-2.119,0.0,-2.2451,-2.2997,-2.3806,-2.4083,-2.407,-2.3981,-2.3678,-2.3367,-2.3221,-2.3415,-2.3576,-2.2822,-2.2891,0.0,0.0,0.0,0.0,0.0,0.0,0.0,0.0,0.0,-1.9081,0.0,0.0,0.0,-1.6852,-1.6672,0.0,0.0,0.0,0.0,0.0,0.0,0.0,0.0,-1.6391,0.0,-1.614,-1.5946,-1.5844,-1.5993,-1.6004,-1.612,-1.6465,-1.6628,-1.6869,-1.7284,-1.7306,-1.7306,-1.7306,-1.7306,-1.7464,-1.7857,-1.8552,-1.9086,-1.9463,-2.0176,-2.0848,-2.1514,-2.1868,-2.2677,-2.3814,-2.4429,-2.5259,-2.6295,-2.651,-2.6973,-2.7542,-2.8033,-2.8281,-2.8472,-2.897,-2.947,-2.9957,-1.7509,-1.7419,0.0,0.0,0.0,0.0,0.0,0.0,-2.0463,-2.0594,-2.0203,-2.0074,0.0,0.0,0.0,0.0,0.0,0.0,-2.2831,0.0,-2.0909,-2.1394,-2.0949,-2.0699,-2.0699,-2.0687,-2.0687,-2.0687,0.0,0.0,0.0,0.0,0.0,0.0,-2.146,0.0,0.0,0.0,-2.1942,0.0,-2.2433,-2.2298,0.0,-2.3616,-2.4083,-2.4018,-2.3483,-2.3587,-2.3913,0.0,-2.3587,-2.409,0.0,-2.3537,-2.2761,0.0,0.0,0.0,0.0,0.0,0.0,0.0,-2.0364,0.0,0.0,0.0,-1.898,-1.8533,0.0,0.0,0.0,0.0,0.0,0.0,0.0,0.0,-1.7145,-1.6638,-1.6546,-1.7388,-1.6482,-1.6026,-1.6634,-1.6693,-1.6625,-1.6514,-1.7054,-1.7368,-1.7306,-1.7306,-1.7306,-1.7306,-1.7306,-1.7339,-1.7383,-1.886,-1.9602,-1.967,-2.1176,-2.2224,-2.2864,-2.2927,-2.3359,-2.4123,-2.5185,-2.5721,-2.594,-2.694,-2.7423,-2.7503,-2.7568,-2.7941,-2.842,-2.8499,-2.8869,-2.9444,-1.7645,-1.7494,0.0,0.0,0.0,0.0,0.0,0.0,0.0,-2.0751,-2.1053,0.0,0.0,0.0,0.0,0.0,0.0,-2.1838,0.0,0.0,-2.0936,0.0,0.0,0.0,-2.1146,-2.1498,-2.1695,-2.1695,-2.1904,0.0,0.0,0.0,0.0,0.0,-2.241,0.0,-2.2548,0.0,0.0,0.0,0.0,0.0,0.0,-2.3863,-2.4083,-2.4086,-2.3796,-2.3903,-2.4044,0.0,-2.4246,0.0,0.0,0.0,0.0,0.0,0.0,0.0,0.0,0.0,0.0,0.0,0.0,0.0,-2.0151,0.0,-1.9063,0.0,0.0,0.0,0.0,0.0,0.0,0.0,-1.7565,0.0,0.0,0.0,-1.6455,0.0,0.0,0.0,-1.5933,-1.5933,-1.5857,-1.5694,-1.6548,-1.7015,-1.6841,-1.7114,-1.7306,-1.7306,-1.7306,-1.7306,-1.7306,-1.8913,-1.9685,-1.9726,-2.1324,-2.2439,-2.3088,-2.3088,-2.365,-2.4635,-2.5118,-2.5707,-2.6347,-2.6831,-2.7236,-2.749,-2.749,-2.7633,-2.7889,-2.7889,-2.8477,-2.9314,-1.8225,0.0,0.0,0.0,0.0,0.0,0.0,0.0,0.0,0.0,0.0,0.0,-2.2375,-2.2871,0.0,0.0,-2.3041,-2.2792,0.0,0.0,-2.1341,0.0,0.0,0.0,0.0,0.0,-2.2388,-2.2388,0.0,0.0,0.0,0.0,0.0,0.0,0.0,-2.3389,-2.3497,0.0,0.0,-2.3399,-2.3404,-2.375,-2.4262,-2.4144,-2.4083,-2.4083,-2.4083,-2.4083,-2.4122,-2.4295,-2.4806,-2.5182,-2.421,0.0,0.0,0.0,0.0,0.0,-2.334,0.0,0.0,0.0,0.0,0.0,0.0,0.0,0.0,0.0,0.0,0.0,0.0,0.0,0.0,0.0,0.0,-1.7603,0.0,0.0,0.0,0.0,0.0,0.0,0.0,-1.5722,-1.5681,-1.5375,-1.6417,-1.6904,-1.6525,-1.7005,-1.7379,-1.7507,-1.7379,-1.7379,-1.7507,-1.9132,-1.9989,-2.0001,-2.1789,-2.2907,-2.3369,-2.3369,-2.388,-2.4769,-2.4926,-2.5463,-2.6261,-2.6575,-2.6922,-2.7314,-2.7438,-2.749,-2.749,-2.749,-2.8038,-2.8843,-1.9472,-1.897,0.0,0.0,0.0,0.0,0.0,0.0,0.0,0.0,0.0,0.0,0.0,0.0,0.0,0.0,0.0,-2.453,-2.5584,0.0,-2.2362,0.0,0.0,-2.2113,0.0,0.0,0.0,0.0,0.0,0.0,0.0,0.0,0.0,0.0,0.0,-2.4011,-2.3861,-2.3497,-2.3552,-2.3857,-2.3535,-2.4034,-2.4896,0.0,-2.4083,-2.4083,-2.4083,0.0,-2.4204,-2.4783,-2.4992,-2.511,-2.5576,-2.4971,0.0,0.0,0.0,0.0,0.0,0.0,0.0,-2.2786,0.0,0.0,0.0,0.0,-2.0997,0.0,0.0,0.0,0.0,0.0,-1.8084,-1.8084,-1.8073,0.0,0.0,0.0,0.0,0.0,0.0,0.0,0.0,-1.6802,-1.6804,-1.6019,-1.7038,-1.734,-1.6546,-1.7005,-1.7534,-1.8077,-1.7562,-1.7562,-1.8066,-1.9797,-2.0665,-2.0689,-2.2961,-2.4054,-2.4083,-2.4083,-2.4096,-2.4178,-2.4756,-2.5018,-2.5136,-2.6248,-2.6719,-2.6798,-2.7314,-2.749,-2.749,-2.749,-2.7516,-2.7712,0.0,0.0,0.0,0.0,0.0,0.0,0.0,-2.1734,0.0,0.0,0.0,0.0,0.0,-2.6295,-2.6726,0.0,0.0,-2.5874,-2.5998,-2.4433,0.0,0.0,0.0,-2.3712,0.0,0.0,0.0,0.0,0.0,0.0,0.0,0.0,0.0,0.0,0.0,-2.3689,0.0,0.0,0.0,0.0,0.0,-2.4979,-2.4979,0.0,-2.4717,-2.4622,-2.4243,-2.4083,-2.4122,-2.4347,-2.4661,-2.4966,-2.4753,-2.4687,-2.4648,-2.4452,-2.4125,-2.3806,-2.3855,-2.3407,-2.3005,-2.3377,-2.2778,0.0,0.0,0.0,0.0,0.0,0.0,0.0,0.0,0.0,-1.8501,-1.8169,-1.8084,-1.8084,0.0,0.0,0.0,0.0,0.0,0.0,0.0,0.0,-1.6317,-1.559,-1.6843,-1.7168,-1.6088,-1.7187,-1.7913,-1.8093,-1.7913,-1.8116,-1.8682,-2.037,-2.1058,-2.0735,-2.2997,-2.3874,-2.3537,-2.3913,-2.4083,-2.4096,-2.4321,-2.4622,-2.5057,-2.5798,-2.6334,-2.6758,-2.7301,-2.749,-2.749,-2.749,-2.7771,-2.8255,-2.0311,0.0,0.0,0.0,0.0,0.0,0.0,0.0,0.0,0.0,-2.535,0.0,-2.7398,0.0,-2.832,0.0,-2.7811,-2.7328,-2.6638,-2.5612,0.0,-2.4837,-2.4975,0.0,0.0,0.0,0.0,0.0,0.0,-2.4321,0.0,0.0,0.0,0.0,0.0,0.0,0.0,0.0,-2.4164,0.0,0.0,-2.5602,0.0,0.0,-2.5175,-2.4926,-2.4321,-2.4083,-2.4083,-2.4083,-2.436,-2.4596,-2.423,-2.4374,-2.4596,-2.4217,-2.4083,-2.4083,-2.4083,-2.3563,-2.3171,-2.3813,-2.3222,-2.2649,-2.3255,0.0,-2.1903,0.0,0.0,0.0,0.0,0.0,-1.9202,-1.8873,-1.8499,-1.8247,0.0,-1.8084,0.0,0.0,0.0,0.0,0.0,0.0,-1.6596,-1.5735,-1.7074,-1.7482,-1.6487,-1.7683,-1.8509,-1.8712,-1.8536,-1.8697,-1.9277,-2.0754,-2.1322,-2.102,-2.3083,-2.3916,-2.3522,-2.3913,-2.4083,-2.4083,-2.4083,-2.4321,-2.4726,-2.5511,-2.6046,-2.6452,-2.7223,-2.749,-2.749,-2.749,-2.802,-2.8852,0.0,0.0,0.0,0.0,-2.1394,0.0,0.0,0.0,-2.5061,0.0,-2.5959,-2.7281,-2.7641,-2.8177,-2.8773,-2.9314,-2.9375,-2.8878,-2.7732,-2.7125,0.0,0.0,-2.5325,-2.5094,-2.4645,0.0,0.0,0.0,0.0,0.0,0.0,0.0,0.0,0.0,-2.4796,0.0,-2.42,-2.4809,-2.47,-2.4266,-2.5349,-2.5793,-2.5793,-2.5754,-2.5445,-2.4926,-2.4321,-2.4083,-2.4083,-2.4083,-2.4083,-2.4083,-2.4083,-2.4083,-2.4083,-2.4083,-2.4083,-2.4083,-2.4083,-2.407,-2.4044,-2.4083,-2.407,-2.4028,-2.3936,-2.3628,-2.3292,0.0,0.0,0.0,0.0,0.0,-2.0132,-2.0107,-1.9282,-1.8533,0.0,0.0,0.0,0.0,0.0,0.0,0.0,-1.776,-1.7611,-1.6441,-1.7714,0.0,0.0,-1.8515,-1.9302,-1.9773,-1.9317,-1.9316,-1.9874,-2.0985,-2.1554,-2.1567,-2.3279,-2.407,-2.4073,-2.4099,-2.4083,-2.4083,-2.4083,-2.4083,-2.4174,-2.5323,-2.5793,-2.591,-2.7046,-2.749,-2.749,-2.749,-2.8268,-2.931,-2.2248,-2.2833,-2.3459,0.0,-2.3045,-2.2604,0.0,0.0,0.0,0.0,-2.8086,-2.9406,-3.003,-3.0361,-3.0556,-3.0566,-3.0296,0.0,0.0,0.0,0.0,-2.7746,-2.705,-2.6206,-2.5229,-2.5302,0.0,-2.4157,0.0,0.0,-2.4783,0.0,0.0,0.0,0.0,0.0,-2.5362,-2.5537,-2.5524,-2.5375,-2.5675,-2.5793,-2.5754,-2.5354,-2.5183,-2.5077,-2.4351,-2.4083,-2.4083,-2.4083,-2.4083,-2.4083,-2.4083,-2.4083,-2.4083,-2.4083,-2.4083,-2.4083,-2.4083,-2.3757,-2.3535,-2.3979,-2.3757,-2.3535,-2.3962,-2.3366,-2.2727,-2.2656,-2.1857,-2.1186,-2.1227,-2.099,-2.0643,0.0,0.0,0.0,0.0,0.0,0.0,-1.9309,0.0,0.0,-1.8265,-1.7914,-1.7559,-1.7141,-1.8437,-1.8721,-1.7529,-1.9105,-1.9973,-1.9811,-1.9682,-2.0064,-2.1043,-2.1808,-2.2158,-2.2171,-2.3493,-2.3861,-2.3459,-2.3916,-2.4083,-2.4083,-2.4083,-2.4083,-2.4174,-2.5323,-2.5793,-2.591,-2.7046,-2.749,-2.749,-2.749,-2.8268,-2.931,-2.3464,0.0,0.0,-2.5331,0.0,0.0,-2.5205,-2.5805,0.0,-2.7853,-2.9114,0.0,-3.07,-3.1127,-3.141,-3.1261,-3.1069,0.0,-3.0703,0.0,0.0,-2.8876,-2.7591,-2.6631,-2.6022,-2.5651,0.0,-2.4803,0.0,0.0,-2.5082,0.0,0.0,0.0,0.0,-2.6059,0.0,-2.5563,-2.562,-2.5861,-2.5629,-2.5568,0.0,-2.5291,-2.5074,-2.4898,-2.4464,-2.4274,-2.4187,-2.4187,-2.4187,-2.4203,-2.4274,-2.4274,-2.4187,-2.4187,-2.4157,-2.4083,-2.4083,-2.3835,-2.3665,-2.4005,-2.3835,-2.3665,-2.4005,-2.3619,-2.3122,-2.2865,-2.2331,-2.1857,-2.1658,-2.1552,-2.1368,0.0,0.0,0.0,0.0,0.0,0.0,0.0,-1.9629,-1.9507,-1.9011,-1.8606,-1.8185,-1.7747,-1.9124,-1.9639,0.0,-2.0085,-2.0714,-2.0553,-2.1039,-2.1351,-2.1511,-2.2859,-2.3278,-2.274,-2.3681,-2.3913,-2.3587,-2.3939,-2.4083,-2.4083,-2.4083,-2.4083,-2.4174,-2.5323,-2.5793,-2.591,-2.7046,-2.749,-2.749,-2.749,-2.8111,-2.8917,0.0,0.0,0.0,0.0,0.0,0.0,0.0,-2.7758,0.0,-2.8741,0.0,-3.0286,-3.054,-3.1216,-3.1646,-3.1609,0.0,-3.1419,-3.0872,-3.0232,-2.9736,-2.9349,-2.7548,-2.6614,-2.6762,-2.5967,0.0,0.0,0.0,0.0,0.0,0.0,0.0,0.0,0.0,0.0,0.0,-2.5467,-2.5555,-2.5977,-2.5457,-2.5279,-2.5385,-2.5319,-2.5031,-2.462,-2.462,-2.4492,-2.435,-2.435,-2.435,-2.4379,-2.4549,-2.4492,-2.435,-2.435,-2.4261,-2.4171,-2.4171,-2.4171,-2.4171,-2.4171,-2.4171,-2.4171,-2.4141,-2.4089,-2.388,-2.33,-2.313,-2.2962,-2.248,-2.2307,-2.2089,0.0,0.0,0.0,0.0,0.0,0.0,0.0,0.0,0.0,-1.9673,-1.9584,-1.9221,-1.833,-1.9825,0.0,0.0,0.0,-2.138,-2.1407,-2.2412,-2.2595,-2.1864,-2.3772,-2.4334,-2.3563,-2.3913,-2.4083,-2.4083,-2.4083,-2.4083,-2.4083,-2.4083,-2.4083,-2.4174,-2.5323,-2.5884,-2.6119,-2.7111,-2.749,-2.749,-2.749,-2.7837,-2.8294,0.0,0.0,0.0,0.0,0.0,-2.9498,-2.9989,-2.9916,-2.9794,-2.9707,-3.0931,-3.168,-3.1436,-3.164,-3.178,-3.1609,-3.1743,0.0,0.0,0.0,0.0,-3.0174,-2.7981,-2.6702,-2.6641,-2.5621,-2.5181,0.0,0.0,0.0,0.0,0.0,0.0,0.0,0.0,0.0,-2.6696,-2.6604,0.0,-2.6193,-2.5608,-2.5369,-2.5345,-2.4896,-2.4758,-2.475,-2.4649,-2.4591,-2.4563,-2.4563,-2.4563,-2.4549,-2.4591,-2.4591,-2.4563,-2.4563,-2.4534,-2.4505,-2.4505,-2.4505,-2.4505,-2.4505,-2.4505,-2.4476,-2.4305,-2.3921,-2.3537,-2.3278,-2.2858,-2.2505,-2.2414,-2.2388,-2.2374,-2.2414,0.0,0.0,0.0,0.0,0.0,0.0,0.0,-2.0617,-2.0793,-2.0606,-2.01,0.0,0.0,0.0,0.0,-2.1119,-2.1507,-2.0857,-2.1459,-2.2373,-2.3613,-2.3576,-2.4122,-2.5323,-2.4488,-2.4083,-2.4083,-2.4083,-2.4083,-2.4083,-2.4083,-2.4083,-2.4174,-2.5323,-2.6341,-2.7216,-2.7411,-2.749,-2.749,-2.749,-2.7555,-2.779,0.0,0.0,0.0,0.0,0.0,0.0,0.0,-3.1695,-3.1515,-3.0586,-3.0845,-3.1141,-3.1271,-3.1738,-3.2036,-3.1927,-3.2,-3.2073,-3.2073,-3.1034,-3.0405,-3.0405,-2.8397,0.0,-2.6715,-2.5898,-2.5648,-2.6029,0.0,0.0,0.0,0.0,0.0,0.0,0.0,-2.726,0.0,0.0,-2.6047,-2.5878,-2.5333,-2.5121,-2.5168,-2.4928,-2.4835,-2.4892,-2.4835,-2.4806,-2.4806,-2.4734,-2.4706,-2.4734,-2.4778,-2.475,-2.4706,-2.4706,-2.4649,-2.4591,-2.4591,-2.4591,-2.4591,-2.4591,-2.452,-2.4421,-2.4321,-2.405,-2.3717,-2.3415,-2.3139,-2.289,-2.2656,-2.2813,-2.2919,-2.2737,0.0,0.0,0.0,0.0,0.0,0.0,0.0,0.0,0.0,0.0,0.0,0.0,0.0,0.0,0.0,-2.1663,-2.1856,-2.1577,-2.2413,-2.3091,-2.3613,-2.4227,-2.4717,-2.5017,-2.4403,-2.4141,-2.4216,-2.4442,-2.44,-2.4109,-2.4426,-2.4387,-2.4174,-2.5323,-2.6459,-2.749,-2.749,-2.7556,-2.7656,-2.7656,-2.7723,-2.7848,0.0,-3.0825,0.0,0.0,-3.2058,0.0,-3.2567,-3.2923,-3.2744,-3.1433,-3.0831,-3.0724,-3.1182,-3.1812,-3.2218,-3.2218,-3.2218,-3.2164,-3.2042,-3.1002,-3.0351,-3.0215,-2.86,-2.7434,-2.6806,-2.6212,-2.6102,0.0,0.0,-2.6519,-2.7297,0.0,0.0,0.0,0.0,0.0,-2.6559,-2.5798,-2.5437,-2.5437,-2.4995,-2.492,-2.5005,-2.5005,-2.5005,-2.5005,-2.5005,-2.5005,-2.4977,-2.4863,-2.4835,-2.4863,-2.4977,-2.492,-2.4835,-2.4835,-2.4778,-2.4706,-2.4706,-2.4706,-2.4706,-2.4706,-2.4565,-2.4436,-2.4408,-2.4319,-2.4155,-2.3808,-2.3622,-2.3452,-2.323,-2.3388,-2.344,-2.3084,-2.2803,0.0,0.0,0.0,0.0,0.0,0.0,0.0,-2.06,0.0,0.0,0.0,0.0,0.0,-2.2056,-2.2092,-2.2197,-2.24,-2.3393,-2.3877,-2.3801,-2.5014,-2.5393,-2.4919,-2.4619,-2.4554,-2.4688,-2.5013,-2.4896,-2.4475,-2.4949,-2.4962,-2.4726,-2.5659,-2.6641,-2.7556,-2.759,-2.7723,-2.7868,-2.802,-2.8153,-2.8246,0.0,0.0,0.0,0.0,0.0,-3.3539,-3.3565,-3.3368,-3.2932,-3.2196,-3.2046,-3.2019,-3.2087,-3.2141,-3.2218,-3.2218,-3.2218,-3.1951,-3.1409,-3.0771,-3.0161,-2.9624,-2.837,-2.7434,-2.6806,-2.6212,-2.584,0.0,0.0,-2.6661,-2.6616,-2.7709,0.0,-2.7213,-2.7213,-2.6645,-2.5737,-2.5617,-2.5385,-2.5058,-2.5004,-2.4977,-2.5005,-2.5005,-2.5005,-2.5005,-2.5005,-2.5005,-2.5005,-2.4977,-2.4977,-2.4977,-2.5005,-2.4977,-2.4977,-2.4977,-2.4977,-2.4948,-2.4948,-2.4948,-2.4948,-2.4948,-2.4948,-2.4892,-2.4778,-2.475,-2.4679,-2.4511,-2.4056,-2.383,-2.4338,-2.4016,-2.3711,-2.3782,-2.3218,-2.2657,0.0,0.0,0.0,0.0,0.0,0.0,0.0,-2.1799,0.0,0.0,-2.1798,0.0,0.0,-2.1899,-2.2184,-2.2388,-2.2975,-2.4063,-2.5704,-2.5284,-2.5709,-2.6929,-2.6041,-2.5747,-2.5933,-2.5782,-2.5688,-2.5636,-2.5688,-2.6007,-2.647,-2.6703,-2.7176,-2.7789,-2.7967,-2.8046,-2.8146,-2.8712,-2.8899,-2.8979,0.0,0.0,0.0,0.0,0.0,0.0,-3.4679,-3.4618,-3.4279,-3.3541,-3.2704,-3.2218,-3.2218,-3.2218,-3.2218,-3.2218,-3.2218,-3.211,-3.1843,-3.0934,-3.0296,-3.0052,-2.8885,-2.78,-2.682,-2.6549,-2.6237,0.0,0.0,0.0,-2.7228,-2.7719,-2.753,-2.6765,-2.6539,-2.6109,-2.5579,-2.5334,-2.5136,-2.5005,-2.5005,-2.5005,-2.5005,-2.5005,-2.5005,-2.5005,-2.5005,-2.5005,-2.5005,-2.5005,-2.5005,-2.5005,-2.5005,-2.5005,-2.5005,-2.5005,-2.5005,-2.5005,-2.5005,-2.5005,-2.5005,-2.5005,-2.4948,-2.4863,-2.4806,-2.4721,-2.4706,-2.4706,-2.459,-2.4444,-2.4336,-2.432,-2.4172,-2.3582,-2.3151,-2.2763,0.0,0.0,0.0,0.0,0.0,0.0,0.0,-2.2259,0.0,0.0,0.0,0.0,-2.2504,-2.267,-2.2957,-2.3406,-2.3289,-2.4105,-2.6047,-2.5432,-2.5703,-2.6836,-2.6334,-2.6228,-2.6396,-2.6573,-2.6638,-2.6612,-2.6268,-2.644,-2.7014,-2.7078,-2.7436,-2.8,-2.8079,-2.8131,-2.8283,-2.8886,-2.9215,-2.945,-3.5154,-3.4783,-3.4812,-3.5772,-3.5563,-3.5412,-3.5676,-3.5529,-3.5222,-3.4681,-3.3575,-3.2739,-3.2503,-3.2503,-3.2408,-3.2218,-3.2372,-3.234,-3.196,-3.0975,-3.0323,-3.0133,-2.9143,0.0,-2.7077,-2.6888,-2.6511,-2.5887,-2.6335,-2.6755,-2.7176,-2.7366,-2.7029,-2.624,-2.5988,-2.5704,-2.5399,-2.5124,-2.5005,-2.5005,-2.5005,-2.5005,-2.5005,-2.5005,-2.5005,-2.5005,-2.5005,-2.5005,-2.5005,-2.5005,-2.5005,-2.5005,-2.5005,-2.5005,-2.5005,-2.5005,-2.5005,-2.5005,-2.5005,-2.5005,-2.5005,-2.5005,-2.492,-2.4863,-2.4863,-2.4778,-2.4721,-2.4835,-2.492,-2.4883,-2.4435,-2.465,-2.4622,-2.3838,-2.3366,-2.2948,-2.2619,-2.1862,0.0,0.0,-2.2366,-2.2355,-2.2116,-2.2697,0.0,0.0,0.0,0.0,-2.3502,-2.3371,-2.3583,-2.4232,-2.3837,-2.4464,-2.6188,-2.5743,-2.5988,-2.6927,-2.6872,-2.6921,-2.7104,-2.7349,-2.7458,-2.7445,-2.7,-2.7053,-2.7472,-2.7522,-2.7763,-2.8164,-2.821,-2.8421,-2.8735,-2.9322,-2.9761,-3.0195,-3.5688,-3.5672,-3.5847,-3.6383,-3.6476,-3.6476,-3.6492,-3.5879,-3.54,-3.54,-3.4747,-3.4007,-3.3262,-3.3178,-3.2925,-3.2241,-3.2797,-3.2639,-3.1376,-3.0744,-3.0133,0.0,-2.8912,-2.8302,-2.7705,-2.7104,-2.6511,-2.5887,0.0,-2.59,-2.5928,-2.6538,-2.6377,-2.5606,-2.5799,-2.5561,-2.5018,-2.5005,-2.5005,-2.5005,-2.5005,-2.5005,-2.5005,-2.5005,-2.5005,-2.5005,-2.5005,-2.5005,-2.5005,-2.5005,-2.5005,-2.5005,-2.5005,-2.5005,-2.5005,-2.5005,-2.5005,-2.5005,-2.5005,-2.5005,-2.5005,-2.5005,-2.5005,-2.5005,-2.5005,-2.5005,-2.5005,-2.5005,-2.5005,-2.5005,-2.4991,-2.5005,-2.5005,-2.4991,-2.3974,-2.3215,-2.3201,-2.2032,0.0,-2.2035,-2.2523,-2.2604,-2.2144,-2.3058,0.0,0.0,0.0,-2.3242,-2.4213,-2.3764,-2.3823,-2.4565,-2.4578,-2.5197,-2.6495,-2.6356,-2.6742,-2.7705,-2.7948,-2.8137,-2.8274,-2.8151,-2.8079,-2.8079,-2.8066,-2.8066,-2.8099,-2.8222,-2.8287,-2.832,-2.8522,-2.8953,-2.957,-3.0161,-3.0771,-3.1355,-3.6258,-3.6258,-3.6289,-3.646,-3.6492,-3.6492,-3.6492,-3.6289,-3.6148,-3.6148,-3.5497,-3.496,-3.4728,-3.4245,-3.3871,-3.3644,-3.3837,-3.3408,-3.2062,-3.1443,-3.0646,-2.9543,-2.8912,-2.8125,-2.7104,-2.6888,-2.6291,-2.529,-2.5697,-2.5887,-2.5887,-2.609,-2.583,-2.5204,-2.5261,-2.5181,-2.5005,-2.5005,-2.5005,-2.5005,-2.5005,-2.5005,-2.5005,-2.5005,-2.5005,-2.5005,-2.5005,-2.5258,-2.5619,-2.5619,-2.5865,-2.6162,-2.6162,-2.5632,-2.5005,-2.5005,-2.5005,-2.5005,-2.5005,-2.5005,-2.5005,-2.5005,-2.5005,-2.5005,-2.5005,-2.5005,-2.5005,-2.5005,-2.5005,-2.5005,-2.5005,-2.5005,-2.5005,-2.5005,-2.4326,-2.3676,-2.3269,-2.2954,-2.2828,-2.3019,-2.363,-2.3753,-2.3126,-2.3608,-2.3797,0.0,0.0,-2.3834,-2.3879,-2.3734,-2.4294,-2.5695,-2.5362,-2.5985,-2.7709,-2.7328,-2.753,-2.8315,-2.8409,-2.8457,-2.8509,-2.8457,-2.8438,-2.8438,-2.8438,-2.8438,-2.8425,-2.849,-2.8509,-2.8509,-2.8554,-2.8709,-2.894,-2.955,-3.0161,-3.0771,-3.6492,-3.6492,-3.6492,-3.6492,-3.6492,-3.6492,-3.6492,-3.6492,-3.6492,-3.6492,-3.6116,-3.58,-3.58,-3.54,-3.4879,-3.4346,-3.4328,-3.3842,-3.2753,-3.1923,-3.0992,-2.9898,-2.9261,-2.8474,-2.7501,-2.7023,-2.6427,-2.5683,-2.5602,-2.5561,-2.5561,-2.5561,-2.5358,-2.5005,-2.5005,-2.5005,-2.5005,-2.5005,-2.5005,-2.5005,-2.5005,-2.5005,-2.5005,-2.5005,-2.5146,-2.5342,-2.5342,-2.5715,-2.619,-2.619,-2.6416,-2.6704,-2.6704,-2.6215,-2.5632,-2.5632,-2.5508,-2.5342,-2.5342,-2.5342,-2.5342,-2.5342,-2.5481,-2.5591,-2.5384,-2.5342,-2.5286,-2.5061,-2.5005,-2.5005,-2.5005,-2.5005,-2.5005,-2.5005,-2.4286,-2.3743,-2.3621,-2.3344,-2.3216,0.0,-2.4036,-2.4091,-2.3073,-2.3458,-2.3554,-2.3015,0.0,-2.3538,-2.35,-2.4046,-2.49,-2.6116,-2.5794,-2.6374,-2.8061,-2.7723,-2.7908,-2.8587,-2.8587,-2.8587,-2.8587,-2.8587,-2.8587,-2.8587,-2.8587,-2.8587,-2.8587,-2.8587,-2.8587,-2.8587,-2.8587,-2.8736,-2.8967,-2.9366,-2.9876,-3.05,-3.6492,-3.6492,-3.6492,-3.6492,-3.6492,-3.6492,-3.6492,-3.6492,-3.6492,-3.6492,-3.6492,-3.6492,-3.6492,-3.6492,-3.5943,-3.4581,-3.4495,-3.4188,-3.3362,-3.221,-3.1217,-3.0435,-2.9859,-2.9272,-2.8611,-2.7503,-2.6859,-2.6731,-2.5561,-2.5005,-2.5005,-2.5005,-2.5005,-2.5005,-2.5005,-2.5005,-2.5005,-2.5005,-2.5005,-2.5005,-2.5005,-2.5005,-2.5005,-2.5061,-2.5425,-2.5893,-2.5948,-2.6283,-2.6756,-2.6756,-2.6782,-2.6823,-2.6823,-2.6823,-2.6808,-2.6704,-2.6336,-2.5975,-2.5975,-2.5975,-2.5975,-2.5975,-2.6336,-2.6587,-2.6069,-2.5921,-2.5729,-2.5174,-2.5061,-2.5061,-2.5061,-2.509,-2.5118,-2.5061,-2.4137,-2.3619,-2.4218,-2.3435,-2.2916,-2.3253,-2.3945,-2.3823,-2.2396,-2.2878,-2.2808,-2.167,0.0,-2.2727,-2.3296,-2.4706,-2.563,-2.5955,-2.5955,-2.6538,-2.7759,-2.7773,-2.8044,-2.8587,-2.8587,-2.8587,-2.8587,-2.8587,-2.8587,-2.8587,-2.8587,-2.8587,-2.8587,-2.8587,-2.8587,-2.8587,-2.8587,-2.8926,-2.9448,-2.9448,-2.9808,-3.0418,-3.6492,-3.6492,-3.6492,-3.6492,-3.6492,-3.6492,-3.6492,-3.6492,-3.6492,-3.6492,-3.6492,-3.6492,-3.6492,-3.6492,-3.6352,-3.6006,-3.5995,-3.5275,-3.3569,-3.315,-3.2267,-3.0542,-3.0355,-2.9733,-2.8626,-2.8326,-2.7485,-2.6106,-2.5367,-2.5005,-2.5005,-2.5005,-2.5005,-2.5005,-2.5005,-2.5005,-2.5005,-2.5005,-2.5005,-2.5005,-2.5005,-2.5005,-2.5061,-2.5508,-2.5784,-2.5934,-2.6363,-2.6875,-2.7297,-2.7297,-2.762,-2.7999,-2.7999,-2.7999,-2.7835,-2.6953,-2.6599,-2.6508,-2.6508,-2.6508,-2.6508,-2.6508,-2.6613,-2.6678,-2.6534,-2.619,-2.5866,-2.5729,-2.5702,-2.5702,-2.5702,-2.6014,-2.6162,-2.5743,-2.5545,-2.5157,-2.4408,-2.4586,-2.4694,-2.4309,-2.4832,-2.4833,-2.3864,-2.3932,-2.3878,-2.3499,-2.3933,-2.4324,-2.4557,-2.5641,-2.6338,-2.6576,-2.6606,-2.7176,-2.837,-2.8383,-2.8451,-2.8587,-2.8587,-2.8587,-2.8587,-2.8587,-2.8587,-2.8587,-2.8587,-2.8587,-2.8587,-2.8587,-2.8587,-2.8587,-2.8587,-2.8682,-2.8804,-2.8804,-2.9184,-2.9713,-3.6492,-3.6492,-3.6492,-3.6492,-3.6492,-3.6492,-3.6492,-3.6492,-3.6492,-3.6492,-3.6492,-3.6492,-3.6492,-3.6492,-3.6492,-3.6492,-3.6215,-3.5447,-3.406,-3.3651,-3.272,-3.1043,-3.0661,-3.0031,-2.9044,-2.8436,-2.7544,-2.627,-2.5933,-2.5797,-2.5797,-2.5797,-2.5797,-2.5797,-2.5797,-2.5797,-2.5797,-2.5797,-2.5797,-2.5797,-2.5797,-2.5797,-2.5824,-2.6149,-2.6416,-2.668,-2.6979,-2.7414,-2.791,-2.791,-2.8122,-2.8411,-2.8411,-2.8411,-2.8275,-2.7645,-2.7287,-2.7067,-2.7067,-2.7067,-2.7119,-2.7403,-2.7494,-2.7403,-2.7133,-2.6849,-2.6549,-2.6324,-2.627,-2.627,-2.627,-2.6251,-2.6153,-2.5869,-2.5481,-2.5099,-2.4716,-2.49,-2.4928,-2.4516,-2.4984,-2.4957,-2.3905,-2.4041,-2.4055,-2.3703,-2.419,-2.4636,-2.4991,-2.5785,-2.6391,-2.6779,-2.7064,-2.7664,-2.8587,-2.8587,-2.8587,-2.8587,-2.8587,-2.8587,-2.8587,-2.8587,-2.8587,-2.8587,-2.8587,-2.8587,-2.8587,-2.8587,-2.8587,-2.8587,-2.8587,-2.8587,-2.8587,-2.8587,-2.8804,-2.9149,-3.6492,-3.6492,-3.6492,-3.6492,-3.6492,-3.6492,-3.6492,-3.6492,-3.6492,-3.6492,-3.6492,-3.6492,-3.6492,-3.6492,-3.6445,-3.6353,-3.5845,-3.5229,-3.4551,-3.3798,-3.2863,-3.1682,-3.0992,-3.0335,-2.9666,-2.8283,-2.7324,-2.6808,-2.673,-2.6704,-2.6704,-2.6704,-2.6704,-2.6704,-2.6704,-2.6704,-2.6704,-2.6704,-2.6704,-2.6704,-2.6704,-2.6704,-2.6704,-2.6782,-2.7093,-2.7515,-2.759,-2.7959,-2.8411,-2.8411,-2.8411,-2.8411,-2.8411,-2.8411,-2.8411,-2.8411,-2.8048,-2.7655,-2.7655,-2.7655,-2.777,-2.8259,-2.8411,-2.8259,-2.773,-2.7565,-2.7363,-2.6912,-2.6808,-2.6808,-2.6808,-2.6349,-2.5983,-2.6006,-2.5189,-2.471,-2.5242,-2.5017,-2.472,-2.4463,-2.4942,-2.4859,-2.3716,-2.4069,-2.4191,-2.3784,-2.4123,-2.4652,-2.5249,-2.5846,-2.6416,-2.6915,-2.7447,-2.799,-2.8587,-2.8587,-2.8587,-2.8587,-2.8587,-2.8587,-2.8587,-2.8587,-2.8587,-2.8587,-2.8587,-2.8587,-2.8587,-2.8587,-2.8587,-2.86,-2.8695,-2.8668,-2.86,-2.8695,-2.8668,-2.8655,-3.6492,-3.6492,-3.6492,-3.6492,-3.6492,-3.6492,-3.6492,-3.6492,-3.6492,-3.6492,-3.6492,-3.6492,-3.6492,-3.6492,-3.6261,-3.5722,-3.5568,-3.5229,-3.4551,-3.3798,-3.3077,-3.2274,-3.1615,-3.0934,-3.0277,-2.8471,-2.7467,-2.7388,-2.6912,-2.6704,-2.6704,-2.6704,-2.6704,-2.6704,-2.6704,-2.6704,-2.6704,-2.6704,-2.6704,-2.6704,-2.6704,-2.6704,-2.6756,-2.7195,-2.7439,-2.7565,-2.8073,-2.8323,-2.8411,-2.8411,-2.8411,-2.8411,-2.8411,-2.8411,-2.8411,-2.8411,-2.8323,-2.8259,-2.8259,-2.8259,-2.8275,-2.8372,-2.8411,-2.8372,-2.8275,-2.787,-2.7489,-2.7373,-2.7388,-2.7388,-2.7388,-2.7252,-2.7216,-2.7436,-2.6743,-2.6163,-2.619,-2.5897,-2.5535,-2.5121,-2.5499,-2.5712,-2.5493,-2.5561,-2.5792,-2.621,-2.586,-2.5887,-2.6481,-2.7108,-2.7461,-2.7569,-2.7664,-2.799,-2.8587,-2.8587,-2.8587,-2.8587,-2.8587,-2.8587,-2.8587,-2.8587,-2.8587,-2.8587,-2.8587,-2.8587,-2.8587,-2.8587,-2.8587,-2.8641,-2.9176,-2.9034,-2.8655,-2.919,-2.9021,-2.86,-3.6492,-3.6492,-3.6492,-3.6492,-3.6492,-3.6492,-3.6492,-3.6492,-3.6492,-3.6492,-3.6492,-3.6492,-3.6492,-3.6492,-3.6215,-3.5568,-3.5506,-3.5059,-3.3967,-3.3583,-3.3106,-3.2428,-3.1751,-3.092,-2.9879,-2.8625,-2.7984,-2.7984,-2.7745,-2.762,-2.762,-2.762,-2.762,-2.762,-2.762,-2.762,-2.762,-2.762,-2.762,-2.762,-2.762,-2.762,-2.7645,-2.7885,-2.7984,-2.8008,-2.8299,-2.8411,-2.8411,-2.8411,-2.8411,-2.8411,-2.8411,-2.8411,-2.8411,-2.8411,-2.8411,-2.8411,-2.8411,-2.8411,-2.8411,-2.8411,-2.8411,-2.8411,-2.8411,-2.8186,-2.7984,-2.7984,-2.7984,-2.7984,-2.7984,-2.766,-2.7537,-2.7946,-2.722,-2.6674,-2.6854,-2.6931,-2.6864,-2.6591,-2.6763,-2.6922,-2.6922,-2.6597,-2.6511,-2.6779,-2.6552,-2.666,-2.724,-2.7556,-2.7854,-2.8166,-2.818,-2.8315,-2.8587,-2.8587,-2.8587,-2.8587,-2.8587,-2.8587,-2.8587,-2.8587,-2.8587,-2.8587,-2.8587,-2.8587,-2.8587,-2.8587,-2.8587,-2.8655,-2.9271,-2.9149,-2.8655,-2.9298,-2.9339,-2.9021,-3.6492,-3.6492,-3.6492,-3.6492,-3.6492,-3.6492,-3.6492,-3.6492,-3.6492,-3.6492,-3.6492,-3.6492,-3.6492,-3.6492,-3.6215,-3.5568,-3.5506,-3.4891,-3.349,-3.3398,-3.3106,-3.2428,-3.1751,-3.0843,-2.9648,-2.8996,-2.8642,-2.8642,-2.8488,-2.8411,-2.8411,-2.8411,-2.8411,-2.8411,-2.8411,-2.8411,-2.8411,-2.8411,-2.8411,-2.8411,-2.8411,-2.8411,-2.8411,-2.8411,-2.8411,-2.8411,-2.8411,-2.8411,-2.8411,-2.8411,-2.8411,-2.8411,-2.8411,-2.8411,-2.8411,-2.8411,-2.8411,-2.8411,-2.8411,-2.8411,-2.8411,-2.8411,-2.8411,-2.8442,-2.8611,-2.8519,-2.8442,-2.8611,-2.8519,-2.8411,-2.8411,-2.7857,-2.7586,-2.8204,-2.7601,-2.7189,-2.7606,-2.8007,-2.8167,-2.7963,-2.8096,-2.8209,-2.8209,-2.7753,-2.7508,-2.766,-2.7385,-2.7486,-2.8074,-2.8003,-2.8125,-2.8587,-2.8587,-2.8587,-2.8587,-2.8587,-2.8587,-2.8587,-2.8587,-2.8655,-2.879,-2.8655,-2.8668,-2.8804,-2.8804,-2.8804,-2.8804,-2.8804,-2.8804,-2.8845,-2.9339,-2.9149,-2.8655,-2.9298,-2.9515,-2.942,-3.6492,-3.6492,-3.6492,-3.6492,-3.6492,-3.6492,-3.6492,-3.6492,-3.6492,-3.6492,-3.6492,-3.6492,-3.6492,-3.6492,-3.6215,-3.5568,-3.5506,-3.4891,-3.349,-3.3398,-3.3106,-3.2428,-3.1751,-3.1059,-3.034,-2.9664,-2.9335,-2.9335,-2.8704,-2.8411,-2.8411,-2.8411,-2.8411,-2.8411,-2.8411,-2.8411,-2.8411,-2.8411,-2.8411,-2.8411,-2.8411,-2.8411,-2.8411,-2.8411,-2.8411,-2.8411,-2.8411,-2.8411,-2.8411,-2.8411,-2.8411,-2.8411,-2.8411,-2.8411,-2.8411,-2.8411,-2.8411,-2.8411,-2.8411,-2.8411,-2.8411,-2.8411,-2.8411,-2.8565,-2.9171,-2.8858,-2.8581,-2.9187,-2.8818,-2.8411,-2.8411,-2.7857,-2.7668,-2.8524,-2.8338,-2.8238,-2.8719,-2.9062,-2.9117,-2.8688,-2.913,-2.9464,-2.9464,-2.9421,-2.9624,-3.0186,-2.9188,-2.8799,-2.9358,-2.8844,-2.8546,-2.8587,-2.8587,-2.8587,-2.8587,-2.8587,-2.8587,-2.8587,-2.8587,-2.8872,-2.942,-2.8831,-2.8885,-2.9434,-2.9434,-2.9434,-2.9434,-2.9434,-2.9434,-2.9448,-2.9488,-2.9149,-2.8655,-2.9298,-2.9515,-2.942,-3.6492,-3.6492,-3.6492,-3.6492,-3.6492,-3.6492,-3.6492,-3.6492,-3.6492,-3.6492,-3.6492,-3.6492,-3.6492,-3.6492,-3.6215,-3.5568,-3.5891,-3.5522,-3.4152,-3.406,-3.3567,-3.2444,-3.1366,-3.0674,-3.0402,-2.9325,-2.8781,-2.8781,-2.8535,-2.8411,-2.8411,-2.8411,-2.8411,-2.8411,-2.8411,-2.8411,-2.8411,-2.8411,-2.8411,-2.8411,-2.8411,-2.8411,-2.8411,-2.8411,-2.8411,-2.8411,-2.8411,-2.8411,-2.8411,-2.8411,-2.8411,-2.8411,-2.8411,-2.8411,-2.8411,-2.8411,-2.8411,-2.8488,-2.8919,-2.8719,-2.8411,-2.8411,-2.8411,-2.8581,-2.9233,-2.9187,-2.9202,-2.9879,-2.9817,-2.9633,-2.9633,-2.9417,-2.9465,-3.0148,-2.9867,-2.9735,-3.0259,-3.0516,-3.0581,-3.0404,-3.0615,-3.0775,-3.0775,-3.0043,-2.9618,-2.986,-2.986,-2.9964,-3.0158,-2.9963,-2.9638,-2.9176,-2.879,-2.8587,-2.8587,-2.8587,-2.8777,-2.9176,-2.9176,-2.9455,-3.0052,-2.9821,-2.9835,-3.0052,-3.0052,-3.0052,-3.0052,-3.0052,-3.0052,-3.0093,-3.0459,-3.0242,-2.974,-2.9971,-3.0283,-3.0459,-3.6492,-3.6492,-3.6492,-3.6492,-3.6492,-3.6492,-3.6492,-3.6492,-3.6492,-3.6492,-3.6492,-3.6492,-3.6492,-3.6492,-3.6307,-3.583,-3.6215,-3.6014,-3.489,-3.4412,-3.3614,-3.2444,-3.152,-3.1043,-3.1043,-2.992,-2.9243,-2.9042,-2.8827,-2.8611,-2.8411,-2.8411,-2.8411,-2.8411,-2.8411,-2.8411,-2.8411,-2.8411,-2.8411,-2.8411,-2.8411,-2.8411,-2.8411,-2.8411,-2.8411,-2.8411,-2.8411,-2.8411,-2.8411,-2.8411,-2.8411,-2.8411,-2.8411,-2.8411,-2.8442,-2.8658,-2.8719,-2.8873,-2.9525,-2.9371,-2.9042,-2.9042,-2.9042,-2.9187,-2.9889,-2.9874,-2.9894,-3.0582,-3.054,-3.0402,-3.0402,-3.0402,-3.0514,-3.0895,-3.081,-3.0821,-3.1202,-3.1513,-3.1782,-3.1982,-3.2051,-3.2112,-3.2112,-3.1456,-3.0958,-3.0755,-3.0991,-3.0995,-3.0555,-3.0536,-3.0306,-2.9801,-2.9184,-2.8967,-2.9157,-2.8967,-2.9108,-2.9515,-2.9706,-3.0093,-3.069,-3.05,-3.0513,-3.069,-3.069,-3.069,-3.069,-3.069,-3.069,-3.0703,-3.0934,-3.0758,-3.0405,-3.0405,-3.0785,-3.1151,-3.6492,-3.6492,-3.6492,-3.6492,-3.6492,-3.6492,-3.6492,-3.6492,-3.6492,-3.6492,-3.6492,-3.6492,-3.6492,-3.6492,-3.6492,-3.6492,-3.6492,-3.6199,-3.5522,-3.4183,-3.3106,-3.2428,-3.2398,-3.2382,-3.2382,-3.1747,-3.1074,-3.0402,-2.9725,-2.9048,-2.8411,-2.8411,-2.8411,-2.8411,-2.8411,-2.8411,-2.8411,-2.8411,-2.8411,-2.8411,-2.8411,-2.8411,-2.8411,-2.8411,-2.8411,-2.8411,-2.8411,-2.8411,-2.8411,-2.8411,-2.8411,-2.8411,-2.8411,-2.8411,-2.855,-2.9202,-2.9402,-2.9541,-3.0217,-3.0402,-3.0402,-3.0402,-3.0402,-3.0571,-3.1243,-3.0889,-3.0586,-3.1285,-3.0889,-3.0432,-3.0432,-3.0432,-3.0432,-3.0432,-3.0982,-3.1424,-3.1439,-3.1982,-3.2659,-3.3336,-3.3398,-3.3398,-3.3413,-3.4044,-3.4168,-3.346,-3.2762,-3.1828,-3.0487,-3.0418,-3.0418,-3.0418,-2.9808,-2.9781,-3.0405,-2.9794,-2.9515,-2.9529,-3.012,-3.073,-3.1287,-3.069,-3.0744,-3.13,-3.13,-3.13,-3.13,-3.13,-3.13,-3.1246,-3.0649,-3.0418,-3.0418,-3.0418,-3.0798,-3.1219,-3.6492,-3.6492,-3.6492,-3.6492,-3.6492,-3.6492,-3.6492,-3.6492,-3.6492,-3.6492,-3.6492,-3.6492,-3.6492,-3.6492,-3.6492,-3.6492,-3.6492,-3.6199,-3.5522,-3.4674,-3.3844,-3.3121,-3.2198,-3.169,-3.169,-3.1043,-3.0586,-3.0402,-2.9725,-2.9294,-2.9104,-2.8627,-2.8411,-2.8411,-2.8411,-2.8411,-2.8411,-2.8411,-2.8411,-2.8411,-2.8411,-2.8411,-2.8411,-2.8411,-2.8411,-2.8411,-2.8411,-2.8411,-2.8411,-2.8411,-2.8411,-2.8488,-2.8965,-2.9417,-2.9833,-3.0033,-3.0094,-3.0248,-3.092,-3.1089,-3.0982,-3.0509,-3.0402,-3.0571,-3.1243,-3.1243,-3.1428,-3.2567,-3.2644,-3.2659,-3.3167,-3.2859,-3.2675,-3.3183,-3.2998,-3.2967,-3.3503,-3.329,-3.3367,-3.4104,-3.329,-3.3075,-3.4089,-3.3526,-3.32,-3.3472,-3.324,-3.2887,-3.2389,-3.1944,-3.153,-3.1064,-3.0446,-3.0228,-3.0405,-2.9794,-2.9937,-3.0758,-3.0948,-3.1341,-3.1911,-3.1734,-3.1748,-3.1911,-3.1911,-3.1911,-3.1911,-3.1911,-3.1911,-3.1897,-3.1721,-3.1653,-3.1599,-3.1192,-3.1395,-3.1829,-3.6569,-3.6554,-3.6492,-3.6492,-3.6492,-3.6492,-3.6492,-3.6492,-3.6492,-3.6492,-3.6492,-3.6492,-3.6492,-3.6492,-3.6492,-3.6492,-3.6492,-3.6322,-3.5907,-3.5028,-3.4428,-3.4229,-3.2921,-3.2059,-3.1782,-3.1397,-3.1074,-3.0812,-3.0397,-3.0074,-2.9771,-2.9095,-2.8812,-2.8796,-2.8519,-2.8411,-2.8411,-2.8411,-2.8411,-2.8411,-2.8411,-2.8411,-2.8411,-2.8411,-2.8411,-2.8411,-2.8411,-2.8411,-2.8411,-2.8468,-2.8468,-2.8592,-2.9271,-2.9714,-3.0094,-3.0643,-3.0812,-3.0951,-3.1597,-3.1982,-3.209,-3.1705,-3.1397,-3.1305,-3.169,-3.1982,-3.2413,-3.3229,-3.3629,-3.3967,-3.4428,-3.415,-3.3967,-3.4428,-3.4135,-3.3983,-3.4443,-3.4135,-3.4091,-3.4813,-3.415,-3.3966,-3.4813,-3.4394,-3.4121,-3.425,-3.3953,-3.3605,-3.3234,-3.2612,-3.206,-3.1675,-3.137,-3.1165,-3.111,-3.0781,-3.0836,-3.13,-3.1531,-3.1829,-3.2218,-3.2218,-3.2218,-3.2218,-3.2218,-3.2218,-3.2218,-3.2218,-3.2218,-3.2218,-3.2503,-3.2444,-3.2237,-3.2409,-3.2527,-3.2591,-3.6723,-3.6647,-3.6554,-3.6523,-3.6523,-3.6523,-3.6492,-3.6492,-3.6492,-3.6492,-3.6492,-3.6492,-3.6492,-3.6492,-3.6492,-3.6492,-3.6492,-3.6492,-3.6492,-3.5306,-3.4874,-3.5491,-3.4214,-3.3213,-3.2598,-3.2521,-3.2182,-3.1593,-3.147,-3.1059,-3.0386,-2.9771,-2.9417,-2.9279,-2.875,-2.8458,-2.8411,-2.8411,-2.8411,-2.8411,-2.8411,-2.8411,-2.842,-2.842,-2.8436,-2.8436,-2.8436,-2.8497,-2.8645,-2.8898,-2.8993,-2.9102,-2.9698,-2.983,-3.0012,-3.1239,-3.1593,-3.1747,-3.2398,-3.3029,-3.3506,-3.3506,-3.3029,-3.2582,-3.2582,-3.3059,-3.3521,-3.3583,-3.4106,-3.4613,-3.4674,-3.4628,-3.4613,-3.4674,-3.4628,-3.4613,-3.4674,-3.4628,-3.4844,-3.5521,-3.546,-3.5475,-3.5598,-3.6122,-3.6179,-3.5464,-3.478,-3.4075,-3.3353,-3.2704,-3.2386,-3.2386,-3.2528,-3.25,-3.2372,-3.2451,-3.2104,-3.1382,-3.1924,-3.2218,-3.2218,-3.2218,-3.2218,-3.2218,-3.2218,-3.2218,-3.2218,-3.2218,-3.2218,-3.2277,-3.2925,-3.2832,-3.2444,-3.3817,-3.3856,-3.3388,-3.6938,-3.6908,-3.6847,-3.6693,-3.6662,-3.6631,-3.6523,-3.6492,-3.6492,-3.6492,-3.6492,-3.6492,-3.6492,-3.6492,-3.6492,-3.6492,-3.6492,-3.6492,-3.6492,-3.5752,-3.5367,-3.5506,-3.4705,-3.4197,-3.4058,-3.3475,-3.3106,-3.2967,-3.1905,-3.1059,-3.0402,-3.0248,-2.9617,-2.8642,-2.9027,-2.8904,-2.8411,-2.8411,-2.8411,-2.8411,-2.8411,-2.8468,-2.8565,-2.8565,-2.8612,-2.87,-2.87,-2.9392,-3.045,-3.1576,-3.1977,-3.1966,-3.2031,-3.2354,-3.2795,-3.2946,-3.2967,-3.3121,-3.3858,-3.4166,-3.4274,-3.4274,-3.4166,-3.4043,-3.4043,-3.4166,-3.4428,-3.4922,-3.5153,-3.5444,-3.5953,-3.566,-3.5475,-3.5968,-3.5645,-3.5475,-3.5984,-3.5629,-3.5522,-3.6184,-3.5367,-3.5136,-3.6168,-3.6399,-3.6179,-3.5464,-3.5255,-3.4846,-3.4109,-3.3905,-3.3837,-3.3837,-3.3878,-3.3878,-3.3851,-3.3878,-3.3239,-3.2028,-3.2151,-3.2218,-3.2218,-3.2218,-3.2218,-3.2218,-3.2218,-3.2218,-3.2218,-3.2218,-3.2218,-3.2277,-3.2925,-3.3122,-3.3087,-3.3973,-3.4211,-3.4075,-3.7105,-3.7044,-3.6969,-3.6862,-3.6831,-3.6831,-3.6754,-3.6754,-3.6708,-3.66,-3.6677,-3.6708,-3.6616,-3.6616,-3.6585,-3.6523,-3.6492,-3.6492,-3.6492,-3.5861,-3.566,-3.5953,-3.5337,-3.4982,-3.4982,-3.4305,-3.3752,-3.3398,-3.269,-3.2013,-3.1351,-3.1028,-3.0505,-2.9827,-2.9848,-2.9679,-2.9325,-2.9027,-2.8889,-2.8858,-2.8535,-2.8468,-2.8597,-2.8597,-2.8684,-2.8841,-2.9153,-2.9967,-3.1049,-3.2154,-3.2515,-3.264,-3.3201,-3.3556,-3.3846,-3.3986,-3.4021,-3.4098,-3.4397,-3.4736,-3.4982,-3.4982,-3.5229,-3.5306,-3.4659,-3.4751,-3.509,-3.5444,-3.5737,-3.6076,-3.643,-3.6199,-3.6076,-3.643,-3.6199,-3.6091,-3.6445,-3.6184,-3.6107,-3.6445,-3.5891,-3.5737,-3.643,-3.6492,-3.6352,-3.5943,-3.5608,-3.5222,-3.4861,-3.448,-3.4312,-3.4312,-3.4647,-3.4647,-3.4312,-3.4647,-3.4279,-3.322,-3.322,-3.322,-3.322,-3.322,-3.322,-3.322,-3.322,-3.322,-3.322,-3.322,-3.322,-3.3276,-3.3973,-3.4027,-3.3871,-3.496,-3.5367,-3.5367,-3.7254,-3.7165,-3.706,-3.703,-3.703,-3.703,-3.6999,-3.7015,-3.6938,-3.6754,-3.6908,-3.6938,-3.6754,-3.6754,-3.6693,-3.6554,-3.6523,-3.6523,-3.6492,-3.5968,-3.5907,-3.6476,-3.5984,-3.5629,-3.5506,-3.4967,-3.4335,-3.3583,-3.346,-3.3059,-3.2382,-3.1936,-3.1551,-3.1197,-3.0782,-3.052,-3.0407,-2.9837,-2.9606,-2.9585,-2.9039,-2.8881,-2.901,-2.901,-2.9098,-2.9288,-2.9835,-3.0613,-3.1546,-3.2505,-3.2756,-3.2867,-3.4081,-3.4312,-3.422,-3.4749,-3.4922,-3.4924,-3.4931,-3.5319,-3.5721,-3.5721,-3.6107,-3.6199,-3.5106,-3.5275,-3.566,-3.566,-3.6107,-3.6492,-3.6492,-3.6492,-3.6492,-3.6492,-3.6492,-3.6492,-3.6492,-3.6492,-3.6492,-3.6492,-3.6492,-3.6492,-3.6492,-3.6492,-3.6492,-3.6492,-3.5943,-3.5593,-3.5593,-3.5026,-3.4681,-3.4681,-3.5255,-3.5302,-3.4681,-3.5287,-3.5287,-3.4681,-3.4681,-3.4547,-3.4312,-3.4312,-3.4312,-3.4312,-3.4312,-3.4312,-3.4312,-3.4312,-3.4312,-3.438,-3.5124,-3.5026,-3.4647,-3.6006,-3.6492,-3.6492,-3.7464,-3.745,-3.7375,-3.7194,-3.7164,-3.715,-3.703,-3.7015,-3.6984,-3.6969,-3.6969,-3.6984,-3.6969,-3.6969,-3.6862,-3.6693,-3.6662,-3.6631,-3.6523,-3.6415,-3.6399,-3.6492,-3.6399,-3.6076,-3.5521,-3.5429,-3.5044,-3.4351,-3.3706,-3.3059,-3.2398,-3.2906,-3.2213,-3.0555,-3.1043,-3.1014,-3.0552,-3.0484,-3.0489,-3.06,-3.0507,-3.056,-3.0685,-3.0685,-3.0775,-3.0905,-3.0975,-3.1852,-3.3282,-3.5165,-3.5429,-3.5082,-3.5726,-3.5527,-3.514,-3.5671,-3.5815,-3.594,-3.6502,-3.6599,-3.6553,-3.6553,-3.6508,-3.6445,-3.6261,-3.6292,-3.6353,-3.6353,-3.643,-3.6492,-3.6492,-3.6492,-3.6492,-3.6492,-3.6492,-3.6492,-3.6492,-3.6492,-3.6492,-3.6492,-3.6492,-3.6492,-3.6492,-3.6492,-3.6492,-3.6492,-3.6429,-3.6352,-3.6352,-3.6258,-3.6211,-3.6211,-3.6289,-3.632,-3.6211,-3.6289,-3.6289,-3.6211,-3.6211,-3.5529,-3.4312,-3.4312,-3.4312,-3.4312,-3.4312,-3.4312,-3.4312,-3.4312,-3.4312,-3.438,-3.5124,-3.5335,-3.5367,-3.6179,-3.6492,-3.6492,-3.7943,-3.7714,-3.748,-3.7375,-3.7359,-3.7345,-3.7301,-3.7271,-3.7241,-3.7135,-3.7195,-3.7241,-3.7119,-3.7089,-3.6998,-3.6723,-3.68,-3.68,-3.6631,-3.6708,-3.6785,-3.6785,-3.6785,-3.646,-3.5777,-3.5792,-3.5622,-3.5341,-3.4039,-3.3088,-3.2523,-3.2817,-3.2535,-3.1823,-3.2102,-3.2326,-3.2395,-3.1591,-3.1535,-3.1909,-3.1103,-3.0892,-3.1002,-3.1002,-3.1067,-3.1293,-3.2108,-3.3277,-3.4668,-3.5951,-3.6187,-3.6061,-3.6727,-3.6713,-3.651,-3.6646,-3.6665,-3.6714,-3.6952,-3.6938,-3.6862,-3.6862,-3.68,-3.6785,-3.6785,-3.6677,-3.66,-3.6523,-3.6492,-3.6492,-3.6492,-3.6492,-3.6492,-3.6492,-3.6492,-3.6492,-3.6492,-3.6492,-3.6492,-3.6492,-3.6492,-3.6492,-3.6492,-3.6492,-3.6492,-3.6492,-3.6492,-3.6492,-3.6492,-3.6492,-3.6492,-3.6492,-3.6492,-3.6492,-3.6492,-3.6492,-3.6492,-3.6492,-3.6876,-3.6514,-3.5529,-3.5529,-3.5529,-3.5529,-3.5529,-3.5529,-3.5529,-3.5529,-3.5529,-3.5561,-3.5879,-3.6006,-3.607,-3.6461,-3.66,-3.66]},{"header":{"parameterUnit":"m.s-1","parameterCategory":1,"la1":30.6,"la2":28.766,"lo1":-90.7593,"lo2":-88.6598,"dy":0.0162,"dx":0.0183,"nx":116,"ny":114,"refTime":"2023-07-12T12:00:00:Z","depth":0,"parameterNumber":3,"parameterNumberName":"V-component_of_WINDS"},"data":[0.0,0.0,0.0,0.0,0.0,0.0,0.0,0.0,0.0,0.0,0.0,0.0,0.0,0.0,0.0,0.0,0.0,0.0,0.0,0.0,0.0,0.0,0.0,0.0,0.0,0.0,0.0,0.0,0.0,0.0,0.0,0.0,0.0,0.0,0.0,0.0,0.0,0.0,0.0,0.0,0.0,0.0,0.0,0.0,0.0,0.0,0.0,0.0,0.0,0.0,0.0,0.0,0.0,0.0,0.0,0.0,0.0,0.0,0.0,0.0,0.0,0.0,0.0,0.0,0.0,0.0,0.0,0.0,0.0,0.0,0.0,0.0,0.0,0.0,0.0,0.0,0.0,0.0,0.0,0.0,0.0,0.0,0.0,0.0,0.0,0.0,0.0,0.0,0.0,0.0,0.0,0.0,0.0,0.0,0.0,0.0,0.0,0.0,0.0,0.0,0.0,0.0,0.0,0.0,0.0,0.0,0.0,0.0,0.0,0.0,0.0,0.0,0.0,0.0,0.0,0.0,0.0,0.0,0.0,0.0,0.0,0.0,0.0,0.0,0.0,0.0,0.0,0.0,0.0,0.0,0.0,0.0,0.0,0.0,0.0,0.0,0.0,0.0,0.0,0.0,0.0,0.0,0.0,0.0,0.0,0.0,0.0,0.0,0.0,0.0,0.0,0.0,0.0,0.0,0.0,0.0,0.0,0.0,0.0,0.0,0.0,0.0,0.0,0.0,0.0,0.0,0.0,0.0,0.0,0.0,0.0,0.0,0.0,0.0,0.0,0.0,0.0,0.0,0.0,0.0,0.0,0.0,0.0,0.0,0.0,0.0,0.0,0.0,0.0,0.0,0.0,0.0,0.0,0.0,0.0,0.0,0.0,0.0,0.0,0.0,0.0,0.0,0.0,0.0,0.0,0.0,0.0,0.0,0.0,0.0,0.0,0.0,0.0,0.0,0.0,0.0,0.0,0.0,0.0,0.0,0.0,0.0,0.0,0.0,0.0,0.0,0.0,0.0,0.0,0.0,0.0,0.0,0.0,0.0,0.0,0.0,0.0,0.0,0.0,0.0,0.0,0.0,0.0,0.0,0.0,0.0,0.0,0.0,0.0,0.0,0.0,0.0,0.0,0.0,0.0,0.0,0.0,0.0,0.0,0.0,0.0,0.0,0.0,0.0,0.0,0.0,0.0,0.0,0.0,0.0,0.0,0.0,0.0,0.0,0.0,0.0,0.0,0.0,0.0,0.0,0.0,0.0,0.0,0.0,0.0,0.0,0.0,0.0,0.0,0.0,0.0,0.0,0.0,0.0,0.0,0.0,0.0,0.0,0.0,0.0,0.0,0.0,0.0,0.0,0.0,0.0,0.0,0.0,0.0,0.0,0.0,0.0,0.0,0.0,0.0,0.0,0.0,0.0,0.0,0.0,0.0,0.0,0.0,0.0,0.0,0.0,0.0,0.0,0.0,0.0,0.0,0.0,0.0,0.0,0.0,0.0,0.0,0.0,0.0,0.0,0.0,0.0,0.0,0.0,0.0,0.0,0.0,0.0,0.0,0.0,0.0,0.0,0.0,0.0,0.0,0.0,0.0,0.0,0.0,0.0,0.0,0.0,0.0,0.0,0.0,0.0,0.0,0.0,0.0,0.0,0.0,0.0,0.0,0.0,0.0,0.0,0.0,0.0,0.0,0.0,0.0,0.0,0.0,0.0,0.0,0.0,0.0,0.0,0.0,0.0,0.0,0.0,0.0,0.0,0.0,0.0,0.0,0.0,0.0,0.0,0.0,0.0,0.0,0.0,0.0,0.0,0.0,0.0,0.0,0.0,0.0,0.0,0.0,0.0,0.0,0.0,0.0,0.0,0.0,0.0,0.0,0.0,0.0,0.0,0.0,0.0,0.0,0.0,0.0,0.0,0.0,0.0,0.0,0.0,0.0,0.0,0.0,0.0,0.0,0.0,0.0,0.0,0.0,0.0,0.0,0.0,0.0,0.0,0.0,0.0,0.0,0.0,0.0,0.0,0.0,0.0,0.0,0.0,0.0,0.0,0.0,0.0,0.0,0.0,0.0,0.0,0.0,0.0,0.0,0.0,0.0,0.0,0.0,0.0,0.0,0.0,0.0,0.0,0.0,0.0,0.0,0.0,0.0,0.0,0.0,0.0,0.0,0.0,0.0,0.0,0.0,0.0,0.0,0.0,0.0,0.0,0.0,0.0,0.0,0.0,0.0,0.0,0.0,0.0,0.0,0.0,0.0,0.0,0.0,0.0,0.0,0.0,0.0,0.0,0.0,0.0,0.0,0.0,0.0,0.0,0.0,0.0,0.0,0.0,0.0,0.0,0.0,0.0,0.0,0.0,0.0,0.0,0.0,0.0,0.0,0.0,0.0,0.0,0.0,0.0,0.0,0.0,0.0,0.0,0.0,0.0,0.0,0.0,0.0,0.0,0.0,0.0,0.0,0.0,0.0,0.0,0.0,0.0,0.0,0.0,0.0,0.0,0.0,0.0,0.0,0.0,0.0,0.0,0.0,0.0,0.0,0.0,0.0,0.0,0.0,0.0,0.0,0.0,0.0,0.0,0.0,0.0,0.0,0.0,0.0,0.0,0.0,0.0,0.0,0.0,0.0,0.0,0.0,0.0,0.0,0.0,0.0,0.0,0.0,0.0,0.0,0.0,0.0,0.0,0.0,0.0,0.0,0.0,0.0,0.0,0.0,0.0,0.0,0.0,0.0,0.0,0.0,0.0,0.0,0.0,0.0,0.0,0.0,0.0,0.0,0.0,0.0,0.0,0.0,0.0,0.0,0.0,0.0,0.0,0.0,0.0,0.0,0.0,0.0,0.0,0.0,0.0,0.0,0.0,0.0,0.0,0.0,0.0,0.0,0.0,0.0,0.0,0.0,0.0,0.0,0.0,0.0,0.0,0.0,0.0,0.0,0.0,0.0,0.0,0.0,0.0,0.0,0.0,0.0,0.0,0.0,0.0,0.0,0.0,0.0,0.0,0.0,0.0,0.0,0.0,0.0,0.0,0.0,0.0,0.0,0.0,0.0,0.0,0.0,0.0,0.0,0.0,0.0,0.0,0.0,0.0,0.0,0.0,0.0,0.0,0.0,0.0,0.0,0.0,0.0,0.0,0.0,0.0,0.0,0.0,0.0,0.0,0.0,0.0,0.0,0.0,0.0,0.0,0.0,0.0,0.0,0.0,0.0,0.0,0.0,0.0,0.0,0.0,0.0,0.0,0.0,0.0,0.0,0.0,0.0,0.0,0.0,0.0,0.0,0.0,0.0,0.0,0.0,0.0,0.0,0.0,0.0,0.0,0.0,0.0,0.0,0.0,0.0,0.0,0.0,0.0,0.0,0.0,0.0,0.0,0.0,0.0,0.0,0.0,0.0,0.0,0.0,0.0,0.0,0.0,0.0,0.0,0.0,0.0,0.0,0.0,0.0,0.0,0.0,0.0,0.0,0.0,0.0,0.0,0.0,0.0,0.0,0.0,0.0,0.0,0.0,0.0,0.0,0.0,0.0,0.0,0.0,0.0,0.0,0.0,0.0,0.0,0.0,0.0,0.0,0.0,0.0,0.0,0.0,0.0,0.0,0.0,0.0,0.0,0.0,0.0,0.0,0.0,0.0,0.0,0.0,0.0,0.0,0.0,0.0,0.0,0.0,0.0,0.0,0.0,0.0,0.0,0.0,0.0,0.0,0.0,0.0,0.0,0.0,0.0,0.0,0.0,0.0,0.0,0.0,0.0,0.0,0.0,0.0,0.0,0.0,0.0,0.0,0.0,0.0,0.0,0.0,0.0,0.0,0.0,0.0,0.0,0.0,0.0,0.0,0.0,0.0,0.0,0.0,0.0,0.0,0.0,0.0,0.0,0.0,0.0,0.0,0.0,0.0,0.0,0.0,0.0,0.0,0.0,0.0,0.0,0.0,0.0,0.0,0.0,0.0,0.0,0.0,0.0,0.0,0.0,0.0,0.0,0.0,0.0,0.0,0.0,0.0,0.0,0.0,0.0,0.0,0.0,0.0,0.0,0.0,0.0,0.0,0.0,0.0,0.0,0.0,0.0,0.0,0.0,0.0,0.0,0.0,0.0,0.0,0.0,0.0,0.0,0.0,0.0,0.0,0.0,0.0,0.0,0.0,0.0,0.0,0.0,0.0,0.0,0.0,0.0,0.0,0.0,0.0,0.0,0.0,0.0,0.0,0.0,0.0,0.0,0.0,0.0,0.0,0.0,0.0,0.0,0.0,0.0,0.0,0.0,0.0,0.0,0.0,0.0,0.0,0.0,0.0,0.0,0.0,0.0,0.0,0.0,0.0,0.0,0.0,0.0,0.0,0.0,0.0,0.0,0.0,0.0,0.0,0.0,0.0,0.0,0.0,0.0,0.0,0.0,0.0,0.0,0.0,0.0,0.0,0.0,0.0,0.0,0.0,0.0,0.0,0.0,0.0,0.0,0.0,0.0,0.0,0.0,0.0,0.0,0.0,0.0,0.0,0.0,0.0,0.0,0.0,0.0,0.0,0.0,0.0,0.0,0.0,0.0,0.0,0.0,0.0,0.0,0.0,0.0,0.0,0.0,0.0,0.0,0.0,0.0,0.0,0.0,0.0,0.0,0.0,0.0,0.0,0.0,0.0,0.0,0.0,0.0,0.0,0.0,0.0,0.0,0.0,0.0,0.0,0.0,0.0,0.0,0.0,0.0,0.0,0.0,0.0,0.0,0.0,0.0,0.0,0.0,0.0,0.0,0.0,0.0,0.0,0.0,0.0,0.0,0.0,0.0,0.0,0.0,0.0,0.0,0.0,0.0,0.0,0.0,0.0,0.0,0.0,0.0,0.0,0.0,0.0,0.0,0.0,0.0,0.0,0.0,0.0,0.0,0.0,0.0,0.0,0.0,0.0,0.0,0.0,0.0,0.0,0.0,0.0,0.0,0.0,0.0,0.0,0.0,0.0,0.0,0.0,0.0,0.0,0.0,0.0,0.0,0.0,0.0,0.0,0.0,0.0,0.0,0.0,0.0,0.0,0.0,0.0,0.0,0.0,0.0,0.0,0.0,0.0,0.0,0.0,0.0,0.0,0.0,0.0,0.0,0.0,0.0,0.0,0.0,0.0,0.0,0.0,0.0,0.0,0.0,0.0,0.0,0.0,0.0,0.0,0.0,0.0,0.0,0.0,0.0,0.0,0.0,0.0,0.0,0.0,0.0,0.0,0.0,0.0,0.0,0.0,0.0,0.0,0.0,0.0,0.0,0.0,0.0,0.0,0.0,0.0,0.0,0.0,0.0,0.0,0.0,0.0,0.0,0.0,0.0,0.0,0.0,0.0,0.0,0.0,0.0,0.0,0.0,0.0,0.0,0.0,0.0,0.0,0.0,0.0,0.0,0.0,0.0,0.0,0.0,0.0,0.0,0.0,0.0,0.0,0.0,0.0,0.0,0.0,0.0,0.0,0.0,0.0,0.0,0.0,0.0,0.0,0.0,0.0,0.0,0.0,0.0,0.0,0.0,0.0,0.0,0.0,0.0,0.0,0.0,0.0,0.0,0.0,0.0,0.0,0.0,0.0,0.0,0.0,0.0,0.0,0.0,0.0,0.0,0.0,0.0,0.0,0.0,0.0,0.0,0.0,0.0,0.0,0.0,0.0,0.0,0.0,0.0,0.0,0.0,0.0,0.0,0.0,0.0,0.0,0.0,0.0,0.0,0.0,0.0,0.0,0.0,0.0,0.0,0.0,0.0,0.0,0.0,0.0,0.0,0.0,0.0,0.0,0.0,0.0,0.0,0.0,0.0,0.0,0.0,0.0,0.0,0.0,0.0,0.0,0.0,0.0,0.0,0.0,0.0,0.0,0.0,0.0,0.0,0.0,0.0,0.0,0.0,0.0,0.0,0.0,0.0,0.0,0.0,0.0,0.0,0.0,0.0,0.0,0.0,0.0,0.0,0.0,0.0,0.0,0.0,0.0,0.0,0.0,0.0,0.0,0.0,0.0,0.0,0.0,0.0,0.0,0.0,0.0,0.0,0.0,0.0,0.0,0.0,0.0,0.0,0.0,0.0,0.0,0.0,0.0,0.0,0.0,0.0,0.0,0.0,0.0,0.0,0.0,0.0,-2.6228,0.0,0.0,0.0,0.0,0.0,0.0,0.0,0.0,0.0,0.0,0.0,0.0,0.0,0.0,0.0,0.0,0.0,0.0,0.0,0.0,0.0,0.0,0.0,0.0,0.0,0.0,0.0,0.0,0.0,0.0,0.0,0.0,0.0,0.0,0.0,0.0,0.0,0.0,0.0,0.0,0.0,0.0,0.0,0.0,0.0,0.0,0.0,0.0,0.0,0.0,0.0,0.0,0.0,0.0,0.0,0.0,0.0,0.0,0.0,0.0,0.0,0.0,0.0,0.0,0.0,0.0,0.0,0.0,0.0,0.0,0.0,0.0,0.0,0.0,0.0,0.0,0.0,0.0,0.0,0.0,0.0,0.0,0.0,0.0,0.0,0.0,0.0,0.0,0.0,0.0,0.0,0.0,0.0,0.0,0.0,0.0,0.0,0.0,0.0,0.0,0.0,0.0,0.0,0.0,0.0,0.0,0.0,0.0,0.0,0.0,0.0,0.0,0.0,0.0,0.0,0.0,-2.7944,0.0,0.0,0.0,0.0,0.0,0.0,0.0,0.0,0.0,0.0,0.0,0.0,0.0,0.0,0.0,0.0,0.0,0.0,0.0,0.0,0.0,0.0,0.0,0.0,0.0,0.0,0.0,0.0,0.0,0.0,0.0,0.0,0.0,0.0,0.0,0.0,0.0,0.0,0.0,0.0,0.0,0.0,0.0,0.0,0.0,0.0,0.0,0.0,0.0,0.0,0.0,0.0,0.0,0.0,0.0,0.0,0.0,0.0,0.0,0.0,0.0,0.0,0.0,0.0,0.0,0.0,0.0,0.0,0.0,0.0,0.0,0.0,0.0,0.0,0.0,0.0,0.0,0.0,0.0,0.0,0.0,0.0,0.0,0.0,0.0,0.0,0.0,0.0,0.0,0.0,0.0,0.0,0.0,0.0,0.0,0.0,0.0,0.0,0.0,0.0,0.0,0.0,0.0,0.0,0.0,0.0,0.0,0.0,-3.4854,-3.5332,-3.5847,-3.5792,-3.5827,-3.5809,-3.3546,-3.1967,-3.1026,-3.1441,0.0,0.0,0.0,0.0,0.0,0.0,0.0,0.0,0.0,0.0,0.0,0.0,0.0,0.0,0.0,0.0,0.0,0.0,0.0,0.0,0.0,0.0,0.0,0.0,0.0,0.0,0.0,0.0,0.0,0.0,0.0,0.0,0.0,0.0,0.0,0.0,0.0,0.0,-3.2426,-3.3139,-3.3695,-3.3946,-3.077,0.0,0.0,0.0,0.0,0.0,0.0,0.0,0.0,0.0,0.0,0.0,0.0,0.0,0.0,0.0,0.0,0.0,0.0,0.0,0.0,0.0,0.0,0.0,0.0,0.0,0.0,0.0,0.0,0.0,0.0,0.0,0.0,0.0,0.0,0.0,0.0,0.0,0.0,0.0,0.0,0.0,0.0,0.0,-2.6069,-2.6451,0.0,0.0,0.0,0.0,0.0,0.0,0.0,0.0,0.0,0.0,0.0,0.0,0.0,-3.3614,-3.4517,-3.6537,-3.7336,-3.6856,-3.9008,-3.974,-3.9171,-3.8936,-3.913,-3.9669,-3.937,0.0,-3.33,-3.2629,0.0,0.0,0.0,0.0,0.0,0.0,0.0,0.0,0.0,0.0,0.0,0.0,0.0,0.0,0.0,0.0,0.0,0.0,0.0,0.0,0.0,0.0,0.0,0.0,0.0,0.0,0.0,0.0,0.0,0.0,0.0,0.0,0.0,0.0,0.0,0.0,-3.0705,-3.2901,-3.4702,-3.5882,-3.6796,-3.7419,-3.5335,-3.3983,-3.306,-3.1372,0.0,0.0,0.0,0.0,0.0,0.0,0.0,0.0,0.0,0.0,0.0,0.0,0.0,0.0,0.0,0.0,0.0,0.0,0.0,0.0,0.0,0.0,0.0,0.0,0.0,0.0,0.0,0.0,0.0,0.0,0.0,0.0,0.0,0.0,0.0,0.0,0.0,0.0,0.0,-2.6941,-2.829,-2.7824,-2.9152,-2.9814,0.0,0.0,0.0,0.0,0.0,0.0,0.0,0.0,0.0,-3.5208,-3.6095,-3.7357,-3.9027,-4.0099,-4.1134,-4.2074,-4.3166,-4.374,-4.3829,-4.3721,-4.3584,-4.3456,-4.3478,-4.1869,-3.9121,-3.7338,-3.5188,-3.2984,0.0,0.0,0.0,0.0,-3.1423,-3.1223,0.0,0.0,0.0,0.0,0.0,0.0,0.0,0.0,0.0,0.0,0.0,0.0,0.0,0.0,0.0,-2.7079,0.0,0.0,0.0,0.0,0.0,0.0,0.0,0.0,0.0,0.0,0.0,0.0,-3.3553,-3.5777,-3.7417,-3.8907,-3.9984,-4.0674,-4.0299,-3.8515,-3.5649,-3.3885,-3.2626,0.0,0.0,0.0,0.0,0.0,0.0,0.0,0.0,0.0,0.0,0.0,0.0,0.0,0.0,0.0,0.0,0.0,0.0,0.0,0.0,0.0,0.0,0.0,0.0,0.0,0.0,0.0,0.0,0.0,0.0,0.0,0.0,0.0,0.0,0.0,0.0,0.0,0.0,-2.8493,-2.998,-2.8827,-3.0758,-3.1701,0.0,0.0,0.0,0.0,0.0,0.0,-3.4005,-3.5811,-3.748,-3.8864,-3.9957,-4.1457,-4.3415,-4.3675,-4.4678,-4.6409,-4.6605,-4.6908,-4.7324,-4.7324,-4.6855,-4.6105,-4.6105,-4.5338,-4.3872,-4.1205,-3.8373,-3.5663,-3.524,-3.4081,-3.2769,-3.3726,-3.363,-3.3363,0.0,0.0,0.0,0.0,0.0,0.0,0.0,0.0,0.0,0.0,0.0,0.0,0.0,0.0,-2.7179,-3.0042,-2.9102,-2.8624,0.0,0.0,0.0,0.0,0.0,0.0,0.0,0.0,0.0,-3.3783,-3.6605,-3.9046,-4.1177,-4.2638,-4.3727,-4.444,-4.5102,-4.3501,-4.0084,-3.7203,-3.5242,-3.3918,0.0,0.0,0.0,0.0,0.0,0.0,0.0,0.0,0.0,0.0,0.0,0.0,0.0,0.0,0.0,0.0,0.0,0.0,0.0,0.0,0.0,0.0,0.0,0.0,0.0,0.0,0.0,0.0,0.0,0.0,0.0,0.0,0.0,0.0,0.0,0.0,0.0,0.0,0.0,-2.9149,-3.2092,0.0,0.0,0.0,0.0,-3.4677,-3.62,-3.7405,-3.8169,-4.0501,-4.2199,-4.2981,-4.4599,-4.5873,-4.6748,-4.7538,-4.7966,-4.8091,-4.88,-4.8782,-4.8145,-4.8145,-4.7699,-4.6926,-4.6926,-4.6462,-4.5445,-4.2237,-4.0379,-3.9363,-3.7777,-3.6816,-3.6325,-3.6187,-3.5805,-3.5442,0.0,0.0,0.0,0.0,0.0,0.0,0.0,0.0,0.0,0.0,0.0,0.0,0.0,-2.6882,-2.8771,-3.1653,-3.1885,-3.179,-3.1537,0.0,0.0,0.0,0.0,0.0,0.0,0.0,-3.3497,-3.6705,-3.957,-4.1856,-4.3545,-4.4556,-4.5152,-4.5417,-4.5682,-4.51,-4.3767,-4.0895,-3.9135,-3.7936,-3.418,-3.1938,0.0,0.0,0.0,0.0,0.0,0.0,0.0,0.0,0.0,0.0,0.0,0.0,0.0,0.0,0.0,0.0,0.0,0.0,0.0,0.0,0.0,0.0,0.0,0.0,0.0,0.0,0.0,0.0,0.0,0.0,0.0,0.0,0.0,0.0,0.0,0.0,0.0,-3.5119,-3.7648,0.0,-3.7633,-3.7544,-3.7898,-3.8736,-3.9842,-4.1055,-4.2278,-4.4217,-4.5655,-4.644,-4.7492,-4.8443,-4.9246,-4.9531,-4.9942,-5.0466,-5.0727,-5.0709,-5.0441,-5.0441,-4.9727,-4.8496,-4.8496,-4.7747,-4.6422,-4.4408,-4.2842,-4.1603,-4.0274,-3.938,-3.8856,-3.8923,-3.8505,-3.8028,0.0,0.0,0.0,0.0,0.0,0.0,0.0,0.0,0.0,0.0,0.0,-2.41,-2.6336,-2.8307,-3.0642,-3.3557,-3.3829,-3.3497,-3.2752,0.0,0.0,0.0,0.0,0.0,0.0,-3.3044,-3.6108,-3.9288,-4.2204,-4.4241,-4.545,-4.6195,-4.6527,-4.656,-4.7057,-4.7156,-4.6758,-4.4663,-4.2484,-4.0153,-3.6595,-3.466,-3.3621,0.0,0.0,0.0,0.0,0.0,0.0,0.0,0.0,0.0,0.0,0.0,0.0,0.0,0.0,0.0,0.0,0.0,0.0,0.0,0.0,0.0,0.0,0.0,0.0,0.0,0.0,0.0,0.0,0.0,0.0,0.0,0.0,0.0,0.0,0.0,-3.8563,-3.923,-4.173,-4.2942,-4.1813,-4.1721,-4.1955,-4.2512,-4.359,-4.4684,-4.5695,-4.7296,-4.8425,-4.8966,-4.971,-5.037,-5.0905,-5.0905,-5.1173,-5.169,-5.169,-5.1547,-5.1298,-5.1298,-5.0584,-4.9293,-4.9293,-4.8586,-4.7308,-4.6035,-4.4883,-4.3816,-4.2516,-4.1537,-4.0849,-4.1172,-4.0735,-4.0067,0.0,0.0,0.0,0.0,0.0,0.0,0.0,0.0,0.0,0.0,-2.3106,-2.4878,-2.7116,-2.9947,-3.2839,-3.5777,-3.4651,-3.3491,-3.2785,-3.0,0.0,0.0,0.0,0.0,-3.1714,-3.6034,-3.9355,-4.1558,-4.4423,-4.6212,-4.6974,-4.7703,-4.805,-4.8133,-4.9607,-4.9856,-4.9127,-4.8465,-4.5268,-4.0625,-3.9777,-3.7844,-3.5241,0.0,0.0,0.0,0.0,0.0,0.0,0.0,0.0,0.0,0.0,0.0,0.0,0.0,0.0,0.0,0.0,0.0,0.0,0.0,0.0,0.0,0.0,0.0,0.0,0.0,0.0,0.0,0.0,0.0,0.0,0.0,0.0,0.0,-3.5101,-3.8184,-4.0643,-4.1109,-4.3952,-4.5241,-4.3697,-4.4903,-4.5855,-4.5945,-4.7372,-4.8288,-4.8306,-4.9727,-5.0548,-5.0548,-5.128,-5.169,-5.169,-5.169,-5.169,-5.169,-5.169,-5.128,-5.0548,-5.0548,-5.0102,-4.9329,-4.9329,-4.8925,-4.8164,-4.7021,-4.6447,-4.6074,-4.4441,-4.318,-4.232,-4.2817,-4.2349,-4.1413,0.0,0.0,0.0,0.0,0.0,0.0,0.0,0.0,0.0,0.0,-2.3553,-2.5839,-2.8539,-3.1437,-3.417,-3.6605,-3.4965,-3.3707,-3.3508,0.0,0.0,0.0,0.0,0.0,-3.5512,-3.8344,-4.1359,-4.4589,-4.593,-4.7255,-4.8514,-4.8713,-4.9094,-4.9657,-5.0568,-5.0866,-5.0734,-5.1578,-5.022,-4.7073,-4.2116,-4.0037,-3.9411,0.0,0.0,0.0,0.0,0.0,0.0,0.0,0.0,0.0,0.0,0.0,0.0,0.0,0.0,0.0,0.0,0.0,0.0,0.0,0.0,0.0,0.0,0.0,0.0,0.0,0.0,0.0,0.0,0.0,0.0,0.0,0.0,-3.8875,-3.927,-4.214,-4.4915,-4.6758,-4.8283,-4.9002,-4.8556,-4.8396,-4.8556,-4.9174,-4.962,-5.012,-5.0691,-5.1137,-5.1369,-5.1369,-5.1583,-5.169,-5.169,-5.169,-5.169,-5.169,-5.169,-5.1583,-5.1369,-5.1369,-5.0923,-5.0174,-5.0174,-4.9727,-4.8948,-4.8229,-4.7648,-4.6982,-4.4574,-4.3737,-4.3821,-4.3541,-4.291,-4.2109,0.0,0.0,0.0,0.0,0.0,0.0,0.0,0.0,0.0,0.0,-2.4,-2.6319,-2.829,-3.1388,-3.3856,-3.5148,-3.4071,-3.2945,-3.2017,0.0,0.0,0.0,0.0,-3.4137,-3.793,-4.0464,-4.323,-4.6245,-4.7305,-4.858,-5.0021,-5.0336,-5.0701,-5.1148,-5.186,-5.2009,-5.1829,-5.2622,-5.2258,-5.0734,-4.6295,-4.4265,-4.3386,-3.8559,-3.7253,-3.7636,-3.5111,-3.4821,-3.5328,-3.3074,0.0,0.0,0.0,0.0,0.0,0.0,0.0,0.0,0.0,0.0,0.0,0.0,0.0,0.0,0.0,0.0,0.0,0.0,0.0,0.0,0.0,0.0,0.0,0.0,-4.0782,-4.2697,-4.4711,-4.6394,-4.8021,-4.9608,-5.0816,-5.1369,-5.103,-5.0584,-5.0637,-5.144,-5.1191,-5.1351,-5.2154,-5.1869,-5.169,-5.169,-5.169,-5.169,-5.169,-5.169,-5.169,-5.169,-5.169,-5.169,-5.169,-5.169,-5.144,-5.0994,-5.0994,-5.0407,-4.9369,-4.8837,-4.8082,-4.7056,0.0,0.0,0.0,0.0,-4.3317,-4.2886,0.0,0.0,0.0,0.0,0.0,0.0,0.0,0.0,0.0,0.0,0.0,-2.6369,-2.71,-3.0265,-3.2348,-3.2431,-3.2321,-3.1371,0.0,0.0,0.0,-3.0919,-3.3822,-3.6771,-3.973,-4.2452,-4.4903,-4.7023,-4.8431,-4.9806,-5.1199,-5.2028,-5.2409,-5.2442,-5.3202,-5.3152,-5.2506,-5.2589,-5.2572,-5.239,-5.1098,-4.9244,-4.6849,-4.2691,-4.1527,-4.1755,-3.8872,-3.7528,-3.6894,-3.5332,0.0,0.0,0.0,0.0,0.0,0.0,0.0,0.0,0.0,0.0,0.0,0.0,0.0,0.0,0.0,0.0,0.0,0.0,0.0,0.0,0.0,0.0,0.0,0.0,-4.4108,-4.6621,-5.0363,-5.0614,-5.0547,-5.0855,-5.2065,-5.2626,-5.1886,-5.1744,-5.1993,-5.2715,-5.2197,-5.2101,-5.2733,0.0,0.0,0.0,0.0,-5.169,-5.169,-5.169,-5.169,-5.169,-5.169,-5.169,-5.169,-5.169,-5.169,-5.169,-5.164,-5.0915,-4.9802,-4.9163,-4.806,-4.6663,-4.6394,-4.5603,-4.4489,-4.383,-4.3598,-4.3598,0.0,0.0,0.0,0.0,0.0,0.0,0.0,0.0,0.0,-2.1463,-2.372,-2.559,-2.6336,-2.8588,-3.0294,-3.087,-2.988,-2.9055,0.0,0.0,-3.1288,-3.3938,-3.6895,-3.9785,-4.2717,-4.4489,-4.6162,-4.7785,-4.868,-4.9558,-5.0452,-5.1761,-5.2409,-5.2475,-5.3732,-5.3897,-5.3251,-5.3848,-5.3765,-5.3185,-5.2904,-5.1148,-4.8415,-4.5763,-4.45,-4.3833,-4.1465,-4.1316,-4.1896,-3.9914,-3.9159,-3.8792,-3.731,0.0,0.0,0.0,0.0,0.0,0.0,0.0,0.0,0.0,0.0,0.0,0.0,0.0,0.0,0.0,0.0,0.0,0.0,0.0,0.0,-4.5493,-4.8408,-5.1005,-5.3038,-5.3806,-5.3958,-5.3395,-5.3064,-5.284,-5.2697,-5.2065,-5.1762,-5.1904,-5.2394,-5.2465,-5.1958,-5.2411,-5.2376,-5.1708,-5.169,-5.169,-5.169,-5.169,-5.169,-5.169,-5.169,0.0,-5.169,-5.169,-5.169,-5.1665,-5.1193,-5.1105,-5.1195,-5.0067,-4.846,-4.657,-4.5462,-4.4547,-4.378,-4.3648,-4.3598,-4.3598,0.0,0.0,0.0,0.0,0.0,0.0,0.0,0.0,0.0,0.0,-2.3162,-2.4629,-2.4872,-2.6644,-2.7791,-2.7791,-2.7147,0.0,0.0,-3.0593,-3.3243,-3.6945,-3.9537,-4.2088,-4.4655,-4.5781,-4.6891,-4.8001,-4.9127,-5.0038,-5.0767,-5.2224,-5.3102,-5.3483,-5.4195,-5.449,-5.449,-5.449,-5.4311,-5.393,-5.3566,-5.2556,-5.1015,-4.8829,-4.7305,-4.6096,-4.4257,-4.3843,-4.381,-4.1664,-4.1443,-4.1626,-3.9185,-3.7177,-3.5278,0.0,0.0,0.0,0.0,0.0,0.0,0.0,0.0,0.0,0.0,0.0,0.0,0.0,0.0,-3.7613,0.0,0.0,-4.6224,-4.8792,-5.0962,-5.2832,-5.4376,-5.4955,-5.4759,-5.3581,-5.3457,-5.3153,-5.2368,-5.1922,-5.1869,-5.2261,-5.2304,-5.2304,-5.2304,-5.2304,-5.2126,-5.1708,-5.169,-5.169,-5.169,-5.169,-5.169,-5.169,-5.169,-5.169,-5.169,-5.169,-5.169,-5.1672,-5.0941,-5.0488,-5.0152,-4.8863,-4.7518,-4.619,-4.5521,-4.4572,-4.3598,-4.3598,-4.3598,-4.3598,0.0,0.0,0.0,0.0,0.0,0.0,0.0,0.0,0.0,0.0,-2.2525,-2.3572,-2.321,-2.4593,-2.5325,0.0,0.0,0.0,0.0,-3.1951,-3.5188,-3.9332,-4.1707,-4.3843,-4.5748,-4.651,-4.7255,-4.8001,-4.9491,-5.0502,-5.1098,-5.2672,-5.3665,-5.4113,-5.4245,-5.456,-5.4957,-5.4456,-5.4311,-5.4208,-5.3649,-5.3417,-5.3185,-5.1181,-4.9591,-4.8216,-4.6593,-4.5282,-4.4022,-4.222,-4.2237,-4.2564,-4.0126,-3.8956,-3.791,-3.4889,-3.3019,0.0,0.0,0.0,0.0,0.0,0.0,0.0,0.0,0.0,-3.5555,-3.6984,-3.9043,-4.1398,-4.4106,-4.6923,-4.9525,-5.1645,-5.2888,-5.3992,-5.5259,-5.5312,-5.4688,-5.326,-5.3653,-5.3502,-5.2261,-5.1869,-5.1958,-5.2626,-5.2215,-5.2136,-5.2643,-5.219,-5.1851,-5.169,-5.169,-5.169,-5.169,-5.169,-5.164,-5.1538,-5.164,-5.164,-5.1521,-5.164,-5.164,-5.1485,-5.07,-4.9704,-4.8567,-4.7505,-4.657,-4.5798,-4.5798,-4.4986,-4.378,-4.3648,-4.3598,-4.3598,0.0,0.0,0.0,0.0,0.0,0.0,0.0,0.0,0.0,0.0,0.0,0.0,0.0,0.0,0.0,0.0,0.0,0.0,0.0,-3.3673,-3.7019,-4.0144,-4.2978,-4.487,-4.5765,-4.651,-4.7255,-4.8001,-4.9491,-5.0253,-5.0386,-5.244,-5.3135,-5.2638,-5.3268,-5.3251,-5.2771,-5.3318,-5.3533,-5.3533,-5.345,-5.3417,-5.3251,-5.1728,-5.0667,-4.969,-4.7537,-4.5114,-4.2879,-4.2514,-4.1697,-4.11,-4.2547,-4.1282,-3.8949,-3.7394,0.0,-3.192,-3.1151,-3.0957,-3.1597,-3.4258,-3.4454,-3.5086,0.0,0.0,-4.1546,-4.3249,-4.5159,-4.6949,-4.8292,-5.0333,-5.2236,-5.3521,-5.5,-5.6062,-5.624,-5.5651,-5.4884,-5.3966,-5.3948,-5.393,-5.3752,-5.2493,-5.1726,-5.1815,-5.2429,-5.2501,-5.1869,-5.2447,-5.2447,-5.1708,-5.169,-5.169,-5.169,-5.169,-5.1418,-5.0928,-5.1444,-5.1418,-5.0928,-5.1444,-5.1418,-5.0857,-5.0178,-4.9189,-4.8061,-4.7799,-4.694,-4.5798,-4.5798,-4.5284,-4.4489,-4.383,-4.3598,-4.3598,0.0,0.0,0.0,0.0,0.0,0.0,0.0,0.0,0.0,0.0,0.0,0.0,0.0,0.0,0.0,0.0,0.0,0.0,-3.0823,-3.3783,-3.7235,-4.1442,-4.3595,-4.5235,-4.6411,-4.6742,-4.7471,-4.8647,-4.9707,-5.0419,-5.0866,-5.2191,-5.287,-5.297,-5.287,-5.3119,-5.3599,-5.3053,-5.3301,-5.398,-5.3152,-5.2821,-5.2605,-5.0734,-4.8763,-4.6758,-4.5078,-4.3161,0.0,0.0,-3.9528,-4.0513,-4.0475,-3.9972,-3.8966,-3.6785,-3.5408,0.0,-3.4197,-3.4097,0.0,0.0,-3.7461,-3.92,-4.1967,-4.3456,-4.4818,-4.6697,-4.8374,-4.9898,-5.1264,-5.2865,-5.4314,0.0,-5.5955,-5.624,-5.5776,-5.5419,-5.4741,-5.351,-5.2957,-5.2671,-5.2671,-5.2083,-5.169,-5.169,-5.1993,-5.2047,-5.1708,-5.2011,-5.2054,-5.1708,-5.169,-5.1521,-5.1167,-5.1983,-5.1862,-5.082,-5.188,-5.2034,-5.1341,-5.1219,-5.0584,-4.9528,-4.8895,-4.8348,-4.7812,-4.7417,-4.6945,-4.6444,-4.6444,-4.598,-4.5235,-4.4506,-4.4241,-4.4191,0.0,0.0,0.0,0.0,0.0,0.0,0.0,0.0,0.0,0.0,0.0,0.0,0.0,0.0,0.0,0.0,0.0,0.0,0.0,0.0,0.0,0.0,-4.2999,0.0,-4.6245,-4.6692,-4.762,-4.911,-4.9856,-5.0585,-5.1315,-5.1862,-5.234,-5.2788,-5.2092,-5.2357,-5.3284,-5.244,-5.2672,-5.3533,-5.2489,-5.1862,-5.1214,-4.8812,-4.593,-4.3094,-4.2119,-4.0473,0.0,0.0,-3.642,-3.7778,-3.7236,-3.7344,-3.7353,-3.5964,-3.5857,-3.6165,-3.6014,0.0,0.0,-3.8143,-4.0602,-4.311,-4.4547,-4.6186,-4.7829,-4.9509,-5.0906,-5.2159,-5.3257,-5.4248,-5.5062,-5.5651,-5.5919,-5.5794,-5.4991,-5.4706,-5.3992,-5.2404,-5.1333,-5.0727,-5.0727,-5.1119,-5.1458,-5.1672,-5.169,-5.169,-5.169,-5.169,-5.164,-5.1444,-5.1828,-5.1738,-5.1119,-5.2306,-5.2306,-5.1119,-5.1918,-5.1925,-5.1175,-5.055,-4.9705,-4.8728,-4.8122,-4.7816,-4.7737,-4.7364,-4.7073,-4.6924,-4.7123,-4.6626,-4.5748,-4.5417,-4.5052,-4.4528,0.0,0.0,0.0,0.0,0.0,0.0,0.0,0.0,0.0,0.0,0.0,0.0,0.0,0.0,0.0,0.0,0.0,0.0,0.0,0.0,0.0,0.0,0.0,-4.3264,-4.4721,-4.6162,-4.762,-4.911,-4.9856,-5.0585,-5.1315,-5.1332,-5.1348,-5.1348,-5.0601,-5.0303,-5.0386,-5.1032,-5.1365,-5.1398,-5.1365,-5.0469,-4.8895,-4.5947,-4.2614,-3.9464,-3.9478,0.0,0.0,0.0,-3.2294,-3.162,-3.3601,-3.3762,0.0,-3.582,-3.606,0.0,0.0,0.0,-3.8922,-4.0956,-4.3584,-4.6078,-4.7536,-4.9518,-5.1248,-5.2027,-5.3207,-5.4092,-5.4144,-5.4105,-5.4037,-5.4073,-5.4741,-5.4973,-5.4144,-5.3421,-5.2376,-5.0762,-4.9228,-4.8306,0.0,-4.9656,-5.0869,-5.1637,-5.169,-5.169,-5.169,-5.169,-5.1418,-5.0847,-5.2164,-5.2537,-5.1856,-5.2555,-5.2555,-5.1856,-5.1199,-5.0512,-4.9833,-4.9231,-4.8927,-4.8849,-4.8242,-4.8,-4.8,-4.7968,-4.7554,-4.6974,-4.7686,-4.7073,-4.5864,-4.6576,-4.5853,-4.4408,0.0,0.0,0.0,0.0,0.0,0.0,0.0,0.0,0.0,0.0,0.0,0.0,0.0,0.0,0.0,0.0,0.0,0.0,0.0,0.0,0.0,0.0,0.0,0.0,-4.1806,-4.287,-4.4301,-4.6241,-4.6943,-4.7679,-4.84,-4.8859,-4.9094,-4.9094,-4.8845,-4.9011,-4.9458,-4.921,-4.9392,-4.9707,-4.8233,-4.704,-4.5798,-4.2472,-3.9229,-3.6231,0.0,0.0,0.0,0.0,0.0,0.0,-3.0985,0.0,0.0,-3.4481,-3.5661,-3.6602,0.0,0.0,-4.252,-4.4597,-4.6558,-4.8497,-5.0407,-5.1796,-5.2663,-5.274,-5.2736,-5.2484,-5.1856,-5.1699,-5.1851,-5.2386,-5.3153,-5.3564,-5.3296,-5.3046,-5.1929,-4.9305,-4.8942,0.0,0.0,0.0,0.0,-5.0816,-5.0905,-5.1369,-5.2447,-5.1625,-5.1466,-5.225,-5.2242,-5.2182,-5.2027,-5.319,-5.2927,-5.1292,-5.0517,-4.9792,-4.9201,-4.9006,-4.8413,-4.7606,-4.7883,-4.7438,-4.6576,-4.7073,-4.6841,-4.6228,-4.6974,-4.6659,-4.5881,-4.6626,-4.5886,-4.4474,0.0,0.0,0.0,0.0,0.0,0.0,0.0,0.0,0.0,0.0,0.0,0.0,0.0,0.0,0.0,0.0,0.0,0.0,0.0,0.0,0.0,0.0,0.0,0.0,0.0,-3.8869,-4.0201,-4.2067,-4.2732,-4.3428,-4.4156,-4.4543,-4.475,-4.475,-4.4924,-4.525,-4.5693,-4.5404,-4.54,-4.545,-4.3761,-4.2319,-4.0906,-3.8074,-3.5343,0.0,0.0,0.0,0.0,0.0,0.0,0.0,0.0,-3.0746,-3.2592,-3.4317,-3.5986,-3.7935,0.0,-4.3165,-4.5142,-4.7503,-4.9193,-5.0573,-5.1682,-5.2102,-5.2031,-5.1222,-5.0452,-4.9598,-4.8654,-4.8212,-4.8443,-4.9799,-5.0441,-5.109,-5.1904,-5.2029,-5.1173,-4.8871,-4.8782,-4.8514,0.0,0.0,0.0,-5.0388,-5.078,-5.1419,-5.2475,-5.1678,-5.1658,-5.2654,-5.2698,-5.266,-5.2524,-5.3643,-5.2985,-5.063,-5.0133,-4.9413,-4.8591,-4.8591,-4.8104,-4.7305,-4.752,-4.7073,-4.6195,-4.6411,-4.6378,-4.6228,-4.6709,-4.6609,-4.6278,-4.6943,-4.617,-4.4759,0.0,0.0,0.0,0.0,0.0,0.0,0.0,0.0,0.0,0.0,0.0,0.0,0.0,0.0,0.0,0.0,0.0,0.0,0.0,0.0,0.0,0.0,0.0,0.0,0.0,-3.4394,-3.5459,-3.6809,-3.7424,-3.8103,-3.8763,-3.8614,-3.8539,-3.8568,-3.9003,-3.9235,-3.934,-3.9853,-3.968,-3.9017,-3.8228,-3.6671,-3.4618,-3.3116,0.0,0.0,0.0,0.0,0.0,0.0,0.0,0.0,0.0,0.0,-3.4682,-3.5402,-3.7203,-3.9705,-4.3098,-4.5122,-4.6919,-4.9658,-5.133,-5.2161,-5.1431,-5.0636,-4.956,-4.7765,-4.6675,-4.5727,0.0,0.0,-4.4143,-4.6444,-4.6944,-4.7854,-5.0191,-5.0548,-5.0263,0.0,0.0,0.0,0.0,0.0,0.0,-5.0513,0.0,-5.1765,-5.1997,-5.1931,-5.1963,-5.2231,-5.3432,-5.3875,-5.3366,-5.3811,-5.2701,-5.0021,-4.9936,-4.9248,-4.8001,-4.8001,-4.7984,-4.7918,-4.7239,-4.6908,-4.6792,-4.6129,-4.6245,-4.6841,-4.6891,-4.6874,-4.6892,-4.749,-4.6668,-4.5176,0.0,0.0,0.0,0.0,0.0,0.0,0.0,0.0,0.0,0.0,0.0,0.0,0.0,0.0,0.0,0.0,0.0,0.0,0.0,0.0,0.0,0.0,0.0,0.0,0.0,0.0,0.0,0.0,0.0,-3.2824,-3.3024,-3.3466,-3.3693,0.0,-3.3965,-3.4423,-3.4988,-3.5292,-3.5645,-3.5909,0.0,-3.3756,-3.305,0.0,0.0,0.0,0.0,0.0,0.0,0.0,0.0,0.0,0.0,0.0,-3.5465,-3.7828,0.0,-4.3177,-4.6234,-4.8497,-5.0238,-5.1531,-5.173,-5.1398,-5.0651,-4.9326,-4.7597,-4.5258,-4.3605,-4.2073,0.0,0.0,0.0,-4.4107,-4.6355,0.0,-5.0245,-5.103,0.0,0.0,0.0,-5.0334,-4.9156,-5.0637,0.0,0.0,-5.1458,-5.172,-5.3513,-5.2162,-5.2073,-5.377,-5.3129,-5.3198,-5.4112,-5.268,-5.1363,-5.0142,-4.9043,-4.833,-4.8001,-4.8001,-4.7703,-4.7206,-4.7554,-4.709,-4.6096,-4.646,-4.6411,-4.6129,-4.6676,-4.656,-4.6228,-4.7309,-4.642,-4.4711,0.0,0.0,0.0,0.0,0.0,0.0,0.0,0.0,0.0,0.0,0.0,0.0,0.0,0.0,0.0,0.0,0.0,0.0,0.0,0.0,0.0,0.0,0.0,0.0,0.0,0.0,0.0,0.0,0.0,0.0,0.0,-2.8095,-2.8395,-2.8417,-2.908,-2.9643,-3.008,0.0,0.0,0.0,0.0,0.0,0.0,0.0,0.0,0.0,0.0,0.0,0.0,0.0,0.0,-3.3136,-3.4777,-3.6575,-3.868,-4.1555,0.0,-4.5485,-4.8696,-5.0405,-5.1564,-5.2572,-5.181,-5.0486,-4.9144,-4.7091,-4.4656,-4.1878,-4.0123,0.0,0.0,0.0,0.0,0.0,0.0,0.0,-4.9121,-5.0459,-5.1101,0.0,-5.1672,0.0,-5.1415,-5.26,-5.3406,0.0,-5.2363,-5.2319,-5.3681,-5.2389,-5.2328,-5.3909,-5.3191,-5.3174,-5.3943,-5.2487,-5.1228,-5.0204,-4.9375,-4.863,-4.8001,-4.8001,-4.7769,-4.7388,-4.7487,-4.704,-4.6278,-4.6378,-4.6361,-4.6311,-4.6742,-4.6841,-4.6793,-4.7029,-4.6372,-4.524,0.0,0.0,0.0,0.0,0.0,0.0,0.0,0.0,0.0,0.0,0.0,0.0,0.0,0.0,0.0,0.0,0.0,0.0,0.0,0.0,0.0,0.0,0.0,0.0,0.0,0.0,0.0,0.0,0.0,0.0,0.0,0.0,0.0,0.0,0.0,0.0,0.0,0.0,0.0,0.0,0.0,0.0,0.0,0.0,0.0,0.0,0.0,0.0,0.0,0.0,-3.3701,-3.625,-3.8979,-4.1049,-4.2989,-4.5649,-4.6566,-4.7432,-5.0685,-5.1597,-5.1843,-5.2986,-5.1578,-4.9343,-4.7166,-4.4364,-4.1324,-3.8269,0.0,0.0,-3.4638,0.0,-3.6274,-3.927,0.0,-4.3807,-4.7663,-4.9442,-5.0976,-5.2715,-5.3001,-5.3332,-5.4073,-5.4251,-5.433,-5.436,-5.3637,-5.3211,-5.3249,-5.2598,-5.2556,-5.3247,-5.3349,-5.3365,-5.3264,-5.2511,-5.1462,-5.022,-5.0005,-4.9243,-4.8001,-4.8001,-4.8001,-4.7968,-4.7322,-4.704,-4.699,-4.6344,-4.646,-4.704,-4.7008,-4.7405,-4.7852,-4.6865,-4.6372,-4.5996,0.0,0.0,0.0,0.0,0.0,0.0,0.0,0.0,0.0,0.0,0.0,0.0,0.0,0.0,0.0,0.0,0.0,0.0,0.0,0.0,0.0,0.0,0.0,0.0,0.0,0.0,0.0,0.0,0.0,0.0,0.0,0.0,0.0,0.0,0.0,0.0,0.0,0.0,0.0,0.0,0.0,0.0,0.0,0.0,0.0,0.0,0.0,0.0,0.0,0.0,-3.5435,-3.8949,-4.058,-4.3356,-4.6358,-4.805,-4.9426,-5.0752,-5.2539,-5.3053,-5.297,-5.2638,-5.0452,-4.7685,-4.4989,-4.1925,0.0,0.0,0.0,-3.3538,-3.2862,-3.4446,0.0,-3.8663,0.0,0.0,0.0,0.0,-5.0352,0.0,0.0,0.0,0.0,0.0,0.0,0.0,0.0,-5.3937,-5.3395,-5.272,-5.2437,-5.257,-5.3111,-5.3128,-5.257,-5.1251,-5.0469,-5.0204,-4.8961,-4.8249,-4.8001,-4.8001,-4.8001,-4.8001,-4.7868,-4.7819,-4.7802,-4.7669,-4.7703,-4.7769,-4.7622,-4.7638,-4.7704,-4.7239,-4.6321,-4.5245,0.0,0.0,0.0,0.0,0.0,0.0,0.0,0.0,0.0,0.0,-1.6706,0.0,0.0,0.0,0.0,0.0,0.0,0.0,0.0,0.0,0.0,0.0,0.0,0.0,0.0,0.0,0.0,0.0,0.0,0.0,0.0,0.0,0.0,0.0,0.0,0.0,0.0,0.0,0.0,0.0,0.0,0.0,0.0,0.0,0.0,0.0,0.0,0.0,0.0,0.0,-3.4718,-3.8823,-4.2083,-4.5119,-4.7835,-4.969,-5.0768,-5.1713,-5.35,-5.398,-5.3814,-5.3102,-5.0154,-4.6591,-4.3481,0.0,0.0,0.0,0.0,-3.2509,-3.2423,0.0,0.0,0.0,0.0,0.0,0.0,0.0,0.0,0.0,0.0,0.0,0.0,0.0,0.0,0.0,0.0,-5.4104,-5.3449,-5.2764,-5.2243,-5.1846,-5.2529,-5.2545,-5.1846,-5.1115,-5.0585,-5.0204,-4.9094,-4.8382,-4.8001,-4.8001,-4.8001,-4.8001,-4.8001,-4.8001,-4.8001,-4.8001,-4.7935,-4.782,-4.7737,-4.7654,-4.7521,-4.686,-4.5961,-4.5082,0.0,0.0,0.0,0.0,0.0,0.0,0.0,-1.7561,-1.7366,-1.6799,-1.6411,-1.663,-1.7818,-1.8386,0.0,0.0,0.0,0.0,0.0,0.0,0.0,0.0,0.0,0.0,0.0,0.0,0.0,0.0,0.0,0.0,0.0,0.0,0.0,0.0,0.0,0.0,0.0,0.0,0.0,0.0,0.0,0.0,0.0,0.0,0.0,0.0,0.0,0.0,0.0,0.0,-3.2911,-3.687,-4.1272,-4.4915,-4.7901,-4.9658,-5.072,-5.1781,-5.3732,-5.4241,-5.4113,-5.3384,-4.979,-4.5528,-4.2116,-3.8029,0.0,0.0,0.0,-3.1948,-3.2387,0.0,0.0,0.0,0.0,0.0,0.0,0.0,0.0,0.0,0.0,0.0,0.0,0.0,0.0,0.0,0.0,-5.3731,-5.3196,-5.2711,-5.2078,-5.1332,-5.1879,-5.1829,-5.1048,-5.0917,-5.0535,-4.9972,-4.9226,-4.8564,-4.8001,-4.8001,-4.8001,-4.8001,-4.8001,-4.8001,-4.8001,-4.8001,-4.7886,-4.7704,-4.7671,-4.7554,-4.7337,-4.6565,-4.5847,-4.5196,0.0,0.0,0.0,0.0,0.0,0.0,0.0,-1.6172,-1.5943,-1.5285,-1.5735,-1.6387,-1.7112,-1.7311,0.0,0.0,0.0,0.0,0.0,0.0,0.0,0.0,0.0,0.0,0.0,0.0,0.0,0.0,0.0,0.0,0.0,0.0,0.0,0.0,0.0,0.0,0.0,0.0,0.0,0.0,0.0,0.0,0.0,0.0,0.0,0.0,0.0,0.0,0.0,0.0,0.0,-3.2902,-3.5322,-4.0727,-4.6231,-4.6435,0.0,0.0,-5.3138,-5.3516,-5.3351,-5.2655,-4.8663,-4.4003,-4.0571,0.0,0.0,0.0,-3.1629,-3.1766,-3.2231,-3.3054,0.0,0.0,0.0,0.0,0.0,0.0,0.0,0.0,0.0,0.0,0.0,0.0,0.0,0.0,0.0,-5.257,-5.2516,-5.2445,-5.2078,-5.1332,-5.1382,-5.1032,-5.032,-4.9641,-4.9276,-4.9193,-4.8465,-4.8067,-4.8001,-4.8001,-4.8001,-4.8001,-4.8001,-4.8001,-4.8001,-4.8001,-4.7886,-4.7671,-4.7571,-4.7403,-4.7201,-4.6931,-4.636,-4.5663,0.0,0.0,0.0,0.0,0.0,0.0,0.0,-1.5886,-1.5675,-1.5083,-1.5257,-1.5689,-1.6364,-1.685,0.0,0.0,0.0,0.0,0.0,0.0,0.0,0.0,0.0,0.0,0.0,0.0,0.0,0.0,0.0,0.0,0.0,0.0,0.0,0.0,0.0,0.0,0.0,0.0,0.0,0.0,0.0,0.0,0.0,0.0,0.0,0.0,0.0,0.0,0.0,0.0,0.0,0.0,-3.0589,-3.422,0.0,0.0,-4.6001,-4.8762,-5.1415,-5.2754,-5.3036,-5.1479,-4.7917,-4.3805,-3.983,0.0,0.0,-3.1839,-3.1673,-3.1894,-3.2335,-3.2804,-3.3416,0.0,0.0,0.0,0.0,0.0,0.0,0.0,0.0,0.0,0.0,0.0,0.0,0.0,0.0,-5.2227,-5.1779,-5.1746,-5.138,-5.0651,-5.0634,-5.0502,-5.022,-4.9475,-4.9326,-4.9756,-4.8564,-4.8001,-4.8001,-4.8001,-4.8001,-4.8001,-4.8001,-4.7935,-4.782,-4.782,-4.7638,-4.737,-4.7352,-4.7217,-4.6996,-4.6927,-4.6423,-4.5824,0.0,0.0,0.0,0.0,0.0,0.0,-1.552,-1.552,-1.5398,-1.4978,-1.4982,-1.5256,-1.5929,-1.6656,-1.758,-1.8738,0.0,0.0,0.0,0.0,0.0,0.0,0.0,0.0,0.0,0.0,0.0,0.0,0.0,0.0,0.0,0.0,0.0,0.0,0.0,0.0,0.0,0.0,0.0,0.0,0.0,0.0,0.0,0.0,0.0,0.0,0.0,0.0,0.0,0.0,0.0,0.0,0.0,0.0,0.0,0.0,-4.2216,-4.5153,-4.8514,-5.042,-5.1115,-4.9607,-4.6555,-4.2915,0.0,0.0,-3.2883,-3.179,-3.1691,-3.193,-3.2353,-3.2591,-3.2952,0.0,0.0,0.0,0.0,0.0,0.0,0.0,0.0,0.0,0.0,0.0,0.0,0.0,-5.296,-5.1862,-5.1348,-5.0901,-5.0402,-4.9906,-4.9889,-4.979,-4.9558,-4.9044,-4.9044,-4.9558,-4.8514,-4.8001,-4.8001,-4.8001,-4.8001,-4.8001,-4.7935,-4.782,-4.7704,-4.7654,-4.7487,-4.7217,-4.7217,-4.7064,-4.6876,-4.6876,-4.6552,-4.6164,0.0,0.0,0.0,0.0,0.0,0.0,0.0,-1.4871,-1.4871,-1.4808,-1.492,-1.5256,-1.5929,-1.6656,-1.7407,-1.814,0.0,0.0,0.0,0.0,0.0,0.0,0.0,0.0,0.0,0.0,0.0,-1.8717,-1.9584,0.0,0.0,0.0,0.0,0.0,0.0,0.0,0.0,0.0,0.0,0.0,0.0,0.0,0.0,0.0,0.0,0.0,0.0,0.0,0.0,0.0,0.0,0.0,0.0,0.0,0.0,0.0,-3.7425,-4.136,-4.4218,-4.5958,-4.6957,-4.6941,-4.4265,-4.0873,0.0,0.0,-3.2862,-3.1747,-3.1557,-3.1747,-3.2214,-3.2404,-3.259,-3.287,-3.3562,0.0,0.0,0.0,0.0,0.0,0.0,0.0,0.0,0.0,0.0,0.0,-5.2472,0.0,-5.1315,-4.9922,-4.9127,-4.9127,-4.9127,-4.8763,-4.8034,-4.8017,-4.8017,-4.8017,-4.8017,-4.8001,-4.8001,-4.8001,-4.8001,-4.8001,-4.7787,-4.7704,-4.7671,-4.7571,-4.7369,-4.7217,-4.7217,-4.7064,-4.6876,-4.6876,-4.6876,-4.6779,0.0,0.0,0.0,0.0,0.0,0.0,0.0,0.0,-1.4824,-1.4808,-1.4841,-1.4943,-1.5154,-1.6296,-1.7142,-1.736,0.0,0.0,0.0,0.0,0.0,0.0,0.0,0.0,0.0,0.0,-1.8237,-1.8702,-1.8979,-1.9326,-1.9744,-1.9957,0.0,0.0,0.0,0.0,0.0,0.0,0.0,0.0,0.0,0.0,0.0,0.0,0.0,0.0,0.0,0.0,0.0,0.0,0.0,0.0,0.0,0.0,0.0,0.0,0.0,0.0,-3.9013,-4.0434,-4.1022,-4.0523,-3.9246,-3.7484,-3.5086,0.0,-3.2202,-3.0845,-3.0696,-3.0798,-3.061,-3.1229,-3.2181,-3.3512,-3.4365,0.0,0.0,0.0,0.0,0.0,0.0,0.0,0.0,0.0,0.0,0.0,-5.2152,-5.1065,-5.0585,-4.9641,-4.911,-4.911,-4.8614,-4.8481,-4.8763,-4.8249,-4.8249,-4.8746,-4.8249,-4.8001,-4.8001,-4.8001,-4.7919,-4.7787,-4.7737,-4.7571,-4.7336,-4.7319,-4.7183,-4.6996,-4.6996,-4.6653,-4.6212,-4.6698,-4.6277,-4.5484,0.0,0.0,0.0,0.0,0.0,0.0,0.0,0.0,-1.4808,-1.4808,-1.4824,-1.4839,-1.4839,-1.5919,-1.6715,-1.6927,0.0,0.0,0.0,0.0,0.0,0.0,0.0,0.0,0.0,-1.7218,-1.7908,-1.8311,-1.8616,-1.9116,-1.9744,-1.9904,-2.0133,-2.0409,0.0,0.0,0.0,0.0,0.0,0.0,0.0,0.0,-2.1797,0.0,0.0,0.0,0.0,0.0,0.0,0.0,0.0,0.0,0.0,0.0,0.0,0.0,-2.8986,0.0,0.0,-3.609,-3.6734,-3.6267,-3.5693,0.0,0.0,0.0,0.0,-2.9922,-2.9818,-2.9917,-2.9831,-3.0569,-3.166,-3.2978,-3.4097,0.0,0.0,0.0,0.0,0.0,0.0,0.0,0.0,0.0,0.0,-5.278,-5.138,-5.027,-4.9823,-4.9094,-4.8696,-4.8696,-4.8249,-4.8216,-4.868,-4.8233,-4.8233,-4.868,-4.8216,-4.8001,-4.8001,-4.7919,-4.782,-4.7704,-4.7571,-4.737,0.0,-4.7115,-4.6996,-4.686,-4.6585,-4.6196,-4.5824,-4.6018,-4.5694,-4.5192,0.0,0.0,0.0,0.0,0.0,0.0,0.0,0.0,0.0,0.0,0.0,-1.4886,-1.4886,-1.5565,0.0,0.0,0.0,0.0,0.0,0.0,0.0,0.0,0.0,0.0,0.0,-1.6936,-1.7594,-1.7639,-1.8428,-1.9172,-1.9815,-1.986,-2.0086,-2.05,-2.0486,0.0,0.0,0.0,0.0,0.0,0.0,0.0,0.0,0.0,0.0,0.0,0.0,0.0,0.0,0.0,0.0,0.0,0.0,0.0,0.0,0.0,0.0,0.0,0.0,0.0,0.0,0.0,0.0,0.0,0.0,0.0,0.0,0.0,0.0,0.0,-2.9659,-3.035,-3.1093,-3.188,0.0,0.0,0.0,0.0,0.0,0.0,0.0,0.0,0.0,0.0,0.0,-5.1962,-5.0259,-4.911,-4.911,-4.8398,-4.8001,-4.8001,-4.8001,-4.8001,-4.8001,-4.8001,-4.8001,-4.8001,-4.8001,-4.7968,-4.7968,-4.7787,-4.7638,-4.7572,-4.732,-4.7118,-4.7036,-4.6947,-4.6828,-4.6682,-4.605,-4.5743,-4.5581,-4.4998,-4.5127,-4.55,0.0,0.0,0.0,0.0,0.0,0.0,0.0,0.0,0.0,0.0,0.0,-1.4824,-1.4824,-1.5533,0.0,0.0,0.0,0.0,0.0,0.0,0.0,0.0,0.0,0.0,0.0,-1.6039,-1.6473,-1.695,-1.764,-1.8671,-1.9975,-2.047,-2.0931,-2.1323,-2.1327,0.0,0.0,0.0,0.0,0.0,0.0,0.0,0.0,0.0,0.0,0.0,-2.231,-2.2375,0.0,0.0,0.0,0.0,0.0,0.0,0.0,0.0,-2.6691,-2.6894,-2.7739,0.0,-2.8426,0.0,0.0,0.0,0.0,0.0,0.0,0.0,0.0,0.0,0.0,0.0,0.0,0.0,0.0,0.0,0.0,0.0,0.0,0.0,0.0,0.0,0.0,0.0,-4.9509,-5.046,-4.9642,-4.911,-4.911,-4.8398,-4.8001,-4.8001,-4.8001,-4.8001,-4.8001,-4.8001,-4.8001,-4.8001,-4.7853,-4.7787,-4.7787,-4.7637,-4.7159,-4.6502,-4.7006,-4.6497,-4.5437,-4.6473,-4.6261,-4.5322,-4.5662,-4.5144,-4.4253,-4.4642,-4.4188,-4.3395,0.0,0.0,0.0,0.0,0.0,0.0,0.0,0.0,0.0,0.0,0.0,0.0,0.0,0.0,0.0,0.0,0.0,0.0,0.0,0.0,0.0,0.0,0.0,0.0,-1.5697,-1.6025,-1.6518,-1.716,-1.7518,-1.8688,-2.0556,-2.085,-2.1218,-2.1647,-2.1388,0.0,0.0,0.0,0.0,0.0,-2.1679,0.0,0.0,0.0,0.0,0.0,-2.2106,-2.2135,0.0,-2.3469,-2.4139,-2.4694,0.0,0.0,0.0,0.0,-2.6691,-2.6691,-2.6691,-2.6945,-2.7199,-2.7199,-2.7503,-2.7807,0.0,0.0,0.0,0.0,0.0,0.0,0.0,0.0,0.0,0.0,0.0,0.0,0.0,0.0,0.0,0.0,0.0,0.0,0.0,0.0,-4.8878,-4.9538,-4.8961,-4.8597,-4.8597,-4.8216,-4.8001,-4.8001,-4.8001,-4.8001,-4.8001,-4.8001,-4.8001,-4.8001,-4.7787,-4.7539,-4.7227,-4.6962,-4.6403,-4.5652,-4.5976,-4.56,-4.4868,-4.5937,-4.5759,-4.4836,-4.5192,-4.4674,-4.3719,-4.3783,-4.3508,-4.3104,0.0,0.0,0.0,0.0,0.0,0.0,0.0,0.0,0.0,0.0,0.0,0.0,0.0,0.0,0.0,0.0,0.0,0.0,0.0,0.0,0.0,0.0,0.0,-1.6293,-1.5949,-1.6353,-1.6936,-1.7713,-1.7731,-1.8936,-2.1234,-2.1216,-2.1448,-2.1862,-2.1226,-2.1055,0.0,0.0,0.0,0.0,-2.1603,0.0,0.0,0.0,0.0,0.0,0.0,0.0,0.0,-2.3673,-2.4275,-2.4711,-2.598,0.0,0.0,0.0,0.0,0.0,-2.6691,-2.7317,-2.7908,-2.7689,-2.7807,-2.7959,0.0,0.0,0.0,0.0,0.0,0.0,0.0,0.0,0.0,0.0,0.0,0.0,0.0,0.0,0.0,0.0,0.0,0.0,0.0,-4.902,-4.8266,-4.8895,-4.8349,-4.8001,-4.8001,-4.8001,-4.8001,-4.8001,-4.7885,-4.7835,-4.7802,-4.7918,-4.7918,-4.7802,-4.7556,-4.7111,-4.6437,-4.6077,-4.5521,-4.487,-4.4821,-4.4658,-4.4528,-4.5322,-4.5176,-4.448,-4.4593,-4.4188,-4.3476,-4.2829,-4.2991,-4.3428,0.0,0.0,0.0,0.0,0.0,0.0,0.0,0.0,0.0,0.0,0.0,0.0,0.0,0.0,0.0,0.0,0.0,0.0,0.0,0.0,0.0,0.0,-1.5669,-1.601,-1.6562,-1.6144,-1.6518,-1.7713,-1.7876,-1.9121,-2.1373,-2.1855,-2.2322,-2.2681,-2.163,-2.123,-2.1387,-2.1496,-2.1511,-2.1448,-2.1678,0.0,0.0,0.0,0.0,0.0,0.0,0.0,0.0,-2.2521,-2.346,-2.4541,-2.4762,0.0,0.0,0.0,0.0,0.0,-2.6691,-2.7653,-2.8376,-2.7164,-2.7841,-2.8636,0.0,0.0,0.0,0.0,0.0,0.0,0.0,0.0,0.0,0.0,0.0,0.0,0.0,0.0,0.0,0.0,0.0,0.0,-4.9057,-4.8399,-4.805,-4.8166,-4.8067,-4.8001,-4.8001,-4.8001,-4.8001,-4.8001,-4.7388,-4.7009,-4.6896,-4.7457,-4.7457,-4.6913,-4.6503,-4.5995,-4.5342,-4.513,-4.4593,-4.3945,-4.4528,-4.4091,-4.3023,-4.4399,-4.4172,-4.2991,-4.3638,-4.3427,-4.2748,-4.2635,-4.2667,-4.2748,0.0,0.0,0.0,0.0,0.0,0.0,0.0,0.0,0.0,0.0,0.0,0.0,0.0,0.0,0.0,0.0,0.0,0.0,0.0,0.0,0.0,-1.5492,-1.5566,-1.5936,-1.6635,-1.6398,-1.6921,-1.8237,-1.8436,-1.9722,-2.2009,-2.2541,-2.2657,-2.2369,-2.1568,-2.123,-2.1309,-2.1403,-2.1418,-2.1417,0.0,0.0,0.0,0.0,0.0,0.0,0.0,0.0,0.0,0.0,-2.3583,-2.4558,-2.4966,0.0,0.0,0.0,0.0,0.0,-2.6691,-2.7468,-2.7989,-2.691,-2.7752,-2.8642,0.0,0.0,0.0,0.0,0.0,0.0,0.0,0.0,0.0,0.0,0.0,0.0,0.0,0.0,0.0,0.0,0.0,0.0,-4.8792,-4.8312,-4.8001,-4.8001,-4.8001,-4.8001,-4.8001,-4.762,-4.7554,-4.7836,-4.6763,-4.6319,-4.6536,-4.6373,-4.6159,-4.5929,-4.5669,-4.518,-4.4496,-4.4318,-4.3816,-4.3104,-4.3444,-4.3217,-4.2683,-4.3767,-4.3589,-4.2667,-4.3395,-4.3233,-4.2602,-4.2602,-4.2602,-4.2602,0.0,0.0,0.0,0.0,0.0,0.0,0.0,0.0,0.0,0.0,0.0,0.0,0.0,0.0,0.0,0.0,0.0,0.0,0.0,0.0,-1.5433,-1.5492,-1.5714,-1.6158,-1.6843,-1.6755,-1.746,-1.8994,-1.9047,-2.0206,-2.2392,-2.2787,-2.2656,-2.2077,-2.1504,-2.1246,-2.1246,-2.1341,-2.1371,-2.1386,0.0,0.0,0.0,0.0,0.0,0.0,0.0,0.0,0.0,0.0,0.0,0.0,0.0,0.0,0.0,-2.6691,-2.6691,-2.6691,-2.6691,-2.7232,-2.7535,-2.6572,0.0,0.0,-2.8395,0.0,0.0,0.0,0.0,0.0,0.0,0.0,0.0,0.0,0.0,0.0,0.0,0.0,0.0,0.0,0.0,-4.8145,-4.8826,-4.8204,-4.7736,-4.7736,-4.7587,-4.7455,-4.7422,-4.6893,-4.6763,-4.7128,-4.5943,-4.5452,-4.5849,-4.5016,-4.4739,-4.4982,-4.4837,-4.4398,-4.3667,-4.3523,-4.312,-4.2602,-4.2602,-4.2602,-4.2635,-4.3201,-4.3104,-4.2651,-4.3217,-4.3088,-4.2602,-4.2602,-4.2602,-4.2602,0.0,0.0,0.0,0.0,0.0,0.0,0.0,0.0,0.0,0.0,0.0,0.0,0.0,0.0,0.0,0.0,0.0,0.0,0.0,0.0,-1.5433,-1.5492,-1.6157,-1.6873,-1.7608,-1.7025,-1.7748,-1.9912,-1.9478,-2.0213,-2.2036,-2.2192,-2.231,-2.2345,-2.168,-2.1386,-2.1386,-2.1527,-2.1465,-2.1324,-2.1511,0.0,0.0,0.0,0.0,0.0,0.0,0.0,0.0,0.0,0.0,0.0,0.0,0.0,-2.6691,-2.6691,-2.6691,-2.6691,-2.6691,-2.7198,-2.7364,-2.595,0.0,0.0,-3.0339,0.0,0.0,0.0,0.0,0.0,0.0,0.0,0.0,0.0,0.0,0.0,0.0,0.0,0.0,0.0,-4.9683,-4.9438,-4.8944,-4.7736,-4.6974,-4.6974,-4.6344,-4.5901,-4.5759,-4.571,-4.5646,-4.5471,-4.4717,-4.4262,-4.4169,-4.3421,-4.3404,-4.4088,-4.388,-4.3411,-4.2715,-4.2683,-4.2651,-4.2602,-4.2602,-4.2602,-4.2602,-4.2651,-4.2651,-4.2602,-4.2651,-4.2651,-4.2602,-4.2602,-4.2602,-4.2602,0.0,0.0,0.0,0.0,0.0,0.0,0.0,0.0,0.0,0.0,0.0,0.0,0.0,0.0,0.0,0.0,0.0,0.0,0.0,0.0,-1.5477,-1.5566,-1.6263,-1.6994,-1.7667,-1.757,-1.833,-2.0005,-2.0528,-2.0977,-2.1323,-2.192,-2.2003,-2.165,-2.1438,-2.134,-2.134,-2.1403,-2.1372,-2.1325,-2.1528,-2.1664,0.0,0.0,0.0,0.0,0.0,0.0,0.0,0.0,-2.3898,-2.4626,0.0,-2.6116,-2.6691,-2.6691,-2.6691,-2.6691,-2.6691,-2.718,-2.7448,-2.6404,0.0,0.0,0.0,0.0,0.0,0.0,0.0,0.0,0.0,0.0,0.0,0.0,0.0,0.0,0.0,0.0,0.0,0.0,-4.8198,-4.8071,-4.706,-4.6502,-4.6212,-4.6212,-4.5947,-4.5735,-4.5611,-4.5182,-4.5007,-4.5179,-4.4004,-4.3338,-4.3182,-4.289,-4.2419,-4.1819,-4.2649,-4.2861,-4.2602,-4.2602,-4.2602,-4.2602,-4.2602,-4.2602,-4.2602,-4.2602,-4.2602,-4.2602,-4.2602,-4.2602,-4.2602,-4.2602,-4.2602,-4.2602,0.0,0.0,0.0,0.0,0.0,0.0,0.0,0.0,0.0,0.0,0.0,0.0,0.0,0.0,0.0,0.0,0.0,0.0,0.0,-1.5463,-1.5551,-1.5653,-1.6338,-1.701,-1.7699,-1.7906,-1.8653,-2.0005,-2.0926,-2.1219,-2.0909,-2.1584,-2.1633,-2.1199,-2.1278,-2.1293,-2.1293,-2.1293,-2.1293,-2.1309,-2.145,-2.1572,0.0,0.0,0.0,0.0,0.0,0.0,0.0,0.0,0.0,0.0,0.0,0.0,0.0,0.0,-2.6691,-2.6674,-2.6674,-2.6994,-2.7193,0.0,0.0,0.0,0.0,0.0,0.0,0.0,0.0,0.0,0.0,0.0,0.0,0.0,0.0,0.0,0.0,0.0,0.0,-4.6772,-4.6987,-4.6872,-4.6166,-4.5659,-4.5388,-4.5388,-4.5173,-4.4964,-4.4762,-4.4255,-4.4081,-4.4301,-4.313,-4.245,-4.2342,-4.2083,-4.1468,-4.0496,-4.1484,-4.1923,-4.1923,-4.1923,-4.1923,-4.1939,-4.2197,-4.2164,-4.1939,-4.2213,-4.2164,-4.1939,-4.2213,-4.2294,-4.2326,-4.2522,-4.2602,-4.2602,0.0,0.0,0.0,0.0,0.0,0.0,0.0,0.0,0.0,0.0,0.0,0.0,0.0,0.0,0.0,0.0,0.0,0.0,-1.5477,-1.5492,-1.5595,-1.5784,-1.6383,-1.701,-1.7699,-1.7921,-1.867,-1.999,-2.0458,-2.0777,-2.091,-2.1119,-2.1199,-2.1199,-2.1278,-2.1293,-2.1293,-2.1293,-2.1293,-2.1293,-2.1309,-2.134,-2.1449,0.0,0.0,0.0,0.0,0.0,0.0,0.0,-2.489,0.0,0.0,0.0,0.0,0.0,-2.6657,-2.6589,-2.6589,-2.6554,0.0,0.0,0.0,0.0,0.0,0.0,0.0,0.0,0.0,0.0,0.0,0.0,0.0,0.0,0.0,0.0,0.0,0.0,-4.7192,-4.6713,-4.638,-4.6303,-4.6608,-4.533,-4.4474,-4.4474,-4.3798,-4.3235,-4.2914,-4.2883,-4.279,-4.2586,-4.1938,-4.1596,-4.1579,-4.0853,-4.048,-4.048,-4.048,-4.048,-4.0496,-4.0496,-4.0496,-4.0529,-4.1272,-4.1191,-4.0545,-4.1304,-4.1174,-4.0561,-4.132,-4.1596,-4.1693,-4.2327,-4.2586,-4.2602,0.0,0.0,0.0,0.0,0.0,0.0,0.0,0.0,0.0,0.0,0.0,0.0,0.0,0.0,0.0,0.0,0.0,0.0,-1.5418,-1.5463,-1.5551,-1.5653,-1.6338,-1.701,-1.7699,-1.8812,-1.9487,-1.9646,-2.0443,-2.0909,-2.1038,-2.1151,-2.1231,-2.1278,-2.1294,-2.1293,-2.1293,-2.1293,-2.1293,-2.1357,-2.2019,-2.2327,-2.2439,0.0,0.0,0.0,0.0,0.0,0.0,0.0,0.0,0.0,0.0,0.0,0.0,-2.6572,-2.6572,-2.6606,-2.6537,0.0,0.0,0.0,0.0,0.0,0.0,0.0,0.0,0.0,0.0,0.0,0.0,0.0,0.0,0.0,0.0,0.0,0.0,-4.5333,-4.4794,-4.3852,-4.3822,-4.3588,-4.2907,-4.2343,-4.2039,-4.2039,-4.1842,-4.1639,-4.1417,-4.1417,-4.1311,-4.1128,-4.0917,-4.0607,-4.0137,-4.0351,-3.9994,-3.9023,-3.9541,-4.0027,-4.0496,-4.0496,-4.0496,-4.0496,-4.0723,-4.0691,-4.0513,-4.0723,-4.0691,-4.0561,-4.132,-4.1596,-4.1628,-4.1808,-4.2213,-4.2457,0.0,0.0,0.0,0.0,0.0,0.0,0.0,0.0,0.0,0.0,0.0,0.0,0.0,0.0,0.0,0.0,0.0,0.0,0.0,0.0,-1.5551,-1.5668,-1.6114,-1.6802,-1.7797,-1.9428,-2.0172,-1.9968,-2.054,-2.0893,-2.1038,-2.144,-2.1666,-2.1714,-2.2037,-2.2005,-2.1746,-2.1746,-2.1746,-2.1778,-2.2362,-2.2769,-2.3129,0.0,0.0,0.0,0.0,0.0,0.0,0.0,0.0,0.0,0.0,0.0,0.0,-2.6502,-2.6486,-2.6419,-2.6066,0.0,0.0,0.0,0.0,0.0,0.0,0.0,0.0,0.0,0.0,0.0,0.0,0.0,0.0,0.0,0.0,0.0,-4.4156,-4.3582,-4.2822,-4.2405,-4.2226,-4.1941,-4.1493,-4.1181,-4.1,-4.0912,-4.0912,-4.0854,-4.0677,-4.0677,-4.0648,-4.0496,-4.0237,-3.9897,-3.9505,-3.9606,-3.9233,-3.8408,-3.8845,-3.9266,-3.9654,-3.9654,-3.9654,-3.9654,-3.9654,-3.9816,-4.0075,-3.9784,-3.9654,-3.9735,-4.0494,-4.0769,-4.0802,-4.1077,-4.1598,-4.2083,0.0,0.0,0.0,0.0,0.0,0.0,0.0,0.0,0.0,0.0,0.0,0.0,0.0,0.0,0.0,0.0,0.0,0.0,0.0,0.0,-1.558,-1.5755,-1.5904,-1.6653,-1.8112,-1.9791,-2.0693,-2.0743,-2.0743,-2.081,-2.0958,-2.1793,-2.2197,-2.2246,-2.3041,-2.3026,-2.2394,-2.2475,-2.2491,-2.2507,-2.2588,-2.301,-2.3628,-2.3814,0.0,0.0,0.0,0.0,0.0,0.0,0.0,0.0,0.0,0.0,-2.6485,-2.6468,-2.6314,-2.6062,0.0,0.0,0.0,0.0,0.0,0.0,0.0,0.0,0.0,0.0,0.0,0.0,0.0,0.0,0.0,0.0,0.0,-4.1477,-4.2773,-4.1913,-4.1352,-4.1862,-4.1286,-4.1025,-4.146,-4.1052,-4.0716,-4.0603,-4.0574,-4.0499,-4.0332,-4.0302,-4.0302,-4.0302,-3.9703,-3.9408,-3.9408,-3.8732,-3.8391,-3.8391,-3.8391,-3.8391,-3.8391,-3.8391,-3.8391,-3.8391,-3.8391,-3.8764,-3.936,-3.8683,-3.8391,-3.8472,-3.9201,-3.9505,-3.9586,-4.0173,-4.0883,-4.1482,0.0,0.0,0.0,0.0,0.0,0.0,0.0,0.0,0.0,0.0,0.0,0.0,0.0,0.0,0.0,0.0,0.0,0.0,0.0,0.0,-1.5522,-1.5566,-1.6665,-1.7862,-1.9073,-2.0008,-2.0628,-2.1006,-2.1006,-2.1054,-2.1135,-2.1328,-2.1472,-2.1552,-2.2297,-2.2556,-2.2426,-2.3026,-2.3253,-2.3335,-2.3956,-2.43,-2.4512,-2.5051,-2.492,0.0,0.0,0.0,0.0,0.0,0.0,0.0,-2.615,-2.6258,-2.6312,-2.6152,-2.5775,0.0,0.0,0.0,0.0,0.0,0.0,0.0,0.0,0.0,0.0,0.0,0.0,0.0,0.0,0.0,0.0,0.0,-4.0908,-4.099,-4.2266,-4.1644,-4.0914,-4.0575,-4.012,-3.9679,-3.9329,-3.91,-3.8947,-3.8918,-3.8918,-3.889,-3.8845,-3.8845,-3.8845,-3.8845,-3.8699,-3.8634,-3.8634,-3.8472,-3.8391,-3.8391,-3.8391,-3.8391,-3.8391,-3.8391,-3.8391,-3.8391,-3.8391,-3.8489,-3.8618,-3.8472,-3.8391,-3.8472,-3.9201,-3.9505,-3.9522,-3.9667,-4.014,-4.0577,0.0,0.0,0.0,0.0,0.0,0.0,0.0,0.0,0.0,0.0,0.0,0.0,0.0,0.0,0.0,0.0,0.0,0.0,0.0,0.0,0.0,-1.6054,-1.7618,-1.8771,-1.9386,-2.0283,-2.0859,-2.1151,-2.1183,0.0,0.0,0.0,0.0,-2.2394,0.0,-2.3738,-2.343,-2.382,-2.3982,-2.4014,-2.4441,-2.4816,-2.5171,-2.5512,-2.5431,-2.5171,-2.5505,0.0,0.0,0.0,0.0,0.0,0.0,0.0,-2.6118,-2.599,-2.5834,-2.5559,0.0,0.0,0.0,0.0,0.0,0.0,0.0,0.0,0.0,0.0,0.0,0.0,0.0,0.0,0.0,0.0,-4.0081,-4.0043,-4.0989,-4.0431,-3.9832,-3.9494,-3.9294,-3.8995,-3.8553,-3.8504,-3.8464,-3.8391,-3.8391,-3.8391,-3.8391,-3.8391,-3.8391,-3.8391,-3.8391,-3.8391,-3.8391,-3.8391,-3.8391,-3.8391,-3.8391,-3.8391,-3.8391,-3.8391,-3.8391,-3.8391,-3.8391,-3.8391,-3.8391,-3.8391,-3.8391,-3.844,-3.8812,-3.8958,-3.8958,-3.8958,-3.9412,-3.9927,0.0,0.0,0.0,0.0,0.0,0.0,0.0,0.0,0.0,0.0,0.0,0.0,0.0,0.0,0.0,0.0,0.0,0.0,0.0,0.0,0.0,-1.7009,-1.8461,-1.9349,-1.9572,-2.0526,-2.1054,-2.1135,0.0,0.0,0.0,0.0,0.0,-2.3561,0.0,-2.5082,-2.4517,-2.4646,-2.4677,-2.4677,-2.4677,-2.5065,-2.5597,-2.5597,-2.5597,-2.5597,-2.5597,-2.5656,-2.568,-2.5619,0.0,0.0,0.0,0.0,-2.5972,-2.5881,-2.5924,-2.5684,0.0,0.0,0.0,0.0,0.0,0.0,0.0,0.0,0.0,0.0,0.0,0.0,0.0,0.0,0.0,0.0,-3.9286,-3.9142,-3.9568,-3.9125,-3.875,-3.875,-3.875,-3.8606,-3.8241,-3.8439,-3.8455,-3.823,-3.8327,-3.8391,-3.8391,-3.8278,-3.8213,-3.8213,-3.81,-3.81,-3.8213,-3.8213,-3.8278,-3.8391,-3.8391,-3.8391,-3.8391,-3.8391,-3.8391,-3.8391,-3.8391,-3.8391,-3.8391,-3.8391,-3.8391,-3.8391,-3.8391,-3.8391,-3.8391,-3.8391,-3.878,-3.9327,0.0,0.0,0.0,0.0,0.0,0.0,0.0,0.0,0.0,0.0,0.0,0.0,0.0,0.0,0.0,0.0,0.0,0.0,-1.607,0.0,0.0,-1.8401,-1.8814,-1.9431,-2.0238,-2.0597,-2.0793,-2.0844,0.0,0.0,0.0,0.0,0.0,-2.3528,0.0,0.0,-2.4549,-2.5195,-2.5435,-2.5435,-2.5435,-2.55,-2.5597,-2.5597,-2.5597,-2.5597,-2.5597,-2.5616,-2.56,-2.5597,-2.5659,0.0,0.0,0.0,-2.5881,-2.5756,-2.5386,0.0,0.0,0.0,0.0,0.0,0.0,0.0,0.0,0.0,0.0,0.0,0.0,0.0,0.0,0.0,0.0,0.0,-3.8969,-3.898,-3.8952,-3.8766,-3.8616,-3.8616,-3.8532,-3.8177,-3.7517,-3.8035,-3.816,-3.7517,-3.8051,-3.8391,-3.8391,-3.7792,-3.7469,-3.7469,-3.6886,-3.6869,-3.7425,-3.7469,-3.7776,-3.8391,-3.8391,-3.8391,-3.8391,-3.8391,-3.8391,-3.8391,-3.8391,-3.8391,-3.8391,-3.8391,-3.8391,-3.8391,-3.8391,-3.8391,-3.8391,-3.8391,-3.8456,-3.8537,0.0,0.0,0.0,0.0,0.0,0.0,0.0,0.0,0.0,0.0,0.0,0.0,0.0,0.0,0.0,-1.6372,-1.6469,-1.6635,-1.6912,-1.7709,-1.8333,-1.8687,-1.925,-1.9773,-2.0206,-2.0426,-2.0645,0.0,0.0,0.0,0.0,-2.2959,-2.3609,0.0,0.0,0.0,0.0,0.0,-2.5597,-2.5597,-2.5597,-2.5338,-2.5033,-2.5435,-2.5341,-2.5033,-2.5435,-2.5597,-2.5597,-2.5597,-2.5619,-2.564,-2.564,0.0,0.0,0.0,-2.554,0.0,0.0,0.0,0.0,0.0,0.0,0.0,0.0,0.0,0.0,0.0,0.0,0.0,0.0,0.0,0.0,0.0,-3.8379,-3.8128,-3.8074,-3.797,-3.7903,-3.7953,-3.7876,-3.7679,-3.7328,-3.7258,-3.7096,-3.6772,-3.7048,-3.7226,-3.7226,-3.6934,-3.6756,-3.6756,-3.6465,-3.6448,-3.6756,-3.6756,-3.6902,-3.7226,-3.8019,-3.7987,-3.7242,-3.7614,-3.8019,-3.8391,-3.8391,-3.8391,-3.8391,-3.8391,-3.8391,-3.8391,-3.8391,-3.8391,-3.8391,-3.8391,-3.8391,-3.8391,0.0,0.0,0.0,0.0,0.0,0.0,0.0,0.0,0.0,0.0,0.0,0.0,0.0,0.0,0.0,0.0,-1.7366,-1.7522,-1.7785,-1.8512,-1.8939,-1.8957,-1.9645,-2.0025,-2.008,-2.034,0.0,0.0,0.0,0.0,-2.3409,-2.3639,-2.4517,0.0,-2.6264,0.0,0.0,0.0,0.0,0.0,0.0,-2.5098,-2.4839,-2.5387,-2.5373,-2.5146,-2.5891,-2.6018,-2.5872,-2.5872,-2.5759,-2.5597,-2.5597,-2.5621,0.0,0.0,0.0,0.0,0.0,0.0,0.0,0.0,0.0,0.0,0.0,0.0,0.0,0.0,0.0,0.0,0.0,0.0,0.0,0.0,-3.7579,-3.7232,-3.7194,-3.7102,-3.7075,-3.7194,-3.7102,-3.6956,-3.6788,-3.6497,-3.6222,-3.6027,-3.6189,-3.6303,-3.6303,-3.6125,-3.6027,-3.6027,-3.5849,-3.5833,-3.6027,-3.6206,-3.6303,-3.6319,-3.7371,-3.7323,-3.6319,-3.6837,-3.7452,-3.8116,-3.8116,-3.823,-3.8391,-3.8391,-3.8391,-3.8391,-3.8391,-3.8391,-3.8391,-3.8391,-3.8391,-3.8391,0.0,0.0,0.0,0.0,0.0,0.0,0.0,0.0,0.0,0.0,0.0,0.0,-1.7084,-1.7185,-1.7265,-1.7382,-1.7464,-1.7815,-1.8595,-1.9212,-1.9588,-1.9648,-1.9869,0.0,-2.0005,-2.0457,0.0,0.0,0.0,0.0,-2.3143,-2.4019,-2.5227,-2.6604,-2.5956,-2.5662,-2.5646,0.0,0.0,0.0,0.0,0.0,0.0,0.0,-2.6021,0.0,0.0,-2.7187,-2.6636,-2.6636,-2.6183,-2.5597,-2.5597,-2.5597,-2.5597,0.0,0.0,0.0,0.0,0.0,0.0,0.0,0.0,0.0,0.0,0.0,0.0,0.0,0.0,0.0,0.0,0.0,0.0,0.0,-3.6484,-3.6521,-3.6378,-3.6367,-3.6351,-3.6351,-3.6367,-3.6076,-3.539,-3.5914,-3.6011,-3.5325,-3.5898,-3.6303,-3.6303,-3.5639,-3.526,-3.526,-3.457,-3.4538,-3.526,-3.5946,-3.6303,-3.6303,-3.6384,-3.6384,-3.6303,-3.6351,-3.6724,-3.7344,-3.7344,-3.776,-3.8391,-3.8391,-3.8391,-3.8391,-3.8391,-3.8391,-3.8391,-3.8391,-3.8391,-3.8391,0.0,0.0,0.0,0.0,0.0,0.0,0.0,0.0,0.0,0.0,0.0,0.0,0.0,-1.8273,-1.8542,-1.8506,-1.8595,-1.8806,-1.9117,-1.9441,-1.9629,-1.9708,-1.9762,-1.9797,-1.9797,-2.0133,0.0,0.0,0.0,-2.2289,-2.3373,-2.4139,-2.5033,-2.5985,-2.6215,-2.6312,-2.628,-2.5791,0.0,0.0,0.0,0.0,0.0,0.0,0.0,0.0,0.0,0.0,0.0,-2.6258,-2.6547,-2.6859,-2.6442,-2.6312,-2.6215,-2.5726,-2.5597,0.0,0.0,0.0,0.0,0.0,0.0,0.0,0.0,0.0,0.0,0.0,0.0,0.0,0.0,0.0,0.0,0.0,-3.5237,-3.5117,-3.5535,-3.559,-3.559,-3.559,-3.559,-3.5503,-3.5244,-3.5007,-3.4781,-3.4505,-3.4327,-3.4246,-3.4246,-3.355,-3.3145,-3.3145,-3.2886,-3.3113,-3.3825,-3.4538,-3.4667,-3.4262,-3.5639,-3.5574,-3.4279,-3.5169,-3.572,-3.5946,-3.5946,-3.6869,-3.8391,-3.8391,-3.8391,-3.8391,-3.8391,-3.8391,-3.8391,-3.8391,-3.8391,-3.8335,0.0,0.0,0.0,0.0,0.0,0.0,0.0,0.0,0.0,0.0,0.0,0.0,0.0,0.0,-1.9213,-1.9157,-1.9265,-1.9358,-1.9395,-1.9483,-1.9541,-1.9599,-1.9844,-1.9967,-1.9967,-2.0276,0.0,0.0,0.0,0.0,0.0,-2.4128,-2.4777,-2.5613,-2.6118,-2.6474,0.0,0.0,0.0,-2.662,0.0,0.0,-2.5656,0.0,0.0,0.0,0.0,0.0,0.0,0.0,-2.6119,-2.6561,-2.6479,-2.657,-2.6604,-2.6118,-2.5775,0.0,0.0,0.0,0.0,0.0,0.0,0.0,0.0,0.0,0.0,0.0,0.0,0.0,0.0,0.0,0.0,0.0,-3.3712,-3.3566,-3.4052,-3.4117,-3.4117,-3.4117,-3.4117,-3.4117,-3.4117,-3.368,-3.3404,-3.3404,-3.2983,-3.2724,-3.2724,-3.2271,-3.2012,-3.2012,-3.2012,-3.2238,-3.2724,-3.3161,-3.3161,-3.274,-3.4424,-3.4473,-3.3129,-3.4295,-3.4984,-3.5211,-3.5211,-3.627,-3.8035,-3.8035,-3.8181,-3.8363,-3.8148,-3.8062,-3.8062,-3.8062,-3.8062,-3.8004,0.0,0.0,0.0,0.0,0.0,0.0,0.0,0.0,0.0,-1.8129,0.0,0.0,0.0,0.0,0.0,-1.9284,-1.9358,-1.9395,-1.9395,-1.9409,-1.9424,-1.9424,-2.0142,-2.0525,-2.0525,-2.0921,0.0,0.0,0.0,0.0,0.0,0.0,-2.4588,-2.5597,-2.5613,-2.6018,-2.6733,0.0,-2.7284,-2.6629,0.0,-2.5252,-2.5782,0.0,0.0,0.0,-2.8629,-2.7987,0.0,-2.5577,0.0,0.0,0.0,0.0,-2.6697,0.0,0.0,0.0,0.0,0.0,0.0,0.0,0.0,0.0,0.0,0.0,0.0,0.0,0.0,0.0,0.0,0.0,0.0,0.0,-3.1898,-3.1947,-3.1963,-3.1996,-3.2012,-3.2012,-3.2012,-3.2012,-3.2012,-3.2012,-3.1996,-3.1979,-3.1947,-3.1947,-3.1947,-3.1931,-3.1915,-3.1915,-3.1915,-3.1931,-3.1947,-3.1963,-3.1979,-3.1979,-3.2708,-3.3072,-3.3048,-3.3744,-3.4457,-3.5146,-3.5163,-3.5946,-3.7203,-3.7235,-3.7716,-3.8307,-3.7623,-3.7387,-3.7417,-3.7387,-3.7387,-3.7387,0.0,0.0,0.0,0.0,0.0,0.0,0.0,0.0,-1.8491,0.0,0.0,0.0,-1.9087,-1.9101,-1.9101,-1.9139,-1.9157,-1.9213,-1.9321,-1.9742,-2.001,-2.0121,-2.0838,-2.1218,-2.1218,-2.1633,0.0,0.0,0.0,0.0,0.0,0.0,0.0,0.0,-2.5865,-2.6278,-2.6685,-2.6345,0.0,0.0,-2.6534,-2.6675,0.0,0.0,0.0,0.0,0.0,-2.6757,-2.6453,0.0,-2.6329,-2.7372,0.0,0.0,0.0,0.0,0.0,0.0,-2.5726,0.0,0.0,0.0,0.0,0.0,0.0,0.0,0.0,0.0,0.0,0.0,0.0,0.0,0.0,0.0,-2.9475,-3.0635,-3.1131,-3.1648,-3.2012,-3.2012,-3.2012,-3.2012,-3.2012,-3.2012,-3.1785,0.0,-3.0749,-3.048,-3.048,-2.9994,-2.968,-2.968,-2.968,-2.9945,-3.048,-3.0975,-3.1195,-3.1212,-3.1963,-3.2028,-3.1535,-3.2805,-3.3494,-3.3721,-3.4182,-3.4677,-3.52,-3.6186,-3.7001,-3.7594,-3.6936,-3.6966,-3.7342,-3.686,-3.6677,-3.6615,0.0,0.0,0.0,0.0,0.0,0.0,0.0,0.0,-1.9072,0.0,0.0,0.0,-1.9493,-1.974,-1.9885,-1.9885,-1.9885,-1.9938,-1.9997,-2.0347,-2.0571,-2.0651,-2.1377,-2.1792,-2.1792,-2.2109,0.0,0.0,0.0,0.0,0.0,0.0,0.0,0.0,0.0,0.0,0.0,0.0,0.0,0.0,-2.7179,0.0,0.0,-2.7503,-2.6879,0.0,0.0,0.0,-2.6204,-2.5222,-2.6004,0.0,0.0,0.0,0.0,0.0,0.0,0.0,0.0,0.0,0.0,0.0,0.0,0.0,-2.429,-2.4079,-2.3885,0.0,0.0,0.0,0.0,0.0,0.0,0.0,-2.6656,-2.8098,-2.9367,-2.9933,-3.0214,-3.0214,-3.0214,-3.0214,-3.0214,-3.0214,-3.0014,-2.9594,-2.9194,-2.8989,-2.8989,-2.8563,-2.8336,-2.8336,-2.8336,-2.8713,-2.9426,-2.9826,-3.0182,-3.049,-3.1195,-3.1309,-3.0953,-3.2433,-3.308,-3.3129,-3.3809,-3.401,-3.3935,-3.4716,-3.5495,-3.6138,-3.5723,-3.5799,-3.6121,-3.6027,-3.5977,-3.5914,0.0,0.0,0.0,0.0,0.0,0.0,0.0,0.0,0.0,0.0,-1.958,-1.9464,-2.0132,-2.0669,-2.1003,-2.1003,-2.1003,-2.1003,-2.1003,-2.1061,-2.1104,-2.1104,-2.1885,-2.23,-2.23,-2.2499,0.0,0.0,0.0,0.0,0.0,0.0,0.0,0.0,0.0,0.0,0.0,0.0,0.0,-2.7722,-2.7543,-2.7292,0.0,0.0,-2.7235,-2.6782,-2.731,-2.6851,-2.5779,-2.4471,-2.479,0.0,0.0,0.0,0.0,0.0,-2.6957,0.0,0.0,0.0,0.0,0.0,0.0,0.0,-2.4175,-2.377,-2.3608,-2.2782,0.0,0.0,0.0,0.0,0.0,0.0,0.0,-2.5098,-2.7167,-2.7543,-2.7624,-2.7688,-2.7705,-2.7705,-2.7705,-2.7705,-2.7672,-2.7591,-2.7591,-2.7591,-2.7591,-2.7591,-2.7591,-2.7591,-2.7591,-2.7899,-2.8568,-2.8709,-2.9135,-2.9783,-3.0474,-3.0768,-3.0755,-3.2151,-3.2741,-3.2724,-3.3482,-3.3477,-3.2979,-3.3056,-3.3604,-3.4386,-3.4224,-3.4276,-3.4474,-3.5006,-3.5242,-3.5302,-1.8874,0.0,0.0,0.0,0.0,0.0,0.0,0.0,0.0,-2.0146,-1.9986,-2.0132,-2.0756,-2.093,-2.1003,-2.1003,-2.1003,-2.1003,-2.1003,-2.1496,-2.1801,-2.1801,-2.252,-2.2915,-2.2915,-2.3076,0.0,0.0,0.0,0.0,0.0,0.0,0.0,0.0,0.0,0.0,0.0,0.0,0.0,-2.7929,-2.7895,0.0,-2.8006,-2.7659,-2.7217,-2.6787,-2.6904,-2.6473,-2.5752,-2.5092,-2.5037,-2.5405,0.0,0.0,0.0,0.0,0.0,0.0,0.0,0.0,0.0,0.0,0.0,0.0,-2.5406,-2.5483,-2.5551,0.0,0.0,0.0,0.0,0.0,0.0,0.0,0.0,-2.4102,-2.5775,-2.6523,-2.7106,-2.764,-2.7705,-2.7705,-2.7705,-2.7705,-2.7478,-2.6927,-2.6895,-2.6895,-2.6895,-2.6895,-2.6895,-2.6895,-2.6895,-2.696,-2.7106,-2.8223,-2.8876,-2.9021,-2.9751,-2.9875,-2.9489,-3.0323,-3.0472,-3.0198,-3.1405,-3.1597,-3.1106,-3.1635,-3.2569,-3.3638,-3.309,-3.3492,-3.4366,-3.3983,-3.4196,-3.4601,-1.8908,0.0,0.0,0.0,0.0,0.0,0.0,0.0,-2.0669,-2.1003,-2.1301,-2.1489,-2.1496,-2.1772,-2.1953,-2.1953,-2.1953,-2.1953,-2.1953,-2.2258,-2.2446,-2.2446,-2.2796,-2.2992,-2.2992,-2.3135,0.0,0.0,0.0,0.0,0.0,0.0,0.0,0.0,0.0,0.0,0.0,0.0,-2.8446,-2.8719,-2.8325,0.0,-2.7864,-2.7342,-2.6985,-2.6806,-2.6806,-2.6384,-2.5759,-2.5515,-2.5755,0.0,0.0,-2.6318,-2.663,0.0,-2.6603,-2.6434,0.0,0.0,0.0,-2.7669,0.0,0.0,0.0,-2.5375,-2.5048,-2.3971,-2.3747,0.0,0.0,0.0,0.0,0.0,-2.319,-2.3242,-2.4705,-2.5026,-2.523,-2.5567,-2.5619,-2.5619,-2.5619,-2.5619,-2.56,-2.56,-2.56,-2.5762,-2.6134,-2.615,-2.615,-2.615,-2.615,-2.6328,-2.6701,-2.7721,-2.8433,-2.8806,-2.954,-2.9621,-2.9129,-2.9793,-3.0017,-2.9899,-3.0942,-3.1265,-3.1014,-3.1374,-3.1722,-3.2061,-3.1999,-3.2399,-3.2943,-3.299,-3.3398,-3.3935,-1.896,0.0,0.0,0.0,0.0,0.0,0.0,0.0,-2.1017,-2.2048,-2.2504,-2.2591,-2.2222,-2.262,-2.2989,-2.3273,-2.3047,-2.3047,-2.3432,-2.3105,-2.2946,-2.3099,-2.296,-2.2888,-2.2888,-2.3015,-2.306,0.0,0.0,0.0,0.0,0.0,0.0,0.0,0.0,0.0,0.0,0.0,0.0,-2.9098,0.0,-2.8036,-2.759,-2.7026,-2.6806,-2.6791,-2.6634,-2.6355,-2.5952,-2.5847,-2.6407,-2.6942,-2.5966,-2.6217,0.0,0.0,0.0,0.0,0.0,0.0,0.0,0.0,0.0,-2.7506,0.0,0.0,0.0,-2.3845,-2.359,0.0,0.0,0.0,0.0,0.0,0.0,0.0,0.0,-2.3738,0.0,-2.3816,-2.364,-2.3544,-2.3655,-2.3672,-2.39,-2.4468,-2.4594,-2.495,-2.5565,-2.5597,-2.5597,-2.5597,-2.5597,-2.5891,-2.6474,-2.7183,-2.7835,-2.8452,-2.9219,-2.9296,-2.8811,-2.9351,-2.962,-2.9672,-3.0506,-3.0915,-3.0992,-3.1246,-3.1029,-3.0656,-3.1134,-3.1409,-3.1553,-3.2104,-3.273,-3.3344,-1.8817,-1.8927,0.0,0.0,0.0,0.0,0.0,0.0,-2.2627,-2.2772,-2.2388,-2.2294,0.0,0.0,0.0,0.0,0.0,0.0,-2.5357,0.0,-2.3171,-2.376,-2.3215,-2.2888,-2.2888,-2.2925,-2.2925,-2.2925,0.0,0.0,0.0,0.0,0.0,0.0,-2.6149,0.0,0.0,0.0,-2.8338,0.0,-2.8076,-2.8158,0.0,-2.7167,-2.6806,-2.6733,-2.6137,-2.6253,-2.6617,0.0,-2.6253,-2.6931,0.0,-2.6429,-2.5446,0.0,0.0,0.0,0.0,0.0,0.0,0.0,-2.8682,0.0,0.0,0.0,-2.667,-2.5982,0.0,0.0,0.0,0.0,0.0,0.0,0.0,0.0,-2.4092,-2.3542,-2.3631,-2.4948,-2.415,-2.3704,-2.4259,-2.4289,-2.436,-2.4482,-2.4989,-2.5389,-2.5597,-2.5597,-2.5597,-2.5597,-2.5597,-2.5646,-2.571,-2.6564,-2.7041,-2.7136,-2.8038,-2.8192,-2.7675,-2.775,-2.7593,-2.7267,-2.8466,-2.9009,-2.9127,-3.025,-3.0657,-3.0612,-3.0685,-3.1032,-3.1495,-3.1582,-3.2063,-3.2701,-1.8716,-1.8884,0.0,0.0,0.0,0.0,0.0,0.0,0.0,-2.2946,-2.3331,0.0,0.0,0.0,0.0,0.0,0.0,-2.4201,0.0,0.0,-2.32,0.0,0.0,0.0,-2.3484,-2.3824,-2.3989,-2.3989,-2.4273,0.0,0.0,0.0,0.0,0.0,-2.6066,0.0,-2.7353,0.0,0.0,0.0,0.0,0.0,0.0,-2.721,-2.6806,-2.675,-2.6486,-2.6547,-2.6762,0.0,-2.7106,0.0,0.0,0.0,0.0,0.0,0.0,0.0,0.0,0.0,0.0,0.0,0.0,0.0,-2.7608,0.0,-2.6419,0.0,0.0,0.0,0.0,0.0,0.0,0.0,-2.4512,0.0,0.0,0.0,-2.3337,0.0,0.0,0.0,-2.3129,-2.3129,-2.3181,-2.3268,-2.4247,-2.4874,-2.4968,-2.5373,-2.5597,-2.5597,-2.5597,-2.5597,-2.5597,-2.6454,-2.6908,-2.6902,-2.7853,-2.8021,-2.7515,-2.7515,-2.7447,-2.736,-2.7897,-2.855,-2.9261,-2.9798,-3.0248,-3.0598,-3.0598,-3.0757,-3.0974,-3.0974,-3.1627,-3.2556,-1.9163,0.0,0.0,0.0,0.0,0.0,0.0,0.0,0.0,0.0,0.0,0.0,-2.4795,-2.54,0.0,0.0,-2.5589,-2.5313,0.0,0.0,-2.365,0.0,0.0,0.0,0.0,0.0,-2.481,-2.481,0.0,0.0,0.0,0.0,0.0,0.0,0.0,-2.6612,-2.7269,0.0,0.0,-2.8449,-2.7708,-2.7747,-2.8157,-2.717,-2.6806,-2.6806,-2.6806,-2.6806,-2.6849,-2.6982,-2.7731,-2.8338,-2.7006,0.0,0.0,0.0,0.0,0.0,-2.7147,0.0,0.0,0.0,0.0,0.0,0.0,0.0,0.0,0.0,0.0,0.0,0.0,0.0,0.0,0.0,0.0,-2.4509,0.0,0.0,0.0,0.0,0.0,0.0,0.0,-2.261,-2.271,-2.2635,-2.3887,-2.4595,-2.4499,-2.5211,-2.5524,-2.5413,-2.5524,-2.5524,-2.5413,-2.6272,-2.6707,-2.6723,-2.7515,-2.7665,-2.7302,-2.7302,-2.735,-2.7449,-2.7623,-2.8217,-2.9102,-2.945,-2.99,-3.0335,-3.0539,-3.0598,-3.0598,-3.0598,-3.1208,-3.2034,-2.043,-1.999,0.0,0.0,0.0,0.0,0.0,0.0,0.0,0.0,0.0,0.0,0.0,0.0,0.0,0.0,0.0,-2.7244,-2.8476,0.0,-2.4781,0.0,0.0,-2.4559,0.0,0.0,0.0,0.0,0.0,0.0,0.0,0.0,0.0,0.0,0.0,-2.6843,-2.7029,-2.7269,-2.7273,-2.7085,-2.7314,-2.7527,-2.765,0.0,-2.6806,-2.6806,-2.6806,0.0,-2.6881,-2.7463,-2.7695,-2.7826,-2.8405,-2.7794,0.0,0.0,0.0,0.0,0.0,0.0,0.0,-2.7765,0.0,0.0,0.0,0.0,-2.7488,0.0,0.0,0.0,0.0,0.0,-2.5005,-2.5005,-2.4989,0.0,0.0,0.0,0.0,0.0,0.0,0.0,0.0,-2.3665,-2.3832,-2.3307,-2.4502,-2.5053,-2.4531,-2.5211,-2.5394,-2.4938,-2.5375,-2.5375,-2.4922,-2.5799,-2.6213,-2.6244,-2.6648,-2.6832,-2.6806,-2.6806,-2.682,-2.6852,-2.7434,-2.7724,-2.7855,-2.9087,-2.961,-2.9697,-3.0335,-3.0598,-3.0598,-3.0598,-3.0627,-3.0845,0.0,0.0,0.0,0.0,0.0,0.0,0.0,-2.4085,0.0,0.0,0.0,0.0,0.0,-2.9203,-2.9682,0.0,0.0,-2.861,-2.8497,-2.7016,0.0,0.0,0.0,-2.622,0.0,0.0,0.0,0.0,0.0,0.0,0.0,0.0,0.0,0.0,0.0,-2.6425,0.0,0.0,0.0,0.0,0.0,-2.8048,-2.7681,0.0,-2.7391,-2.7345,-2.6924,-2.6806,-2.6849,-2.7041,-2.7389,-2.7666,-2.749,-2.7418,-2.7374,-2.7157,-2.6794,-2.6556,-2.6904,-2.6283,-2.5831,-2.7011,-2.6728,0.0,0.0,0.0,0.0,0.0,0.0,0.0,0.0,0.0,-2.5523,-2.5065,-2.5005,-2.5005,0.0,0.0,0.0,0.0,0.0,0.0,0.0,0.0,-2.3195,-2.263,-2.3612,-2.4124,-2.3851,-2.466,-2.5056,-2.4902,-2.5056,-2.4934,-2.4513,-2.5324,-2.5545,-2.5153,-2.6281,-2.6573,-2.6141,-2.6617,-2.6806,-2.682,-2.7012,-2.7345,-2.7768,-2.8652,-2.9247,-2.9653,-3.0321,-3.0598,-3.0598,-3.0598,-3.0843,-3.138,-2.1032,0.0,0.0,0.0,0.0,0.0,0.0,0.0,0.0,0.0,-2.803,0.0,-3.0496,0.0,-3.1453,0.0,-3.0887,-3.0218,-2.9262,-2.832,0.0,-2.6751,-2.7315,0.0,0.0,0.0,0.0,0.0,0.0,-2.7012,0.0,0.0,0.0,0.0,0.0,0.0,0.0,0.0,-2.6837,0.0,0.0,-2.8434,0.0,0.0,-2.7898,-2.7623,-2.7012,-2.6806,-2.6806,-2.6806,-2.7055,-2.7316,-2.691,-2.707,-2.7316,-2.6895,-2.6806,-2.6806,-2.6806,-2.617,-2.5734,-2.668,-2.6421,-2.6169,-2.7168,0.0,-2.7474,0.0,0.0,0.0,0.0,0.0,-2.554,-2.5103,-2.4943,-2.4886,0.0,-2.5005,0.0,0.0,0.0,0.0,0.0,0.0,-2.3428,-2.2577,-2.3446,-2.3897,-2.3601,-2.4283,-2.4619,-2.4441,-2.4599,-2.4477,-2.4073,-2.501,-2.5299,-2.494,-2.6205,-2.6562,-2.6181,-2.6617,-2.6806,-2.6806,-2.6806,-2.7012,-2.7461,-2.8332,-2.8927,-2.9377,-3.0234,-3.0598,-3.0598,-3.0598,-3.1119,-3.1973,0.0,0.0,0.0,0.0,-2.2644,0.0,0.0,0.0,-2.7289,0.0,-2.8453,-2.9838,-3.0698,-3.1293,-3.1886,-3.2556,-3.2553,-3.2002,-3.08,-3.0059,0.0,0.0,-2.7577,-2.7206,-2.637,0.0,0.0,0.0,0.0,0.0,0.0,0.0,0.0,0.0,-2.7478,0.0,-2.6936,-2.7492,-2.7432,-2.7009,-2.8215,-2.8709,-2.8709,-2.8665,-2.826,-2.7623,-2.7012,-2.6806,-2.6806,-2.6806,-2.6806,-2.6806,-2.6806,-2.6806,-2.6806,-2.6806,-2.6806,-2.6806,-2.6806,-2.6791,-2.6762,-2.6806,-2.6791,-2.6803,-2.6937,-2.7181,-2.7393,0.0,0.0,0.0,0.0,0.0,-2.514,-2.5109,-2.4791,-2.465,0.0,0.0,0.0,0.0,0.0,0.0,0.0,-2.4613,-2.4407,-2.3155,-2.3994,0.0,0.0,-2.4075,-2.4103,-2.3616,-2.4015,-2.4067,-2.3633,-2.4843,-2.5461,-2.5476,-2.637,-2.6791,-2.6736,-2.6765,-2.6806,-2.6806,-2.6806,-2.6806,-2.6907,-2.8186,-2.8709,-2.884,-3.0104,-3.0598,-3.0598,-3.0598,-3.1395,-3.2481,-2.2689,-2.3592,-2.4399,0.0,-2.4497,-2.456,0.0,0.0,0.0,0.0,-3.0584,-3.1811,-3.3278,-3.3425,-3.3566,-3.3873,-3.3353,0.0,0.0,0.0,0.0,-2.911,-2.8881,-2.8226,-2.7054,-2.7252,0.0,-2.6712,0.0,0.0,-2.7463,0.0,0.0,0.0,0.0,0.0,-2.8229,-2.8361,-2.8347,-2.8244,-2.8578,-2.8709,-2.8665,-2.8158,-2.7786,-2.7487,-2.6985,-2.6806,-2.6806,-2.6806,-2.6806,-2.6806,-2.6806,-2.6806,-2.6806,-2.6806,-2.6806,-2.6806,-2.6806,-2.6442,-2.6195,-2.6689,-2.6442,-2.6195,-2.673,-2.6762,-2.6669,-2.6703,-2.6455,-2.6221,-2.6213,-2.5978,-2.5606,0.0,0.0,0.0,0.0,0.0,0.0,-2.5164,0.0,0.0,-2.446,-2.421,-2.3622,-2.2593,-2.3492,-2.3641,-2.264,-2.391,-2.4338,-2.361,-2.3717,-2.3805,-2.3837,-2.4595,-2.499,-2.5004,-2.6206,-2.6559,-2.6054,-2.6562,-2.6806,-2.6806,-2.6806,-2.6806,-2.6907,-2.8186,-2.8709,-2.884,-3.0104,-3.0598,-3.0598,-3.0598,-3.1395,-3.2481,-2.3464,0.0,0.0,-2.6231,0.0,0.0,-2.697,-2.7612,0.0,-3.0664,-3.1495,0.0,-3.3724,-3.3969,-3.4054,-3.4191,-3.3758,0.0,-3.2925,0.0,0.0,-3.0164,-2.9203,-2.831,-2.7542,-2.7328,0.0,-2.689,0.0,0.0,-2.7614,0.0,0.0,0.0,0.0,-2.8942,0.0,-2.839,-2.8391,-2.8595,-2.8278,-2.8148,0.0,-2.7661,-2.7304,-2.6935,-2.6697,-2.6606,-2.6686,-2.6686,-2.6686,-2.6645,-2.6606,-2.6606,-2.6686,-2.6686,-2.6712,-2.6806,-2.6806,-2.653,-2.6341,-2.6718,-2.653,-2.6341,-2.6718,-2.6696,-2.6482,-2.6188,-2.6031,-2.5819,-2.5527,-2.5514,-2.5465,0.0,0.0,0.0,0.0,0.0,0.0,0.0,-2.4567,-2.4414,-2.4333,-2.4029,-2.354,-2.2817,-2.3669,-2.393,0.0,-2.4043,-2.4253,-2.3747,-2.4256,-2.4347,-2.3891,-2.5332,-2.5796,-2.5255,-2.63,-2.6617,-2.6253,-2.6646,-2.6806,-2.6806,-2.6806,-2.6806,-2.6907,-2.8186,-2.8709,-2.884,-3.0104,-3.0598,-3.0598,-3.0598,-3.1221,-3.2046,0.0,0.0,0.0,0.0,0.0,0.0,0.0,-2.9314,0.0,-3.1228,0.0,-3.2406,-3.3183,-3.3622,-3.3862,-3.3896,0.0,-3.3619,-3.3034,-3.2349,-3.161,-3.0928,-2.9029,-2.7923,-2.7834,-2.7244,0.0,0.0,0.0,0.0,0.0,0.0,0.0,0.0,0.0,0.0,0.0,-2.8161,-2.8134,-2.8411,-2.7721,-2.7407,-2.7282,-2.7211,-2.6784,-2.6286,-2.6286,-2.6379,-2.6457,-2.6457,-2.6457,-2.6431,-2.6326,-2.6379,-2.6457,-2.6457,-2.6592,-2.6727,-2.6727,-2.6727,-2.6727,-2.6727,-2.6727,-2.6727,-2.6753,-2.6695,-2.6463,-2.5934,-2.5745,-2.5502,-2.4911,-2.4883,-2.5077,0.0,0.0,0.0,0.0,0.0,0.0,0.0,0.0,0.0,-2.4079,-2.4076,-2.3842,-2.3303,-2.4157,0.0,0.0,0.0,-2.4113,-2.3775,-2.4946,-2.5149,-2.4283,-2.6402,-2.7026,-2.617,-2.6617,-2.6806,-2.6806,-2.6806,-2.6806,-2.6806,-2.6806,-2.6806,-2.6907,-2.8186,-2.8811,-2.9072,-3.0176,-3.0598,-3.0598,-3.0598,-3.0916,-3.1424,0.0,0.0,0.0,0.0,0.0,-3.0215,-3.0718,-3.0979,-3.1259,-3.1718,-3.2523,-3.3239,-3.3711,-3.3707,-3.3709,-3.3896,-3.3744,0.0,0.0,0.0,0.0,-3.1382,-2.9102,-2.7893,-2.7951,-2.6764,-2.6536,0.0,0.0,0.0,0.0,0.0,0.0,0.0,0.0,0.0,-2.9261,-2.916,0.0,-2.8211,-2.7582,-2.7324,-2.7239,-2.6697,-2.6318,-2.6138,-2.626,-2.6313,-2.634,-2.634,-2.634,-2.6326,-2.6313,-2.6313,-2.634,-2.634,-2.6367,-2.6394,-2.6394,-2.6394,-2.6394,-2.6394,-2.6394,-2.642,-2.6525,-2.6162,-2.5798,-2.5796,-2.5386,-2.4994,-2.4839,-2.481,-2.4849,-2.4839,0.0,0.0,0.0,0.0,0.0,0.0,0.0,-2.351,-2.4185,-2.4395,-2.3954,0.0,0.0,0.0,0.0,-2.4135,-2.447,-2.3113,-2.3833,-2.4902,-2.6283,-2.6184,-2.6849,-2.8186,-2.7256,-2.6806,-2.6806,-2.6806,-2.6806,-2.6806,-2.6806,-2.6806,-2.6907,-2.8186,-2.9319,-3.0292,-3.051,-3.0598,-3.0598,-3.0598,-3.067,-3.0932,0.0,0.0,0.0,0.0,0.0,0.0,0.0,-3.1557,-3.193,-3.2231,-3.2362,-3.2673,-3.3169,-3.3372,-3.3466,-3.357,-3.3501,-3.3431,-3.3431,-3.2207,-3.1485,-3.1485,-2.9406,0.0,-2.7907,-2.6877,-2.6792,-2.7669,0.0,0.0,0.0,0.0,0.0,0.0,0.0,-2.9619,0.0,0.0,-2.8054,-2.757,-2.693,-2.6646,-2.6521,-2.6211,-2.6056,-2.6002,-2.6056,-2.6084,-2.6084,-2.6179,-2.6206,-2.6179,-2.6111,-2.6138,-2.6206,-2.6206,-2.626,-2.6313,-2.6313,-2.6313,-2.6313,-2.6313,-2.6353,-2.6418,-2.6484,-2.6361,-2.611,-2.5777,-2.5474,-2.5145,-2.4725,-2.4951,-2.5066,-2.465,0.0,0.0,0.0,0.0,0.0,0.0,0.0,0.0,0.0,0.0,0.0,0.0,0.0,0.0,0.0,-2.4593,-2.4813,-2.3963,-2.4892,-2.5701,-2.6283,-2.6965,-2.7391,-2.7541,-2.7043,-2.6753,-2.6659,-2.7086,-2.7099,-2.6835,-2.7128,-2.7084,-2.6907,-2.8186,-2.945,-3.0598,-3.0598,-3.0538,-3.0447,-3.0447,-3.0387,-3.0457,0.0,-2.9767,0.0,0.0,-2.9829,0.0,-3.077,-3.1586,-3.2247,-3.2692,-3.2348,-3.2235,-3.2715,-3.3086,-3.329,-3.329,-3.329,-3.3234,-3.3108,-3.2103,-3.1429,-3.1288,-2.9617,-2.8408,-2.7819,-2.7144,-2.7088,0.0,0.0,-2.7581,-2.8702,0.0,0.0,0.0,0.0,0.0,-2.8857,-2.7725,-2.71,-2.6805,-2.6282,-2.5975,-2.5893,-2.5893,-2.5893,-2.5893,-2.5893,-2.5893,-2.5921,-2.6029,-2.6056,-2.6029,-2.5921,-2.5975,-2.6056,-2.6056,-2.6111,-2.6206,-2.6206,-2.6206,-2.6206,-2.6206,-2.6285,-2.6377,-2.6404,-2.6539,-2.6477,-2.5868,-2.5667,-2.5426,-2.4966,-2.5245,-2.5357,-2.4755,-2.4669,0.0,0.0,0.0,0.0,0.0,0.0,0.0,-2.3029,0.0,0.0,0.0,0.0,0.0,-2.4766,-2.497,-2.5034,-2.4878,-2.5981,-2.6518,-2.6376,-2.7781,-2.8017,-2.7075,-2.7163,-2.7091,-2.6942,-2.7597,-2.765,-2.7241,-2.7708,-2.7723,-2.7461,-2.8435,-2.9523,-3.0538,-3.0507,-3.0387,-3.028,-3.0379,-3.0389,-3.0356,0.0,0.0,0.0,0.0,0.0,-2.9738,-2.9826,-3.1116,-3.2362,-3.3122,-3.3185,-3.3157,-3.3227,-3.3283,-3.329,-3.329,-3.329,-3.3087,-3.2525,-3.1864,-3.1232,-3.061,-2.9378,-2.8408,-2.7819,-2.7144,-2.6933,0.0,0.0,-2.785,-2.8109,-2.9199,0.0,-2.9183,-2.9183,-2.8511,-2.73,-2.7172,-2.6692,-2.6005,-2.5949,-2.5921,-2.5893,-2.5893,-2.5893,-2.5893,-2.5893,-2.5893,-2.5893,-2.5921,-2.5921,-2.5921,-2.5893,-2.5921,-2.5921,-2.5921,-2.5921,-2.5948,-2.5948,-2.5948,-2.5948,-2.5948,-2.5948,-2.6002,-2.6111,-2.6138,-2.6177,-2.6228,-2.5797,-2.5554,-2.6042,-2.5754,-2.5371,-2.5171,-2.479,-2.4191,0.0,0.0,0.0,0.0,0.0,0.0,0.0,-2.3894,0.0,0.0,-2.4369,0.0,0.0,-2.4697,-2.5019,-2.481,-2.5517,-2.6666,-2.8236,-2.7958,-2.8179,-2.8941,-2.8669,-2.8408,-2.8239,-2.8508,-2.8593,-2.8534,-2.8593,-2.8884,-2.9334,-2.9334,-2.9722,-3.0326,-3.0189,-3.0142,-3.0183,-3.0723,-3.0922,-3.1008,0.0,0.0,0.0,0.0,0.0,0.0,-2.9618,-3.0226,-3.0932,-3.1759,-3.2704,-3.329,-3.329,-3.329,-3.329,-3.329,-3.329,-3.3178,-3.2974,-3.2033,-3.1373,-3.112,-2.9912,-2.8788,-2.7833,-2.7552,-2.7229,0.0,0.0,0.0,-2.8443,-2.8892,-2.8884,-2.8452,-2.7967,-2.7513,-2.7073,-2.658,-2.6201,-2.5893,-2.5893,-2.5893,-2.5893,-2.5893,-2.5893,-2.5893,-2.5893,-2.5893,-2.5893,-2.5893,-2.5893,-2.5893,-2.5893,-2.5893,-2.5893,-2.5893,-2.5893,-2.5893,-2.5893,-2.5893,-2.5893,-2.5893,-2.5948,-2.6029,-2.6084,-2.6165,-2.6206,-2.6206,-2.5912,-2.5646,-2.5533,-2.5684,-2.5528,-2.4688,-2.445,-2.4092,0.0,0.0,0.0,0.0,0.0,0.0,0.0,-2.3975,0.0,0.0,0.0,0.0,-2.5048,-2.5344,-2.5664,-2.5995,-2.5865,-2.6654,-2.8425,-2.7876,-2.7866,-2.8465,-2.8426,-2.8312,-2.8182,-2.8684,-2.8943,-2.8915,-2.8541,-2.8728,-2.9288,-2.9229,-2.9615,-3.0158,-3.0111,-3.0036,-3.0,-3.064,-3.0786,-3.0831,-3.0024,-2.9707,-2.934,-2.9162,-2.8799,-2.8676,-2.9279,-2.9549,-2.9884,-3.0481,-3.1723,-3.2668,-3.2931,-3.2931,-3.3051,-3.329,-3.3086,-3.2981,-3.3024,-3.2075,-3.1401,-3.1204,-3.0178,0.0,-2.8101,-2.7904,-2.7453,-2.6807,-2.727,-2.7706,-2.8141,-2.8338,-2.8174,-2.7712,-2.7088,-2.6792,-2.6706,-2.6131,-2.5893,-2.5893,-2.5893,-2.5893,-2.5893,-2.5893,-2.5893,-2.5893,-2.5893,-2.5893,-2.5893,-2.5893,-2.5893,-2.5893,-2.5893,-2.5893,-2.5893,-2.5893,-2.5893,-2.5893,-2.5893,-2.5893,-2.5893,-2.5893,-2.5975,-2.6029,-2.6029,-2.6111,-2.6165,-2.6056,-2.5975,-2.5767,-2.5358,-2.5693,-2.572,-2.4793,-2.4408,-2.4024,-2.3473,-2.2738,0.0,0.0,-2.3364,-2.3455,-2.3305,-2.418,0.0,0.0,0.0,0.0,-2.5988,-2.5843,-2.602,-2.6618,-2.6185,-2.6697,-2.8269,-2.7909,-2.7869,-2.819,-2.8566,-2.868,-2.8562,-2.9136,-2.9381,-2.9367,-2.8954,-2.9011,-2.9396,-2.9321,-2.9578,-3.0005,-2.9988,-2.995,-3.0083,-3.0764,-3.1021,-3.1199,-2.9419,-2.9406,-2.9223,-2.8618,-2.8498,-2.8498,-2.851,-2.9184,-2.9704,-2.9704,-3.0405,-3.123,-3.2051,-3.211,-3.2426,-3.3241,-3.2583,-3.2214,-3.242,-3.1836,-3.1204,0.0,-2.994,-2.9307,-2.8689,-2.8129,-2.7453,-2.6807,0.0,-2.6821,-2.6849,-2.7481,-2.7554,-2.7102,-2.6891,-2.6469,-2.5907,-2.5893,-2.5893,-2.5893,-2.5893,-2.5893,-2.5893,-2.5893,-2.5893,-2.5893,-2.5893,-2.5893,-2.5893,-2.5893,-2.5893,-2.5893,-2.5893,-2.5893,-2.5893,-2.5893,-2.5893,-2.5893,-2.5893,-2.5893,-2.5893,-2.5893,-2.5893,-2.5893,-2.5893,-2.5893,-2.5893,-2.5893,-2.5893,-2.5893,-2.5879,-2.5893,-2.5893,-2.5879,-2.488,-2.4092,-2.4078,-2.3116,0.0,-2.322,-2.3995,-2.4187,-2.3386,-2.4565,0.0,0.0,0.0,-2.5088,-2.6424,-2.5934,-2.5828,-2.6285,-2.6299,-2.6843,-2.7981,-2.814,-2.8366,-2.8689,-2.9645,-2.9976,-2.9794,-2.9991,-3.0111,-3.0111,-3.0097,-3.0097,-3.0066,-2.987,-2.9808,-2.9777,-2.9665,-2.9982,-3.0554,-3.1232,-3.1864,-3.2469,-2.8776,-2.8776,-2.8736,-2.855,-2.851,-2.851,-2.851,-2.8736,-2.8882,-2.8882,-2.9588,-3.019,-3.0456,-3.097,-3.1378,-3.1649,-3.1415,-3.1359,-3.1576,-3.1035,-3.0646,-3.0526,-2.994,-2.9125,-2.8129,-2.7904,-2.7285,-2.6188,-2.661,-2.6807,-2.6807,-2.7017,-2.6807,-2.6271,-2.6216,-2.6076,-2.5893,-2.5893,-2.5893,-2.5893,-2.5893,-2.5893,-2.5893,-2.5893,-2.5893,-2.5893,-2.5893,-2.5647,-2.5286,-2.5286,-2.4978,-2.461,-2.461,-2.5189,-2.5893,-2.5893,-2.5893,-2.5893,-2.5893,-2.5893,-2.5893,-2.5893,-2.5893,-2.5893,-2.5893,-2.5893,-2.5893,-2.5893,-2.5893,-2.5893,-2.5893,-2.5893,-2.5893,-2.5893,-2.5246,-2.457,-2.4149,-2.3666,-2.3434,-2.363,-2.4152,-2.4277,-2.3688,-2.4554,-2.4968,0.0,0.0,-2.5897,-2.5776,-2.5563,-2.611,-2.7554,-2.7197,-2.7684,-2.9199,-2.8861,-2.8884,-2.9321,-2.9611,-2.9727,-2.9651,-2.9727,-2.9772,-2.9772,-2.9772,-2.9772,-2.9758,-2.9696,-2.9651,-2.9651,-2.9634,-2.9729,-2.9968,-3.06,-3.1232,-3.1864,-2.851,-2.851,-2.851,-2.851,-2.851,-2.851,-2.851,-2.851,-2.851,-2.851,-2.8922,-2.925,-2.925,-2.9704,-3.0253,-3.0857,-3.0438,-3.0338,-3.0744,-3.003,-2.9734,-3.0095,-2.9517,-2.8976,-2.8478,-2.8044,-2.7426,-2.6596,-2.6512,-2.6469,-2.6469,-2.6469,-2.6259,-2.5893,-2.5893,-2.5893,-2.5893,-2.5893,-2.5893,-2.5893,-2.5893,-2.5893,-2.5893,-2.5893,-2.5757,-2.5564,-2.5564,-2.516,-2.4637,-2.4637,-2.4366,-2.3992,-2.3992,-2.4553,-2.5189,-2.5189,-2.5342,-2.5564,-2.5564,-2.5564,-2.5564,-2.5564,-2.537,-2.5258,-2.5495,-2.5564,-2.5619,-2.5839,-2.5893,-2.5893,-2.5893,-2.5893,-2.5893,-2.5893,-2.5203,-2.4587,-2.4406,-2.3858,-2.3573,0.0,-2.43,-2.4356,-2.3685,-2.4238,-2.4498,-2.4094,0.0,-2.5186,-2.4927,-2.5673,-2.6586,-2.7641,-2.73,-2.7854,-2.9377,-2.9024,-2.909,-2.9602,-2.9602,-2.9602,-2.9602,-2.9602,-2.9602,-2.9602,-2.9602,-2.9602,-2.9602,-2.9602,-2.9602,-2.9602,-2.9602,-2.9757,-2.9996,-3.0343,-3.0937,-3.1583,-2.851,-2.851,-2.851,-2.851,-2.851,-2.851,-2.851,-2.851,-2.851,-2.851,-2.851,-2.851,-2.851,-2.851,-2.9106,-3.0594,-2.9592,-2.92,-2.9907,-2.8939,-2.8667,-2.9327,-2.8771,-2.8703,-2.9306,-2.8232,-2.7632,-2.762,-2.6469,-2.5893,-2.5893,-2.5893,-2.5893,-2.5893,-2.5893,-2.5893,-2.5893,-2.5893,-2.5893,-2.5893,-2.5893,-2.5893,-2.5893,-2.5839,-2.5481,-2.5005,-2.4948,-2.4509,-2.3933,-2.3933,-2.3904,-2.3888,-2.3888,-2.3888,-2.3875,-2.3992,-2.4452,-2.492,-2.492,-2.492,-2.492,-2.492,-2.4452,-2.415,-2.4793,-2.4977,-2.5174,-2.5729,-2.5839,-2.5839,-2.5839,-2.5811,-2.5784,-2.5839,-2.4885,-2.4299,-2.4752,-2.3796,-2.332,-2.3974,-2.4527,-2.4455,-2.3497,-2.3847,-2.367,-2.2489,0.0,-2.3586,-2.4177,-2.6206,-2.7186,-2.6877,-2.6877,-2.7481,-2.8745,-2.8759,-2.904,-2.9602,-2.9602,-2.9602,-2.9602,-2.9602,-2.9602,-2.9602,-2.9602,-2.9602,-2.9602,-2.9602,-2.9602,-2.9602,-2.9602,-2.9954,-3.0427,-3.0427,-3.0867,-3.1499,-2.851,-2.851,-2.851,-2.851,-2.851,-2.851,-2.851,-2.851,-2.851,-2.851,-2.851,-2.851,-2.851,-2.851,-2.8657,-2.9028,-2.876,-2.8565,-2.8481,-2.825,-2.8049,-2.7987,-2.7815,-2.7424,-2.6694,-2.6414,-2.6082,-2.5654,-2.5813,-2.5893,-2.5893,-2.5893,-2.5893,-2.5893,-2.5893,-2.5893,-2.5893,-2.5893,-2.5893,-2.5893,-2.5893,-2.5893,-2.5839,-2.5397,-2.5118,-2.4935,-2.4423,-2.3829,-2.3314,-2.3314,-2.3022,-2.2622,-2.2622,-2.2622,-2.2793,-2.3741,-2.4108,-2.4237,-2.4237,-2.4237,-2.4237,-2.4237,-2.4121,-2.4021,-2.4208,-2.4637,-2.5033,-2.5174,-2.5202,-2.5202,-2.5202,-2.4794,-2.461,-2.5132,-2.4831,-2.4614,-2.4784,-2.4856,-2.4748,-2.4415,-2.4941,-2.5105,-2.4497,-2.4567,-2.4565,-2.4334,-2.5001,-2.541,-2.5485,-2.6961,-2.7754,-2.758,-2.7551,-2.8141,-2.9378,-2.9392,-2.9462,-2.9602,-2.9602,-2.9602,-2.9602,-2.9602,-2.9602,-2.9602,-2.9602,-2.9602,-2.9602,-2.9602,-2.9602,-2.9602,-2.9602,-2.9701,-2.9827,-2.9827,-3.0221,-3.0769,-2.851,-2.851,-2.851,-2.851,-2.851,-2.851,-2.851,-2.851,-2.851,-2.851,-2.851,-2.851,-2.851,-2.851,-2.851,-2.851,-2.8294,-2.7944,-2.752,-2.725,-2.7092,-2.6985,-2.6771,-2.6511,-2.6209,-2.5716,-2.5129,-2.4551,-2.4879,-2.5021,-2.5021,-2.5021,-2.5021,-2.5021,-2.5021,-2.5021,-2.5021,-2.5021,-2.5021,-2.5021,-2.5021,-2.5021,-2.4992,-2.4652,-2.4366,-2.4076,-2.3712,-2.3207,-2.2702,-2.2702,-2.2469,-2.2197,-2.2197,-2.2197,-2.234,-2.2992,-2.3357,-2.3581,-2.3581,-2.3581,-2.3522,-2.325,-2.3173,-2.325,-2.3535,-2.3859,-2.4221,-2.4494,-2.4551,-2.4551,-2.4551,-2.4055,-2.3756,-2.4123,-2.4023,-2.4027,-2.4394,-2.4791,-2.4928,-2.4677,-2.5203,-2.5285,-2.4539,-2.4733,-2.4801,-2.4599,-2.5214,-2.5679,-2.5879,-2.6877,-2.7568,-2.7791,-2.8087,-2.8647,-2.9602,-2.9602,-2.9602,-2.9602,-2.9602,-2.9602,-2.9602,-2.9602,-2.9602,-2.9602,-2.9602,-2.9602,-2.9602,-2.9602,-2.9602,-2.9602,-2.9602,-2.9602,-2.9602,-2.9602,-2.9827,-3.0119,-2.851,-2.851,-2.851,-2.851,-2.851,-2.851,-2.851,-2.851,-2.851,-2.851,-2.851,-2.851,-2.851,-2.851,-2.8474,-2.8402,-2.7942,-2.7462,-2.6934,-2.6406,-2.6141,-2.6233,-2.5719,-2.5681,-2.6246,-2.5244,-2.4441,-2.3875,-2.3962,-2.3992,-2.3992,-2.3992,-2.3992,-2.3992,-2.3992,-2.3992,-2.3992,-2.3992,-2.3992,-2.3992,-2.3992,-2.3992,-2.3992,-2.3904,-2.3551,-2.3088,-2.2997,-2.2641,-2.2197,-2.2197,-2.2197,-2.2197,-2.2197,-2.2197,-2.2197,-2.2197,-2.2561,-2.295,-2.295,-2.295,-2.2841,-2.2328,-2.2197,-2.2328,-2.2859,-2.3027,-2.3267,-2.3758,-2.3875,-2.3875,-2.3875,-2.3363,-2.3039,-2.3365,-2.3132,-2.3245,-2.4217,-2.4477,-2.4666,-2.4894,-2.5492,-2.5518,-2.4613,-2.4978,-2.5105,-2.4683,-2.5035,-2.5528,-2.6146,-2.6764,-2.7355,-2.7932,-2.8422,-2.8984,-2.9602,-2.9602,-2.9602,-2.9602,-2.9602,-2.9602,-2.9602,-2.9602,-2.9602,-2.9602,-2.9602,-2.9602,-2.9602,-2.9602,-2.9602,-2.9617,-2.9715,-2.9687,-2.9617,-2.9715,-2.9687,-2.9673,-2.851,-2.851,-2.851,-2.851,-2.851,-2.851,-2.851,-2.851,-2.851,-2.851,-2.851,-2.851,-2.851,-2.851,-2.833,-2.7846,-2.7726,-2.7462,-2.6934,-2.6406,-2.5901,-2.55,-2.498,-2.4551,-2.4246,-2.3679,-2.3356,-2.3237,-2.3758,-2.3992,-2.3992,-2.3992,-2.3992,-2.3992,-2.3992,-2.3992,-2.3992,-2.3992,-2.3992,-2.3992,-2.3992,-2.3992,-2.3933,-2.3433,-2.3177,-2.3027,-2.2531,-2.2278,-2.2197,-2.2197,-2.2197,-2.2197,-2.2197,-2.2197,-2.2197,-2.2197,-2.2278,-2.2328,-2.2328,-2.2328,-2.234,-2.2216,-2.2197,-2.2216,-2.234,-2.272,-2.3118,-2.3225,-2.3237,-2.3237,-2.3237,-2.2365,-2.2286,-2.4167,-2.3299,-2.3249,-2.5681,-2.5393,-2.5093,-2.5507,-2.6176,-2.6568,-2.6399,-2.6469,-2.6708,-2.72,-2.6778,-2.6807,-2.7482,-2.8071,-2.8436,-2.8549,-2.8647,-2.8984,-2.9602,-2.9602,-2.9602,-2.9602,-2.9602,-2.9602,-2.9602,-2.9602,-2.9602,-2.9602,-2.9602,-2.9602,-2.9602,-2.9602,-2.9602,-2.9659,-3.0147,-3.0066,-2.9673,-3.0161,-3.0052,-2.9617,-2.851,-2.851,-2.851,-2.851,-2.851,-2.851,-2.851,-2.851,-2.851,-2.851,-2.851,-2.851,-2.851,-2.851,-2.8294,-2.7726,-2.7678,-2.733,-2.6538,-2.6238,-2.5865,-2.5336,-2.4807,-2.4157,-2.3396,-2.2872,-2.261,-2.261,-2.2871,-2.3022,-2.3022,-2.3022,-2.3022,-2.3022,-2.3022,-2.3022,-2.3022,-2.3022,-2.3022,-2.3022,-2.3022,-2.3022,-2.2992,-2.2732,-2.261,-2.258,-2.2309,-2.2197,-2.2197,-2.2197,-2.2197,-2.2197,-2.2197,-2.2197,-2.2197,-2.2197,-2.2197,-2.2197,-2.2197,-2.2197,-2.2197,-2.2197,-2.2197,-2.2197,-2.2197,-2.242,-2.261,-2.261,-2.261,-2.261,-2.261,-2.1952,-2.1855,-2.3242,-2.2739,-2.2781,-2.4553,-2.4786,-2.4888,-2.5179,-2.6128,-2.6746,-2.6746,-2.7124,-2.7453,-2.7791,-2.7495,-2.7607,-2.8269,-2.8535,-2.8844,-2.9167,-2.9181,-2.9321,-2.9602,-2.9602,-2.9602,-2.9602,-2.9602,-2.9602,-2.9602,-2.9602,-2.9602,-2.9602,-2.9602,-2.9602,-2.9602,-2.9602,-2.9602,-2.9673,-3.0245,-3.0119,-2.9673,-3.0273,-3.0315,-3.0052,-2.851,-2.851,-2.851,-2.851,-2.851,-2.851,-2.851,-2.851,-2.851,-2.851,-2.851,-2.851,-2.851,-2.851,-2.8294,-2.7726,-2.7678,-2.726,-2.6166,-2.6093,-2.5865,-2.5336,-2.4807,-2.4097,-2.3216,-2.2654,-2.2378,-2.2378,-2.2258,-2.2197,-2.2197,-2.2197,-2.2197,-2.2197,-2.2197,-2.2197,-2.2197,-2.2197,-2.2197,-2.2197,-2.2197,-2.2197,-2.2197,-2.2197,-2.2197,-2.2197,-2.2197,-2.2197,-2.2197,-2.2197,-2.2197,-2.2197,-2.2197,-2.2197,-2.2197,-2.2197,-2.2197,-2.2197,-2.2197,-2.2197,-2.2197,-2.2197,-2.2197,-2.2221,-2.2354,-2.2282,-2.2221,-2.2354,-2.2282,-2.2197,-2.2197,-2.1765,-2.1699,-2.2586,-2.24,-2.2563,-2.3734,-2.4346,-2.4756,-2.4957,-2.5972,-2.6653,-2.6653,-2.7154,-2.7568,-2.7721,-2.7746,-2.8031,-2.863,-2.8808,-2.9125,-2.9602,-2.9602,-2.9602,-2.9602,-2.9602,-2.9602,-2.9602,-2.9602,-2.9673,-2.9813,-2.9673,-2.9687,-2.9827,-2.9827,-2.9827,-2.9827,-2.9827,-2.9827,-2.9869,-3.0315,-3.0119,-2.9673,-3.0273,-3.0498,-3.0399,-2.851,-2.851,-2.851,-2.851,-2.851,-2.851,-2.851,-2.851,-2.851,-2.851,-2.851,-2.851,-2.851,-2.851,-2.8294,-2.7726,-2.7678,-2.726,-2.6166,-2.6093,-2.5865,-2.5336,-2.4807,-2.4266,-2.3758,-2.3228,-2.2919,-2.2919,-2.2426,-2.2197,-2.2197,-2.2197,-2.2197,-2.2197,-2.2197,-2.2197,-2.2197,-2.2197,-2.2197,-2.2197,-2.2197,-2.2197,-2.2197,-2.2197,-2.2197,-2.2197,-2.2197,-2.2197,-2.2197,-2.2197,-2.2197,-2.2197,-2.2197,-2.2197,-2.2197,-2.2197,-2.2197,-2.2197,-2.2197,-2.2197,-2.2197,-2.2197,-2.2197,-2.2318,-2.2843,-2.2546,-2.233,-2.2855,-2.2566,-2.2197,-2.2197,-2.1765,-2.191,-2.3461,-2.2948,-2.3071,-2.5075,-2.5097,-2.5033,-2.5493,-2.6114,-2.653,-2.653,-2.6549,-2.6849,-2.7479,-2.7578,-2.7872,-2.8474,-2.916,-2.956,-2.9602,-2.9602,-2.9602,-2.9602,-2.9602,-2.9602,-2.9602,-2.9602,-2.9897,-3.0399,-2.9855,-2.9912,-3.0413,-3.0413,-3.0413,-3.0413,-3.0413,-3.0413,-3.0427,-3.0469,-3.0119,-2.9673,-3.0273,-3.0498,-3.0399,-2.851,-2.851,-2.851,-2.851,-2.851,-2.851,-2.851,-2.851,-2.851,-2.851,-2.851,-2.851,-2.851,-2.851,-2.8294,-2.7726,-2.7978,-2.7753,-2.6683,-2.661,-2.6226,-2.5348,-2.4506,-2.3965,-2.3806,-2.2963,-2.2486,-2.2486,-2.2294,-2.2197,-2.2197,-2.2197,-2.2197,-2.2197,-2.2197,-2.2197,-2.2197,-2.2197,-2.2197,-2.2197,-2.2197,-2.2197,-2.2197,-2.2197,-2.2197,-2.2197,-2.2197,-2.2197,-2.2197,-2.2197,-2.2197,-2.2197,-2.2197,-2.2197,-2.2197,-2.2197,-2.2197,-2.2258,-2.2594,-2.2438,-2.2197,-2.2197,-2.2197,-2.233,-2.2891,-2.2855,-2.2867,-2.3396,-2.3348,-2.3204,-2.3204,-2.3035,-2.3228,-2.4251,-2.3758,-2.3705,-2.4888,-2.4821,-2.4709,-2.4896,-2.5803,-2.6459,-2.6459,-2.723,-2.7862,-2.809,-2.846,-2.8747,-2.8996,-2.9253,-2.9638,-3.0147,-2.9813,-2.9602,-2.9602,-2.9602,-2.9799,-3.0147,-3.0147,-3.0502,-3.112,-3.0881,-3.0895,-3.112,-3.112,-3.112,-3.112,-3.112,-3.112,-3.1162,-3.1541,-3.1316,-3.0797,-3.1036,-3.1359,-3.1541,-2.851,-2.851,-2.851,-2.851,-2.851,-2.851,-2.851,-2.851,-2.851,-2.851,-2.851,-2.851,-2.851,-2.851,-2.8366,-2.7993,-2.8294,-2.8138,-2.7198,-2.6825,-2.6262,-2.5348,-2.4626,-2.4254,-2.4254,-2.3376,-2.2847,-2.269,-2.2522,-2.2354,-2.2197,-2.2197,-2.2197,-2.2197,-2.2197,-2.2197,-2.2197,-2.2197,-2.2197,-2.2197,-2.2197,-2.2197,-2.2197,-2.2197,-2.2197,-2.2197,-2.2197,-2.2197,-2.2197,-2.2197,-2.2197,-2.2197,-2.2197,-2.2197,-2.2221,-2.239,-2.2438,-2.2558,-2.3119,-2.2999,-2.269,-2.269,-2.269,-2.2855,-2.3352,-2.334,-2.3408,-2.3893,-2.3914,-2.3806,-2.3806,-2.3806,-2.3948,-2.441,-2.4234,-2.4189,-2.4653,-2.4731,-2.4831,-2.4987,-2.5781,-2.6295,-2.6295,-2.7344,-2.7936,-2.7753,-2.871,-2.9477,-2.9961,-3.0008,-3.024,-3.0792,-3.0221,-2.9996,-3.0193,-2.9996,-3.0076,-3.0498,-3.0694,-3.1162,-3.178,-3.1583,-3.1597,-3.178,-3.178,-3.178,-3.178,-3.178,-3.178,-3.1794,-3.2033,-3.185,-3.1485,-3.1485,-3.1878,-3.2258,-2.851,-2.851,-2.851,-2.851,-2.851,-2.851,-2.851,-2.851,-2.851,-2.851,-2.851,-2.851,-2.851,-2.851,-2.851,-2.851,-2.851,-2.8282,-2.7753,-2.6707,-2.5865,-2.5336,-2.5312,-2.53,-2.53,-2.4748,-2.4278,-2.3806,-2.3276,-2.2746,-2.2197,-2.2197,-2.2197,-2.2197,-2.2197,-2.2197,-2.2197,-2.2197,-2.2197,-2.2197,-2.2197,-2.2197,-2.2197,-2.2197,-2.2197,-2.2197,-2.2197,-2.2197,-2.2197,-2.2197,-2.2197,-2.2197,-2.2197,-2.2197,-2.2306,-2.2867,-2.3023,-2.3132,-2.3661,-2.3806,-2.3806,-2.3806,-2.3806,-2.3938,-2.441,-2.4133,-2.395,-2.4388,-2.4133,-2.383,-2.383,-2.383,-2.383,-2.383,-2.4206,-2.4496,-2.4508,-2.4987,-2.5516,-2.6045,-2.6093,-2.6093,-2.6105,-2.6598,-2.6695,-2.6142,-2.8043,-2.9875,-3.1433,-3.1499,-3.1499,-3.1499,-3.0867,-3.0839,-3.1485,-3.0853,-3.0498,-3.0512,-3.119,-3.1822,-3.2398,-3.178,-3.1836,-3.2412,-3.2412,-3.2412,-3.2412,-3.2412,-3.2412,-3.2356,-3.1738,-3.1499,-3.1499,-3.1499,-3.1893,-3.2328,-2.851,-2.851,-2.851,-2.851,-2.851,-2.851,-2.851,-2.851,-2.851,-2.851,-2.851,-2.851,-2.851,-2.851,-2.851,-2.851,-2.851,-2.8282,-2.7753,-2.703,-2.6442,-2.5877,-2.5155,-2.4759,-2.4759,-2.4254,-2.395,-2.3806,-2.3276,-2.2939,-2.2739,-2.2366,-2.2197,-2.2197,-2.2197,-2.2197,-2.2197,-2.2197,-2.2197,-2.2197,-2.2197,-2.2197,-2.2197,-2.2197,-2.2197,-2.2197,-2.2197,-2.2197,-2.2197,-2.2197,-2.2197,-2.2258,-2.263,-2.3035,-2.336,-2.3517,-2.3565,-2.3685,-2.4157,-2.429,-2.4206,-2.389,-2.3806,-2.3938,-2.441,-2.441,-2.4554,-2.5444,-2.5504,-2.5516,-2.5913,-2.5673,-2.5528,-2.5925,-2.5781,-2.5757,-2.6117,-2.6009,-2.6069,-2.6585,-2.6009,-2.5841,-2.6573,-2.6907,-2.7186,-2.7408,-2.8895,-3.04,-3.1828,-3.1528,-3.153,-3.2098,-3.1527,-3.1302,-3.1485,-3.0853,-3.0933,-3.185,-3.2047,-3.2455,-3.3045,-3.2862,-3.2876,-3.3045,-3.3045,-3.3045,-3.3045,-3.3045,-3.3045,-3.3031,-3.2848,-3.2778,-3.2721,-3.23,-3.2511,-3.296,-2.8379,-2.8431,-2.851,-2.851,-2.851,-2.851,-2.851,-2.851,-2.851,-2.851,-2.851,-2.851,-2.851,-2.851,-2.851,-2.851,-2.851,-2.8378,-2.8053,-2.7306,-2.6837,-2.6743,-2.5721,-2.5047,-2.4831,-2.453,-2.4278,-2.4073,-2.3749,-2.3496,-2.3312,-2.2782,-2.251,-2.2498,-2.2282,-2.2197,-2.2197,-2.2197,-2.2197,-2.2197,-2.2197,-2.2197,-2.2197,-2.2197,-2.2197,-2.2197,-2.2197,-2.2197,-2.2197,-2.2092,-2.2092,-2.2188,-2.2715,-2.3163,-2.3565,-2.3941,-2.4073,-2.4181,-2.4687,-2.4987,-2.5071,-2.4771,-2.453,-2.4458,-2.4759,-2.4987,-2.5324,-2.5961,-2.6274,-2.6538,-2.6837,-2.6621,-2.6538,-2.6837,-2.6609,-2.655,-2.6849,-2.6609,-2.6635,-2.7138,-2.6621,-2.6477,-2.7138,-2.7542,-2.8002,-2.8612,-2.9711,-3.086,-3.2024,-3.2047,-3.227,-3.2729,-3.1853,-3.1644,-3.2216,-3.1255,-3.131,-3.2412,-3.2651,-3.296,-3.329,-3.329,-3.329,-3.329,-3.329,-3.329,-3.329,-3.329,-3.329,-3.329,-3.2931,-3.3016,-3.3164,-3.2197,-3.2244,-3.2733,-2.8179,-2.8311,-2.8431,-2.8471,-2.8471,-2.8471,-2.851,-2.851,-2.851,-2.851,-2.851,-2.851,-2.851,-2.851,-2.851,-2.851,-2.851,-2.851,-2.851,-2.7522,-2.7186,-2.7666,-2.6731,-2.5949,-2.5468,-2.5408,-2.5143,-2.4628,-2.4532,-2.4266,-2.3794,-2.3312,-2.3035,-2.2927,-2.2462,-2.2234,-2.2197,-2.2197,-2.2197,-2.2197,-2.2197,-2.2197,-2.2154,-2.2154,-2.2166,-2.2166,-2.2166,-2.2214,-2.2279,-2.2175,-2.2147,-2.223,-2.2737,-2.3045,-2.3448,-2.4352,-2.4628,-2.4748,-2.5312,-2.5805,-2.6178,-2.6178,-2.5805,-2.5456,-2.5456,-2.5829,-2.619,-2.6238,-2.6647,-2.6982,-2.703,-2.6994,-2.6982,-2.703,-2.6994,-2.6982,-2.703,-2.6994,-2.7162,-2.769,-2.7705,-2.7654,-2.775,-2.8222,-2.8843,-2.9626,-3.0367,-3.1156,-3.1928,-3.2704,-3.31,-3.31,-3.1826,-3.1799,-3.3086,-3.182,-3.1617,-3.2497,-3.3059,-3.329,-3.329,-3.329,-3.329,-3.329,-3.329,-3.329,-3.329,-3.329,-3.329,-3.3206,-3.2426,-3.2547,-3.3016,-3.1466,-3.1365,-3.1892,-2.7962,-2.8002,-2.8082,-2.8219,-2.8259,-2.8299,-2.8471,-2.851,-2.851,-2.851,-2.851,-2.851,-2.851,-2.851,-2.851,-2.851,-2.851,-2.851,-2.851,-2.787,-2.757,-2.7678,-2.7054,-2.6657,-2.6549,-2.6154,-2.5865,-2.5757,-2.4927,-2.4266,-2.3806,-2.3685,-2.3192,-2.2378,-2.2678,-2.2582,-2.2197,-2.2197,-2.2197,-2.2197,-2.2197,-2.2092,-2.1968,-2.1968,-2.1906,-2.1824,-2.1824,-2.23,-2.3103,-2.3848,-2.4096,-2.4143,-2.4412,-2.4826,-2.5278,-2.5625,-2.5757,-2.5877,-2.6393,-2.6633,-2.6717,-2.6717,-2.6633,-2.6537,-2.6537,-2.6633,-2.6837,-2.7284,-2.7464,-2.763,-2.8089,-2.7798,-2.7654,-2.8102,-2.7786,-2.7654,-2.8114,-2.7774,-2.7753,-2.827,-2.757,-2.739,-2.8258,-2.8438,-2.8843,-2.9626,-2.9845,-3.0291,-3.1119,-3.1341,-3.1415,-3.1415,-3.1111,-3.1111,-3.1429,-3.1111,-3.168,-3.3094,-3.322,-3.329,-3.329,-3.329,-3.329,-3.329,-3.329,-3.329,-3.329,-3.329,-3.329,-3.3206,-3.2426,-3.2196,-3.2232,-3.1267,-3.1007,-3.1156,-2.7708,-2.7788,-2.7921,-2.803,-2.807,-2.807,-2.8203,-2.8203,-2.8231,-2.8339,-2.8271,-2.8231,-2.8351,-2.8351,-2.8391,-2.8471,-2.851,-2.851,-2.851,-2.8017,-2.7798,-2.8089,-2.7546,-2.727,-2.727,-2.6741,-2.637,-2.6093,-2.554,-2.5011,-2.4494,-2.4242,-2.3833,-2.3304,-2.3372,-2.324,-2.2963,-2.2678,-2.257,-2.2546,-2.2294,-2.2092,-2.1894,-2.1894,-2.1812,-2.1733,-2.1969,-2.2479,-2.3185,-2.3956,-2.4225,-2.4318,-2.4905,-2.5343,-2.5737,-2.6196,-2.6342,-2.6402,-2.6813,-2.7078,-2.727,-2.727,-2.7462,-2.7522,-2.7018,-2.709,-2.7354,-2.763,-2.7921,-2.8186,-2.8462,-2.8282,-2.8186,-2.8462,-2.8282,-2.8198,-2.8474,-2.827,-2.821,-2.8474,-2.7978,-2.7858,-2.8462,-2.851,-2.8657,-2.9106,-2.9484,-2.9884,-3.0304,-3.0707,-3.0895,-3.0895,-3.0519,-3.0519,-3.0895,-3.0519,-3.0932,-3.2151,-3.2151,-3.2151,-3.2151,-3.2151,-3.2151,-3.2151,-3.2151,-3.2151,-3.2151,-3.2151,-3.2151,-3.2064,-3.1267,-3.118,-3.1378,-3.019,-2.9742,-2.9742,-2.7441,-2.7626,-2.78,-2.7841,-2.7841,-2.7841,-2.7881,-2.7893,-2.7962,-2.8139,-2.8002,-2.7962,-2.8139,-2.8139,-2.8219,-2.8431,-2.8471,-2.8471,-2.851,-2.8102,-2.8053,-2.8498,-2.805,-2.7774,-2.7678,-2.7258,-2.6765,-2.6238,-2.6142,-2.5829,-2.53,-2.4951,-2.465,-2.4374,-2.4049,-2.3845,-2.3703,-2.3259,-2.3079,-2.3011,-2.2535,-2.2261,-2.206,-2.206,-2.1977,-2.192,-2.2329,-2.2756,-2.3236,-2.3943,-2.4128,-2.4209,-2.5161,-2.5506,-2.5728,-2.6484,-2.6676,-2.6738,-2.6986,-2.7409,-2.7783,-2.7783,-2.8146,-2.8282,-2.7366,-2.7498,-2.7861,-2.7861,-2.821,-2.851,-2.851,-2.851,-2.851,-2.851,-2.851,-2.851,-2.851,-2.851,-2.851,-2.851,-2.851,-2.851,-2.851,-2.851,-2.851,-2.851,-2.9106,-2.9471,-2.9471,-3.0114,-3.0481,-3.0481,-2.9845,-2.9819,-3.0481,-2.9807,-2.9807,-3.0481,-3.0481,-3.0632,-3.0895,-3.0895,-3.0895,-3.0895,-3.0895,-3.0895,-3.0895,-3.0895,-3.0895,-3.082,-2.9999,-3.0114,-3.0519,-2.9028,-2.851,-2.851,-2.7219,-2.7272,-2.7342,-2.7522,-2.7563,-2.7615,-2.7841,-2.7893,-2.7933,-2.7921,-2.7921,-2.7933,-2.7921,-2.7921,-2.803,-2.8219,-2.8259,-2.8299,-2.8471,-2.845,-2.8438,-2.851,-2.8438,-2.8186,-2.769,-2.7618,-2.7318,-2.6777,-2.6334,-2.5829,-2.5312,-2.5709,-2.5168,-2.3926,-2.4254,-2.4068,-2.3549,-2.3444,-2.3342,-2.3164,-2.3093,-2.2925,-2.2758,-2.2758,-2.2669,-2.2557,-2.266,-2.3248,-2.4236,-2.5666,-2.58,-2.5547,-2.6255,-2.6229,-2.6062,-2.6819,-2.705,-2.7144,-2.7631,-2.7956,-2.8112,-2.8112,-2.8331,-2.8474,-2.833,-2.8354,-2.8402,-2.8402,-2.8462,-2.851,-2.851,-2.851,-2.851,-2.851,-2.851,-2.851,-2.851,-2.851,-2.851,-2.851,-2.851,-2.851,-2.851,-2.851,-2.851,-2.851,-2.859,-2.8657,-2.8657,-2.8776,-2.8803,-2.8803,-2.8736,-2.8697,-2.8803,-2.8736,-2.8736,-2.8803,-2.8803,-2.9549,-3.0895,-3.0895,-3.0895,-3.0895,-3.0895,-3.0895,-3.0895,-3.0895,-3.0895,-3.082,-2.9999,-2.9781,-2.9742,-2.8843,-2.851,-2.851,-2.6445,-2.6839,-2.7231,-2.7342,-2.733,-2.7383,-2.7476,-2.7516,-2.7557,-2.7667,-2.7586,-2.7557,-2.7655,-2.7696,-2.7817,-2.8179,-2.8111,-2.8111,-2.8299,-2.8231,-2.8163,-2.8163,-2.8163,-2.7913,-2.7391,-2.734,-2.7272,-2.6996,-2.6415,-2.5793,-2.5182,-2.5409,-2.5135,-2.4363,-2.4577,-2.4637,-2.4578,-2.4023,-2.3871,-2.3991,-2.3438,-2.3068,-2.2888,-2.2888,-2.2832,-2.2788,-2.3328,-2.4177,-2.5187,-2.618,-2.6352,-2.626,-2.6806,-2.6858,-2.6771,-2.7179,-2.7317,-2.7415,-2.7782,-2.7962,-2.803,-2.803,-2.8111,-2.8163,-2.8163,-2.8271,-2.8339,-2.8471,-2.851,-2.851,-2.851,-2.851,-2.851,-2.851,-2.851,-2.851,-2.851,-2.851,-2.851,-2.851,-2.851,-2.851,-2.851,-2.851,-2.851,-2.851,-2.851,-2.851,-2.851,-2.851,-2.851,-2.851,-2.851,-2.851,-2.851,-2.851,-2.851,-2.851,-2.8811,-2.9175,-2.9549,-2.9549,-2.9549,-2.9549,-2.9549,-2.9549,-2.9549,-2.9549,-2.9549,-2.951,-2.9184,-2.9028,-2.8949,-2.8486,-2.8339,-2.8339]}]]